[[{"header":{"parameterUnit":"m.s-1","parameterCategory":1,"la1":30.6,"la2":28.766,"lo1":-90.7593,"lo2":-88.6598,"dy":0.0162,"dx":0.0183,"nx":116,"ny":114,"refTime":"2023-04-05T06:00:00:Z","depth":0,"parameterNumber":2,"parameterNumberName":"U-component_of_WINDS"},"data":[0.0,0.0,0.0,0.0,0.0,0.0,0.0,0.0,0.0,0.0,0.0,0.0,0.0,0.0,0.0,0.0,0.0,0.0,0.0,0.0,0.0,0.0,0.0,0.0,0.0,0.0,0.0,0.0,0.0,0.0,0.0,0.0,0.0,0.0,0.0,0.0,0.0,0.0,0.0,0.0,0.0,0.0,0.0,0.0,0.0,0.0,0.0,0.0,0.0,0.0,0.0,0.0,0.0,0.0,0.0,0.0,0.0,0.0,0.0,0.0,0.0,0.0,0.0,0.0,0.0,0.0,0.0,0.0,0.0,0.0,0.0,0.0,0.0,0.0,0.0,0.0,0.0,0.0,0.0,0.0,0.0,0.0,0.0,0.0,0.0,0.0,0.0,0.0,0.0,0.0,0.0,0.0,0.0,0.0,0.0,0.0,0.0,0.0,0.0,0.0,0.0,0.0,0.0,0.0,0.0,0.0,0.0,0.0,0.0,0.0,0.0,0.0,0.0,0.0,0.0,0.0,0.0,0.0,0.0,0.0,0.0,0.0,0.0,0.0,0.0,0.0,0.0,0.0,0.0,0.0,0.0,0.0,0.0,0.0,0.0,0.0,0.0,0.0,0.0,0.0,0.0,0.0,0.0,0.0,0.0,0.0,0.0,0.0,0.0,0.0,0.0,0.0,0.0,0.0,0.0,0.0,0.0,0.0,0.0,0.0,0.0,0.0,0.0,0.0,0.0,0.0,0.0,0.0,0.0,0.0,0.0,0.0,0.0,0.0,0.0,0.0,0.0,0.0,0.0,0.0,0.0,0.0,0.0,0.0,0.0,0.0,0.0,0.0,0.0,0.0,0.0,0.0,0.0,0.0,0.0,0.0,0.0,0.0,0.0,0.0,0.0,0.0,0.0,0.0,0.0,0.0,0.0,0.0,0.0,0.0,0.0,0.0,0.0,0.0,0.0,0.0,0.0,0.0,0.0,0.0,0.0,0.0,0.0,0.0,0.0,0.0,0.0,0.0,0.0,0.0,0.0,0.0,0.0,0.0,0.0,0.0,0.0,0.0,0.0,0.0,0.0,0.0,0.0,0.0,0.0,0.0,0.0,0.0,0.0,0.0,0.0,0.0,0.0,0.0,0.0,0.0,0.0,0.0,0.0,0.0,0.0,0.0,0.0,0.0,0.0,0.0,0.0,0.0,0.0,0.0,0.0,0.0,0.0,0.0,0.0,0.0,0.0,0.0,0.0,0.0,0.0,0.0,0.0,0.0,0.0,0.0,0.0,0.0,0.0,0.0,0.0,0.0,0.0,0.0,0.0,0.0,0.0,0.0,0.0,0.0,0.0,0.0,0.0,0.0,0.0,0.0,0.0,0.0,0.0,0.0,0.0,0.0,0.0,0.0,0.0,0.0,0.0,0.0,0.0,0.0,0.0,0.0,0.0,0.0,0.0,0.0,0.0,0.0,0.0,0.0,0.0,0.0,0.0,0.0,0.0,0.0,0.0,0.0,0.0,0.0,0.0,0.0,0.0,0.0,0.0,0.0,0.0,0.0,0.0,0.0,0.0,0.0,0.0,0.0,0.0,0.0,0.0,0.0,0.0,0.0,0.0,0.0,0.0,0.0,0.0,0.0,0.0,0.0,0.0,0.0,0.0,0.0,0.0,0.0,0.0,0.0,0.0,0.0,0.0,0.0,0.0,0.0,0.0,0.0,0.0,0.0,0.0,0.0,0.0,0.0,0.0,0.0,0.0,0.0,0.0,0.0,0.0,0.0,0.0,0.0,0.0,0.0,0.0,0.0,0.0,0.0,0.0,0.0,0.0,0.0,0.0,0.0,0.0,0.0,0.0,0.0,0.0,0.0,0.0,0.0,0.0,0.0,0.0,0.0,0.0,0.0,0.0,0.0,0.0,0.0,0.0,0.0,0.0,0.0,0.0,0.0,0.0,0.0,0.0,0.0,0.0,0.0,0.0,0.0,0.0,0.0,0.0,0.0,0.0,0.0,0.0,0.0,0.0,0.0,0.0,0.0,0.0,0.0,0.0,0.0,0.0,0.0,0.0,0.0,0.0,0.0,0.0,0.0,0.0,0.0,0.0,0.0,0.0,0.0,0.0,0.0,0.0,0.0,0.0,0.0,0.0,0.0,0.0,0.0,0.0,0.0,0.0,0.0,0.0,0.0,0.0,0.0,0.0,0.0,0.0,0.0,0.0,0.0,0.0,0.0,0.0,0.0,0.0,0.0,0.0,0.0,0.0,0.0,0.0,0.0,0.0,0.0,0.0,0.0,0.0,0.0,0.0,0.0,0.0,0.0,0.0,0.0,0.0,0.0,0.0,0.0,0.0,0.0,0.0,0.0,0.0,0.0,0.0,0.0,0.0,0.0,0.0,0.0,0.0,0.0,0.0,0.0,0.0,0.0,0.0,0.0,0.0,0.0,0.0,0.0,0.0,0.0,0.0,0.0,0.0,0.0,0.0,0.0,0.0,0.0,0.0,0.0,0.0,0.0,0.0,0.0,0.0,0.0,0.0,0.0,0.0,0.0,0.0,0.0,0.0,0.0,0.0,0.0,0.0,0.0,0.0,0.0,0.0,0.0,0.0,0.0,0.0,0.0,0.0,0.0,0.0,0.0,0.0,0.0,0.0,0.0,0.0,0.0,0.0,0.0,0.0,0.0,0.0,0.0,0.0,0.0,0.0,0.0,0.0,0.0,0.0,0.0,0.0,0.0,0.0,0.0,0.0,0.0,0.0,0.0,0.0,0.0,0.0,0.0,0.0,0.0,0.0,0.0,0.0,0.0,0.0,0.0,0.0,0.0,0.0,0.0,0.0,0.0,0.0,0.0,0.0,0.0,0.0,0.0,0.0,0.0,0.0,0.0,0.0,0.0,0.0,0.0,0.0,0.0,0.0,0.0,0.0,0.0,0.0,0.0,0.0,0.0,0.0,0.0,0.0,0.0,0.0,0.0,0.0,0.0,0.0,0.0,0.0,0.0,0.0,0.0,0.0,0.0,0.0,0.0,0.0,0.0,0.0,0.0,0.0,0.0,0.0,0.0,0.0,0.0,0.0,0.0,0.0,0.0,0.0,0.0,0.0,0.0,0.0,0.0,0.0,0.0,0.0,0.0,0.0,0.0,0.0,0.0,0.0,0.0,0.0,0.0,0.0,0.0,0.0,0.0,0.0,0.0,0.0,0.0,0.0,0.0,0.0,0.0,0.0,0.0,0.0,0.0,0.0,0.0,0.0,0.0,0.0,0.0,0.0,0.0,0.0,0.0,0.0,0.0,0.0,0.0,0.0,0.0,0.0,0.0,0.0,0.0,0.0,0.0,0.0,0.0,0.0,0.0,0.0,0.0,0.0,0.0,0.0,0.0,0.0,0.0,0.0,0.0,0.0,0.0,0.0,0.0,0.0,0.0,0.0,0.0,0.0,0.0,0.0,0.0,0.0,0.0,0.0,0.0,0.0,0.0,0.0,0.0,0.0,0.0,0.0,0.0,0.0,0.0,0.0,0.0,0.0,0.0,0.0,0.0,0.0,0.0,0.0,0.0,0.0,0.0,0.0,0.0,0.0,0.0,0.0,0.0,0.0,0.0,0.0,0.0,0.0,0.0,0.0,0.0,0.0,0.0,0.0,0.0,0.0,0.0,0.0,0.0,0.0,0.0,0.0,0.0,0.0,0.0,0.0,0.0,0.0,0.0,0.0,0.0,0.0,0.0,0.0,0.0,0.0,0.0,0.0,0.0,0.0,0.0,0.0,0.0,0.0,0.0,0.0,0.0,0.0,0.0,0.0,0.0,0.0,0.0,0.0,0.0,0.0,0.0,0.0,0.0,0.0,0.0,0.0,0.0,0.0,0.0,0.0,0.0,0.0,0.0,0.0,0.0,0.0,0.0,0.0,0.0,0.0,0.0,0.0,0.0,0.0,0.0,0.0,0.0,0.0,0.0,0.0,0.0,0.0,0.0,0.0,0.0,0.0,0.0,0.0,0.0,0.0,0.0,0.0,0.0,0.0,0.0,0.0,0.0,0.0,0.0,0.0,0.0,0.0,0.0,0.0,0.0,0.0,0.0,0.0,0.0,0.0,0.0,0.0,0.0,0.0,0.0,0.0,0.0,0.0,0.0,0.0,0.0,0.0,0.0,0.0,0.0,0.0,0.0,0.0,0.0,0.0,0.0,0.0,0.0,0.0,0.0,0.0,0.0,0.0,0.0,0.0,0.0,0.0,0.0,0.0,0.0,0.0,0.0,0.0,0.0,0.0,0.0,0.0,0.0,0.0,0.0,0.0,0.0,0.0,0.0,0.0,0.0,0.0,0.0,0.0,0.0,0.0,0.0,0.0,0.0,0.0,0.0,0.0,0.0,0.0,0.0,0.0,0.0,0.0,0.0,0.0,0.0,0.0,0.0,0.0,0.0,0.0,0.0,0.0,0.0,0.0,0.0,0.0,0.0,0.0,0.0,0.0,0.0,0.0,0.0,0.0,0.0,0.0,0.0,0.0,0.0,0.0,0.0,0.0,0.0,0.0,0.0,0.0,0.0,0.0,0.0,0.0,0.0,0.0,0.0,0.0,0.0,0.0,0.0,0.0,0.0,0.0,0.0,0.0,0.0,0.0,0.0,0.0,0.0,0.0,0.0,0.0,0.0,0.0,0.0,0.0,0.0,0.0,0.0,0.0,0.0,0.0,0.0,0.0,0.0,0.0,0.0,0.0,0.0,0.0,0.0,0.0,0.0,0.0,0.0,0.0,0.0,0.0,0.0,0.0,0.0,0.0,0.0,0.0,0.0,0.0,0.0,0.0,0.0,0.0,0.0,0.0,0.0,0.0,0.0,0.0,0.0,0.0,0.0,0.0,0.0,0.0,0.0,0.0,0.0,0.0,0.0,0.0,0.0,0.0,0.0,0.0,0.0,0.0,0.0,0.0,0.0,0.0,0.0,0.0,0.0,0.0,0.0,0.0,0.0,0.0,0.0,0.0,0.0,0.0,0.0,0.0,0.0,0.0,0.0,0.0,0.0,0.0,0.0,0.0,0.0,0.0,0.0,0.0,0.0,0.0,0.0,0.0,0.0,0.0,0.0,0.0,0.0,0.0,0.0,0.0,0.0,0.0,0.0,0.0,0.0,0.0,0.0,0.0,0.0,0.0,0.0,0.0,0.0,0.0,0.0,0.0,0.0,0.0,0.0,0.0,0.0,0.0,0.0,0.0,0.0,0.0,0.0,0.0,0.0,0.0,0.0,0.0,0.0,0.0,0.0,0.0,0.0,0.0,0.0,0.0,0.0,0.0,0.0,0.0,0.0,0.0,0.0,0.0,0.0,0.0,0.0,0.0,0.0,0.0,0.0,0.0,0.0,0.0,0.0,0.0,0.0,0.0,0.0,0.0,0.0,0.0,0.0,0.0,0.0,0.0,0.0,0.0,0.0,0.0,0.0,0.0,0.0,0.0,0.0,0.0,0.0,0.0,0.0,0.0,0.0,0.0,0.0,0.0,0.0,0.0,0.0,0.0,0.0,0.0,0.0,0.0,0.0,0.0,0.0,0.0,0.0,0.0,0.0,0.0,0.0,0.0,0.0,0.0,0.0,0.0,0.0,0.0,0.0,0.0,0.0,0.0,0.0,0.0,0.0,0.0,0.0,0.0,0.0,0.0,0.0,0.0,0.0,0.0,0.0,0.0,0.0,0.0,0.0,0.0,0.0,0.0,0.0,0.0,0.0,0.0,0.0,0.0,0.0,0.0,0.0,0.0,0.0,0.0,0.0,0.0,0.0,0.0,0.0,0.0,0.0,0.0,0.0,0.0,0.0,0.0,0.0,0.0,0.0,0.0,0.0,0.0,0.0,0.0,0.0,0.0,0.0,0.0,0.0,0.0,0.0,0.0,0.0,0.0,0.0,0.0,0.0,0.0,0.0,0.0,0.0,0.0,0.0,0.0,0.0,0.0,0.0,0.0,0.0,0.0,0.0,0.0,0.0,0.0,0.0,0.0,0.0,0.0,0.0,0.0,0.0,0.0,0.0,0.0,0.0,0.0,0.0,0.0,0.0,0.0,0.0,0.0,0.0,0.0,0.0,0.0,0.0,0.0,0.0,0.0,0.0,0.0,0.0,0.0,0.0,2.5159,2.4678,0.0,0.0,0.0,0.0,0.0,0.0,0.0,0.0,0.0,0.0,0.0,0.0,0.0,0.0,0.0,0.0,0.0,0.0,0.0,0.0,0.0,0.0,0.0,0.0,0.0,0.0,0.0,0.0,0.0,0.0,0.0,0.0,0.0,0.0,0.0,0.0,0.0,2.3282,2.4005,2.4938,2.6024,2.5944,2.4955,2.3205,0.0,0.0,0.0,0.0,0.0,0.0,0.0,0.0,0.0,0.0,0.0,0.0,0.0,0.0,0.0,0.0,0.0,0.0,0.0,0.0,0.0,0.0,0.0,0.0,0.0,0.0,0.0,0.0,0.0,0.0,0.0,0.0,0.0,0.0,0.0,0.0,0.0,0.0,0.0,0.0,0.0,0.0,0.0,0.0,0.0,0.0,0.0,0.0,0.0,0.0,0.0,0.0,0.0,0.0,0.0,0.0,0.0,0.0,0.0,0.0,0.0,0.0,0.0,0.0,0.0,0.0,0.0,0.0,0.0,0.0,2.7966,2.6813,0.0,0.0,0.0,0.0,0.0,0.0,0.0,0.0,0.0,0.0,0.0,0.0,0.0,0.0,0.0,0.0,0.0,0.0,0.0,0.0,0.0,0.0,0.0,0.0,2.1604,2.2013,2.1692,2.1659,0.0,0.0,0.0,0.0,0.0,0.0,0.0,2.1933,2.1989,2.2644,2.377,2.5182,2.6834,2.6955,2.6178,2.4667,2.4099,0.0,0.0,0.0,0.0,0.0,0.0,0.0,0.0,0.0,0.0,0.0,0.0,0.0,0.0,0.0,0.0,0.0,0.0,0.0,0.0,0.0,0.0,0.0,0.0,0.0,0.0,0.0,0.0,0.0,0.0,0.0,0.0,0.0,0.0,0.0,0.0,0.0,0.0,0.0,0.0,0.0,0.0,0.0,0.0,0.0,0.0,0.0,0.0,0.0,0.0,0.0,0.0,0.0,0.0,0.0,0.0,0.0,0.0,0.0,0.0,0.0,0.0,0.0,3.1238,3.157,3.157,3.2057,3.1689,3.0689,3.1785,3.0137,2.6742,2.7603,0.0,0.0,0.0,0.0,0.0,0.0,0.0,0.0,0.0,0.0,0.0,0.0,0.0,0.0,0.0,0.0,0.0,0.0,0.0,0.0,0.0,2.2109,2.2385,2.1503,2.2395,2.2628,0.0,0.0,0.0,0.0,0.0,0.0,2.098,2.0071,2.0922,2.3622,2.5491,2.6742,2.7394,2.7419,2.7293,2.7002,2.6073,2.5137,2.4227,0.0,0.0,0.0,0.0,0.0,0.0,0.0,0.0,0.0,0.0,0.0,0.0,0.0,0.0,0.0,0.0,0.0,0.0,0.0,0.0,0.0,0.0,0.0,0.0,0.0,0.0,0.0,0.0,0.0,0.0,0.0,0.0,0.0,0.0,0.0,0.0,0.0,0.0,0.0,0.0,0.0,2.6262,2.4124,0.0,0.0,0.0,0.0,0.0,0.0,0.0,0.0,0.0,0.0,0.0,0.0,0.0,3.0552,3.0936,3.0252,2.9918,2.9922,3.094,3.1433,3.1511,3.39,3.4896,3.4757,3.5435,0.0,2.8806,2.6676,0.0,0.0,0.0,0.0,0.0,0.0,0.0,0.0,0.0,0.0,0.0,0.0,0.0,0.0,0.0,0.0,0.0,0.0,0.0,0.0,0.0,2.1912,2.2821,2.2812,2.3877,2.4238,2.3495,2.3887,0.0,0.0,0.0,2.1242,2.0607,2.086,2.2478,2.5491,2.6823,2.8045,2.9126,2.9126,2.9126,2.9113,2.8671,2.7423,2.5555,2.3984,0.0,0.0,0.0,0.0,0.0,0.0,0.0,0.0,0.0,0.0,0.0,0.0,0.0,0.0,0.0,0.0,0.0,0.0,0.0,0.0,0.0,0.0,0.0,0.0,0.0,0.0,0.0,0.0,0.0,0.0,0.0,0.0,0.0,0.0,0.0,0.0,0.0,0.0,0.0,2.527,2.5384,2.3696,2.4444,2.4699,0.0,0.0,0.0,0.0,0.0,0.0,0.0,0.0,0.0,2.874,3.0824,3.1789,3.148,3.2498,3.2996,3.3009,3.3826,3.4208,3.4246,3.5465,3.6006,3.6019,3.6281,3.5229,3.3172,3.1005,2.9916,2.9526,0.0,0.0,0.0,0.0,2.9292,2.9319,0.0,0.0,0.0,0.0,0.0,0.0,0.0,0.0,0.0,0.0,0.0,0.0,2.0578,2.2322,2.3729,2.4253,2.5271,2.5453,2.4432,2.4468,2.3503,2.121,2.0985,2.0558,1.9826,2.1753,2.41,2.6807,2.7967,2.9184,3.0406,3.0349,3.0349,3.0406,3.0538,2.9355,2.7144,2.53,2.4433,2.4109,0.0,0.0,0.0,0.0,0.0,0.0,0.0,0.0,0.0,0.0,0.0,0.0,0.0,0.0,0.0,0.0,0.0,0.0,0.0,0.0,0.0,0.0,0.0,0.0,0.0,0.0,0.0,0.0,0.0,0.0,0.0,0.0,0.0,0.0,0.0,0.0,0.0,2.4781,2.551,2.3815,2.5211,2.5801,0.0,0.0,0.0,0.0,0.0,0.0,2.7734,2.9509,3.0466,3.0425,3.2467,3.3271,3.2688,3.4702,3.5732,3.5744,3.6193,3.6393,3.6393,3.6393,3.6393,3.6393,3.6393,3.6393,3.6265,3.4392,3.2723,3.1322,3.1028,3.1052,3.1262,3.1516,3.1649,3.1714,0.0,0.0,0.0,0.0,0.0,0.0,0.0,0.0,0.0,0.0,0.0,2.2095,2.1593,2.4047,2.5576,2.5163,2.6236,2.5783,2.3078,2.3257,2.2286,1.9625,1.8674,1.8117,1.7937,2.18,2.4799,2.6807,2.8954,3.013,3.0406,3.02,3.0228,3.0423,3.0929,3.0283,2.8742,2.7922,2.7061,2.5977,2.2817,0.0,0.0,0.0,0.0,0.0,0.0,0.0,0.0,0.0,0.0,0.0,0.0,0.0,0.0,0.0,0.0,0.0,0.0,0.0,0.0,0.0,0.0,0.0,0.0,0.0,0.0,0.0,0.0,0.0,0.0,0.0,0.0,0.0,0.0,0.0,0.0,0.0,0.0,2.5419,2.6763,0.0,0.0,0.0,0.0,2.8546,2.9736,2.9941,2.888,3.1425,3.2662,3.2091,3.4222,3.5617,3.6142,3.6292,3.6355,3.6355,3.6393,3.6393,3.6393,3.6393,3.6393,3.6393,3.6393,3.6393,3.623,3.404,3.3326,3.3419,3.1273,3.0365,3.0311,3.0646,3.0416,3.0001,0.0,0.0,0.0,0.0,0.0,0.0,0.0,0.0,1.8279,1.8062,1.9606,2.0803,2.0998,2.3826,2.5856,2.6205,2.7574,2.7702,2.6004,2.4368,2.2582,2.0578,1.856,1.8803,2.1595,2.4485,2.6868,2.8732,2.9517,2.9934,3.0023,3.029,3.0454,3.0548,3.1089,3.103,3.0417,2.8992,2.8406,2.8223,2.5515,2.4162,0.0,0.0,0.0,0.0,0.0,0.0,0.0,0.0,0.0,0.0,0.0,0.0,0.0,0.0,0.0,0.0,0.0,0.0,0.0,0.0,0.0,0.0,0.0,0.0,0.0,0.0,0.0,0.0,0.0,0.0,0.0,0.0,0.0,0.0,0.0,0.0,0.0,2.7661,2.8828,0.0,2.8225,2.7757,2.8064,2.9376,3.0522,3.1108,3.1032,3.3326,3.4725,3.4899,3.5666,3.618,3.6393,3.6393,3.6393,3.6393,3.6393,3.6393,3.6393,3.6393,3.6393,3.6393,3.6393,3.6393,3.6343,3.5551,3.5316,3.5387,3.4577,3.4227,3.4216,3.4468,3.4437,3.4329,0.0,0.0,0.0,0.0,0.0,0.0,0.0,0.0,1.7891,1.8517,1.9946,2.1273,2.2243,2.4958,2.6931,2.7466,2.8676,2.8537,2.6523,2.4686,2.261,2.023,1.8958,2.0302,2.4551,2.6084,2.7815,2.9801,2.9801,2.9892,3.008,3.0435,3.0698,3.0886,3.1436,3.1675,3.1595,3.0611,3.0302,3.0289,2.8104,2.6316,2.481,0.0,0.0,0.0,0.0,0.0,0.0,0.0,0.0,0.0,0.0,0.0,0.0,0.0,0.0,0.0,0.0,0.0,0.0,0.0,0.0,0.0,0.0,0.0,0.0,0.0,0.0,0.0,0.0,0.0,0.0,0.0,0.0,0.0,0.0,2.793,2.9091,2.8771,3.0155,3.0956,3.0496,2.9865,3.0107,3.1606,3.2381,3.3031,3.3583,3.5003,3.5994,3.6393,3.6393,3.6393,3.6393,3.6393,3.6393,3.6393,3.6393,3.6393,3.6393,3.6393,3.6393,3.6393,3.6393,3.6393,3.6393,3.6393,3.6393,3.6393,3.6393,3.6393,3.6417,3.6545,3.6604,3.6663,0.0,0.0,0.0,0.0,0.0,0.0,0.0,1.7647,1.8425,1.9642,2.1736,2.3755,2.5435,2.7589,2.891,2.8922,2.9456,2.8169,2.433,2.3987,2.2209,1.8374,1.9788,2.2446,2.6217,2.6367,2.7515,2.9801,2.9826,3.0093,3.06,3.0625,3.0934,3.1446,3.1989,3.2229,3.2267,3.284,3.2765,3.2081,3.0388,2.8766,2.7041,0.0,0.0,0.0,0.0,0.0,0.0,0.0,0.0,0.0,0.0,0.0,0.0,0.0,0.0,0.0,0.0,0.0,0.0,0.0,0.0,0.0,0.0,0.0,0.0,0.0,0.0,0.0,0.0,0.0,0.0,0.0,0.0,0.0,2.5871,2.9035,3.0713,2.882,3.0785,3.2153,3.1851,3.2115,3.3197,3.5369,3.552,3.5782,3.6368,3.6393,3.6393,3.6393,3.6393,3.6393,3.6393,3.6393,3.6393,3.6393,3.6393,3.6393,3.6393,3.6393,3.6393,3.6393,3.6393,3.6393,3.6393,3.6393,3.6393,3.6393,3.6393,3.6393,3.6393,3.6393,3.6393,3.644,0.0,0.0,0.0,0.0,0.0,0.0,0.0,1.7186,1.8098,1.9598,2.1736,2.3905,2.6026,2.7846,2.9082,2.9506,2.9691,2.8668,2.5996,2.3542,2.0991,1.8323,2.2388,2.5249,2.6414,2.8023,2.9148,2.9801,3.0184,3.046,3.0623,3.1401,3.184,3.2014,3.2591,3.2853,3.2866,3.3027,3.3002,3.2815,3.233,3.0914,2.9004,0.0,0.0,0.0,0.0,0.0,0.0,0.0,0.0,0.0,0.0,0.0,0.0,0.0,0.0,0.0,0.0,0.0,0.0,0.0,0.0,0.0,0.0,0.0,0.0,0.0,0.0,0.0,0.0,0.0,0.0,0.0,2.8718,3.0432,2.988,3.106,3.2235,3.2891,3.3582,3.4119,3.443,3.4535,3.5029,3.6068,3.6143,3.6218,3.6393,3.6393,3.6393,3.6393,3.6393,3.6393,3.6393,3.6393,3.6393,3.6393,3.6393,3.6393,3.6393,3.6393,3.6393,3.6393,3.6393,3.6393,3.6393,3.6393,3.6393,3.6393,3.6393,3.6393,3.6393,3.6393,3.6499,3.6604,0.0,0.0,0.0,0.0,0.0,0.0,0.0,1.7513,1.8662,2.1217,2.2678,2.4599,2.755,2.8712,2.9418,2.9767,2.8957,2.7374,2.4899,2.2053,2.0815,2.1645,2.4709,2.6852,2.786,2.9136,2.9905,3.0143,3.0447,3.0836,3.1278,3.1916,3.233,3.2591,3.2941,3.3102,3.3102,3.3102,3.3102,3.3102,3.3102,3.1911,3.0108,2.9738,2.8478,2.687,2.6475,2.6572,2.6799,2.6265,0.0,0.0,0.0,0.0,0.0,0.0,0.0,0.0,0.0,0.0,0.0,0.0,0.0,0.0,0.0,0.0,0.0,0.0,0.0,0.0,0.0,0.0,0.0,0.0,3.0517,3.2704,3.307,3.3386,3.3939,3.4917,3.5254,3.5529,3.5844,3.5881,3.6019,3.6368,3.6393,3.6393,3.6393,3.6393,3.6393,3.6393,3.6393,3.6393,3.6393,3.6393,3.6393,3.6393,3.6393,3.6393,3.6393,3.6393,3.6393,3.6393,3.6393,3.6393,3.6393,3.6393,3.6393,0.0,0.0,0.0,0.0,0.0,3.6476,3.6557,0.0,0.0,0.0,0.0,0.0,0.0,0.0,1.8248,1.966,2.3502,2.4046,2.5548,2.9387,2.9801,2.9801,2.9801,2.7785,2.5301,2.2483,2.0764,2.1807,2.621,2.67,2.7785,2.9764,2.9864,3.0118,3.06,3.0723,3.1275,3.2204,3.2267,3.2591,3.3102,3.3102,3.3102,3.3102,3.3102,3.3102,3.3102,3.3102,3.2213,3.0814,3.0223,2.9365,2.8397,2.7751,2.7584,2.7711,2.7869,0.0,0.0,0.0,0.0,0.0,0.0,0.0,0.0,0.0,0.0,0.0,0.0,0.0,0.0,0.0,0.0,0.0,0.0,0.0,0.0,0.0,0.0,0.0,0.0,3.1909,3.3971,3.5394,3.5607,3.5607,3.5607,3.6068,3.6393,3.6393,3.6393,3.6393,3.6393,3.6393,3.6393,3.6393,3.6393,0.0,0.0,0.0,3.6393,3.6393,3.6393,3.6393,3.6393,3.6393,3.6393,3.6393,3.6393,3.6393,3.6393,3.6393,3.6393,3.6393,3.6393,3.6393,3.6393,3.6393,3.6393,3.6393,3.6393,3.6393,3.6393,0.0,0.0,0.0,0.0,0.0,0.0,0.0,1.8568,2.0087,2.3552,2.4385,2.5967,2.9425,2.9801,2.9801,2.9801,2.7785,2.5301,2.2483,2.4032,2.5272,2.5745,2.7952,2.9362,2.9789,3.0221,3.0497,3.06,3.1476,3.2003,3.2217,3.2702,3.2989,3.3102,3.3102,3.3102,3.3102,3.3102,3.3102,3.3102,3.3102,3.2901,3.2602,3.2468,3.2292,3.2081,3.1926,3.1899,3.1709,3.0256,2.9923,2.9897,2.8672,2.7473,0.0,0.0,0.0,0.0,0.0,0.0,0.0,0.0,0.0,0.0,0.0,0.0,0.0,0.0,0.0,0.0,0.0,0.0,0.0,3.0397,3.3431,3.5865,3.618,3.623,3.623,3.623,3.633,3.6393,3.6393,3.6393,3.6393,3.6393,3.6393,3.6393,3.6393,3.6393,3.6393,3.6393,3.6393,3.6393,3.6393,3.6393,3.6393,3.6393,0.0,0.0,3.6393,3.6393,3.6393,3.6393,3.6393,3.6393,3.6393,3.6393,3.6393,3.6393,3.6393,3.6393,3.6393,3.6393,3.6393,3.6393,0.0,0.0,0.0,0.0,0.0,0.0,0.0,1.919,2.03,2.2817,2.3503,2.4681,2.7122,2.7187,2.6936,2.667,2.5046,2.3313,2.1558,2.4342,2.6139,2.6344,2.8568,2.972,2.9554,3.0239,3.0851,3.1401,3.1941,3.2342,3.2665,3.2964,3.3102,3.3102,3.3102,3.3102,3.3102,3.3102,3.3102,3.3102,3.3102,3.3102,3.3102,3.3102,3.3102,3.3102,3.3102,3.3102,3.2966,3.202,3.1991,3.2081,3.0575,2.9638,2.8703,0.0,0.0,0.0,0.0,0.0,0.0,0.0,0.0,0.0,0.0,0.0,0.0,0.0,0.0,2.8495,2.8156,0.0,3.2242,3.2242,3.4597,3.6393,3.6393,3.6393,3.6393,3.6393,3.6393,3.6393,3.6393,3.6393,3.6393,3.6393,3.6393,3.6393,3.6393,3.6393,3.6393,3.6393,3.6393,3.6393,3.6393,3.6393,3.6393,3.6393,3.6393,3.6393,3.6393,3.6393,3.6393,3.6393,3.6393,3.6393,3.6393,3.6393,3.6393,3.6393,3.6393,3.6393,3.6393,3.6393,3.6393,3.6393,0.0,0.0,0.0,0.0,0.0,0.0,0.0,1.9734,2.0394,2.2081,2.2513,2.3256,2.4787,2.4641,2.3964,2.2803,2.2367,2.1783,2.0909,2.4024,2.6414,2.7576,2.8769,2.9457,2.9551,3.0272,3.1154,3.2204,3.2317,3.2616,3.3102,3.3102,3.3102,3.3102,3.3102,3.3102,3.3102,3.3102,3.3102,3.3102,3.3102,3.3102,3.3102,3.3102,3.3102,3.3102,3.3102,3.2826,3.2525,3.2952,3.3288,3.3319,3.2243,3.1867,3.1091,2.7351,2.6905,0.0,0.0,0.0,0.0,0.0,0.0,0.0,0.0,2.84,2.9184,3.0493,3.1131,3.1453,3.1412,3.2778,3.3897,3.3897,3.5313,3.6393,3.6393,3.6393,3.6393,3.6393,3.6393,3.6393,3.6393,3.6393,3.6393,3.6393,3.6393,3.6393,3.6393,3.6393,3.6393,3.6393,3.6393,3.6393,3.6393,3.6393,3.6393,3.6393,3.6393,3.6393,3.6393,3.6393,3.6393,3.6393,3.6393,3.6393,3.6406,3.6506,3.6556,3.6569,3.6669,3.6708,3.6707,3.6594,3.6556,3.6569,0.0,0.0,0.0,0.0,0.0,0.0,0.0,0.0,2.0394,2.2081,2.2427,2.3108,2.4648,2.4886,2.355,2.0143,2.2509,2.349,2.1864,2.5005,2.7703,2.9414,2.8554,2.8785,3.0416,3.0666,3.1246,3.2204,3.274,3.304,3.3102,3.3102,3.3102,3.3102,3.3102,3.3102,3.3102,3.3102,3.3102,3.3102,3.3102,3.3102,3.3102,3.3102,3.3102,3.3102,3.3102,3.1846,3.0467,3.2437,3.1858,3.0753,3.327,3.2901,3.1208,2.9472,2.7542,2.5549,2.3624,2.4895,2.6738,2.6612,2.842,3.0234,0.0,3.0655,3.1087,3.1268,3.1359,3.1402,3.1394,3.2778,3.3897,3.3897,3.5313,3.6393,3.6393,3.6393,3.6393,3.6393,3.6393,3.6393,3.6393,3.6393,3.6393,3.6393,3.6393,3.6393,3.6393,3.6393,3.6393,3.6393,3.6393,3.6393,3.6393,3.6393,3.6393,3.6393,3.6393,3.6393,3.6393,3.6393,3.6393,3.6393,3.6393,3.6393,3.6443,3.6909,3.711,3.7161,3.7626,3.7826,3.7764,3.7286,3.711,3.7185,0.0,0.0,0.0,0.0,0.0,0.0,0.0,0.0,0.0,2.0637,2.0975,2.1382,2.1931,2.1258,2.0028,1.8221,2.129,2.2633,2.0961,2.5755,2.8313,2.7506,2.8734,2.9709,3.0292,3.1166,3.1974,3.2727,3.2977,3.3102,3.3102,3.3102,3.3102,3.3102,3.3102,3.3102,3.3102,3.3102,3.3102,3.3102,3.3102,3.3102,3.3102,3.3102,3.3102,3.2927,3.1635,3.0592,0.0,3.0869,3.0555,3.0259,3.2826,3.2421,3.0604,2.8734,2.7663,2.7286,2.8164,2.8515,2.8958,3.0249,3.1446,3.2293,3.2293,3.2585,3.3129,3.4107,3.432,3.432,3.432,3.4874,3.5351,3.5351,3.5941,3.6393,3.6393,3.6393,3.6393,3.6393,3.6393,3.6393,3.6393,3.6393,3.6393,3.6393,3.6393,3.6393,3.6393,3.6393,3.6393,3.6393,3.6393,3.6556,3.6859,3.6859,3.7022,3.7324,3.7324,3.7324,3.7324,3.7324,3.7324,3.7324,3.7324,3.7324,3.7349,3.7563,3.7675,3.7688,3.7914,3.799,3.7965,3.7751,3.7675,3.7701,0.0,0.0,0.0,0.0,0.0,0.0,0.0,0.0,0.0,0.0,1.9946,2.0042,1.9744,1.8449,1.7442,1.705,1.9869,2.1434,2.0852,2.5571,2.8019,2.7158,2.902,3.0263,3.0662,3.1561,3.2376,3.3102,3.3102,3.3102,3.3102,3.3102,3.3102,3.3102,3.3102,3.3102,3.3102,3.3102,3.3102,3.3102,3.3102,3.3102,3.3102,3.3102,3.2726,3.1984,3.0327,2.938,2.8859,2.8662,2.8298,2.8348,3.0577,3.0542,2.9305,2.739,2.6779,2.7288,2.9917,3.0368,3.0627,3.2849,3.3844,3.4292,3.4292,3.4451,3.4925,3.6154,3.6393,3.6393,3.6393,3.6393,3.6393,3.6393,3.6393,3.6393,3.6393,3.6393,3.6393,3.6393,3.6393,3.6393,3.6393,3.6393,3.6393,3.6393,3.6393,3.6393,3.6393,3.6393,3.6468,3.6619,3.6619,3.6884,3.7424,3.7424,3.7625,3.799,3.799,3.799,3.799,3.799,3.799,3.799,3.799,3.799,3.8015,3.8178,3.8253,3.8253,3.8417,3.8467,3.8467,3.8467,3.8379,3.8266,0.0,0.0,0.0,0.0,0.0,0.0,0.0,0.0,0.0,0.0,0.0,0.0,0.0,1.7991,1.7175,1.6845,1.8512,2.0444,2.2492,2.4015,2.6526,3.0293,2.936,2.9818,3.2093,3.1804,3.2097,3.3102,3.3102,3.3102,3.3102,3.3102,3.3102,3.3102,3.3102,3.3102,3.3102,3.3102,3.3102,3.3102,3.3102,3.3102,3.3102,3.3102,3.1771,2.987,2.9675,2.8312,2.6494,2.5773,2.4541,2.3697,2.5979,2.7018,2.7173,2.5996,2.4503,2.3755,2.6051,2.8203,3.0334,3.2564,3.4736,3.6306,3.6306,3.6318,3.6343,3.6393,3.6393,3.6393,3.6393,3.6393,3.6393,3.6393,3.6393,3.6393,3.6393,3.6393,3.6393,3.6393,3.6393,3.6393,3.6393,3.6393,3.6393,3.6393,3.6393,3.6393,3.6393,3.6393,3.6644,3.7161,3.7185,3.7437,3.7977,3.799,3.7977,3.799,3.799,3.799,3.799,3.799,3.799,3.799,3.799,3.799,3.8052,3.863,3.8869,3.8919,3.9446,3.9647,3.9647,3.9647,3.9321,3.8944,0.0,0.0,0.0,0.0,0.0,0.0,0.0,0.0,0.0,0.0,0.0,0.0,0.0,0.0,0.0,0.0,1.9718,2.051,2.1009,2.4415,2.6981,2.822,2.9703,3.1108,3.2444,3.2554,3.2754,3.3102,3.3102,3.3102,3.3102,3.3102,3.3102,3.3102,3.3102,3.3102,3.3102,3.3102,3.3102,3.3102,3.3102,3.3102,3.2928,3.1375,3.037,2.9364,0.0,2.4371,2.3678,2.3428,2.2997,2.3022,2.5674,2.5862,2.4891,2.3745,2.4046,2.5327,2.7968,3.0173,3.226,3.4477,3.5585,3.6134,3.6134,3.6264,3.6393,3.6393,3.5237,3.4219,3.4219,3.4219,3.4219,3.4219,3.5438,3.6393,3.6393,3.6393,3.6393,3.6393,3.6393,3.6393,3.6393,3.6393,3.6393,3.6393,3.6393,3.6556,3.6909,3.6934,3.7185,3.7713,3.7726,3.8002,3.8592,3.8605,3.8781,3.9132,3.9132,3.9132,3.9132,3.9132,3.9132,3.9132,3.9132,3.9132,3.9132,3.9346,3.9434,3.9446,3.9635,3.9697,3.9697,3.9697,3.9597,3.9459,0.0,0.0,0.0,0.0,0.0,0.0,0.0,0.0,0.0,0.0,0.0,0.0,0.0,0.0,0.0,0.0,0.0,2.0833,2.1211,2.3807,2.5757,2.6665,2.8391,2.9677,3.04,3.0629,3.0738,3.0738,3.1532,3.1911,3.1947,3.2726,3.3102,3.3102,3.3102,3.3102,3.3102,3.3102,3.2616,3.1847,3.1847,3.1329,3.0408,2.8898,2.7886,0.0,2.3748,2.2075,2.1302,2.1066,2.1309,2.204,2.3859,2.4082,2.3687,2.3786,2.4811,2.6658,3.0062,3.1885,3.3366,3.5597,3.6146,3.6146,3.6146,3.6275,3.6393,3.6393,3.4646,3.3102,3.3102,3.2449,3.1911,3.1911,3.3115,3.432,3.5111,3.5224,3.5513,3.6305,3.6393,3.6393,3.6393,3.6569,3.6695,3.6695,3.6695,3.6921,3.7462,3.7487,3.7738,3.8304,3.8316,3.8605,3.9183,3.9195,3.9358,3.9697,3.9697,3.9697,3.9697,3.9697,3.9697,3.9697,3.9697,3.9697,3.9697,3.9697,3.9697,3.9697,3.9697,3.9697,3.9697,3.9697,3.9697,3.9697,0.0,0.0,0.0,0.0,0.0,0.0,0.0,0.0,0.0,0.0,0.0,0.0,0.0,0.0,0.0,0.0,0.0,0.0,2.2864,2.2262,2.3065,2.5791,2.5727,2.5904,2.6517,2.6533,2.6516,2.6478,2.8605,2.9616,2.9647,3.1773,3.274,3.2742,3.2742,3.2742,3.2742,3.2742,3.1452,2.9417,2.9417,2.8036,2.5981,2.587,2.4522,2.2705,2.2741,2.1409,1.9553,1.8918,1.9685,2.0937,2.1038,2.2133,2.3792,2.5979,2.67,2.7709,3.1947,3.3178,3.3768,3.5878,3.6393,3.6393,3.6393,3.6393,3.638,3.6255,3.447,3.2901,3.2776,3.1143,2.9801,2.9801,2.999,3.0869,3.2977,3.3266,3.4056,3.6154,3.6393,3.6393,3.6393,3.6884,3.7211,3.7236,3.7236,3.7475,3.8027,3.8052,3.8316,3.8919,3.8931,3.9195,3.9697,3.9697,3.9697,3.9697,3.9697,3.9697,3.9697,3.9697,3.9697,3.9697,3.9697,3.9697,3.9697,3.9697,3.9697,3.9697,3.9697,3.9697,3.9697,3.9697,3.9697,3.9697,0.0,0.0,0.0,0.0,0.0,0.0,0.0,0.0,0.0,0.0,0.0,0.0,0.0,0.0,0.0,0.0,0.0,0.0,2.1276,2.2048,2.3153,2.4663,2.5481,2.6251,2.7015,2.6867,2.6628,2.6276,2.6982,2.7208,2.6989,2.7802,2.8055,2.7804,2.7914,2.7905,2.7804,2.7804,2.7454,2.6919,2.6919,2.6549,2.5812,2.4063,2.3109,2.2534,2.1214,2.0545,2.0259,2.0182,2.1757,2.4046,2.5686,2.6481,2.7021,2.8,2.9465,3.1095,3.2675,3.4307,3.5689,3.6255,3.6393,3.6393,3.6393,3.6393,3.5928,3.4271,3.2185,3.0138,2.8485,2.907,2.9801,2.9801,3.2575,3.491,3.5476,3.5564,3.5765,3.633,3.6393,3.6393,3.6393,3.6884,3.7374,3.7764,3.7801,3.8052,3.8642,3.8668,3.8919,3.9484,3.9496,3.9559,3.9697,3.9697,3.9697,3.9697,3.9697,3.9697,3.9697,3.9697,3.9697,3.9697,3.9697,3.9697,3.9697,3.9697,3.9697,3.9697,3.9697,3.9697,3.9697,3.9697,3.9697,3.9697,0.0,0.0,0.0,0.0,0.0,0.0,0.0,0.0,0.0,0.0,0.0,0.0,0.0,0.0,0.0,0.0,0.0,0.0,0.0,2.1898,2.2335,2.3212,2.3485,2.3759,2.4026,2.4249,2.4011,2.3297,2.4713,2.5173,2.4752,2.5844,2.6271,2.6086,2.6094,2.6072,2.6002,2.6002,2.5405,0.0,0.0,2.385,2.2772,2.1467,2.1182,2.1415,2.073,2.1613,2.3288,2.4343,2.5536,2.6853,2.8364,2.885,2.9101,3.0369,3.1625,3.2878,3.4195,3.5451,3.6393,3.6393,3.6393,3.6142,3.5174,3.4948,3.4321,3.211,2.9899,2.7898,2.6377,2.7345,2.8266,2.8005,3.108,3.3844,3.4822,3.4948,3.5312,3.628,3.6393,3.6393,3.6393,3.7097,3.7688,3.799,3.8253,3.8642,3.922,3.9245,3.9383,3.9685,3.9697,3.9697,3.9697,3.9697,3.9697,3.9697,3.9697,3.9697,3.9697,3.9697,3.9697,3.9697,0.0,3.9697,3.9697,3.9697,3.9697,3.9697,3.9697,3.9697,3.9697,3.9697,3.9697,3.9697,0.0,0.0,0.0,0.0,0.0,0.0,0.0,0.0,0.0,0.0,2.408,0.0,0.0,0.0,0.0,0.0,0.0,0.0,0.0,0.0,2.1461,2.2024,2.1206,2.0583,2.0226,2.0784,2.0622,1.9714,2.229,2.3241,2.2677,2.4512,2.5336,2.5244,2.5139,2.5088,2.5071,2.5071,2.3952,2.2175,2.2175,2.1015,1.9277,0.0,1.9672,2.0344,2.1087,2.3606,2.6939,2.9073,2.9654,2.9597,3.0429,3.068,3.1045,3.2977,3.3542,3.3968,3.5878,3.6393,3.6393,3.6393,3.6393,3.5815,3.3605,3.3102,3.2374,2.9776,2.7713,2.6114,2.5217,2.5716,2.6227,2.605,2.8323,3.0919,3.3215,3.3542,3.4257,3.6167,3.6393,3.6393,3.6393,3.7374,3.799,3.799,3.8617,3.9208,3.9685,3.9697,3.9697,3.9697,3.9697,3.9697,3.9697,3.9697,3.9697,3.9697,3.9697,3.9697,3.9697,3.9697,3.9697,3.9697,3.9697,3.9697,3.9697,3.9697,3.9697,3.9697,3.9697,3.9697,3.9697,3.9697,3.9697,3.9697,0.0,0.0,0.0,0.0,0.0,0.0,0.0,0.0,0.0,0.0,2.4821,2.4834,0.0,0.0,0.0,0.0,0.0,0.0,0.0,0.0,0.0,2.2783,2.1975,2.1471,2.1413,2.1153,2.0772,2.0264,2.0882,2.0853,2.0215,2.0797,2.078,2.0242,2.0336,2.0315,2.0212,2.0212,2.0304,2.043,2.043,2.0554,2.0736,2.0736,0.0,0.0,2.2342,2.4562,2.7424,2.9199,3.0944,3.2702,3.4646,3.5262,3.5337,3.5714,3.5828,3.5903,3.6292,3.6393,3.6393,3.6393,3.6393,3.5815,3.3605,3.3102,3.1808,2.7256,2.6021,2.5029,2.265,2.3783,2.5795,2.7978,3.0262,3.2729,3.5451,3.5828,3.5966,3.6355,3.6393,3.6393,3.6393,3.7374,3.799,3.799,3.8969,3.9609,3.9697,3.9697,3.9697,3.9697,3.9697,3.9697,3.9697,3.9697,3.9697,3.9697,3.9697,3.9697,3.9697,3.9697,3.9697,3.9697,3.9697,0.0,3.9697,3.9697,3.9697,3.9697,3.9697,3.9697,3.9697,3.9697,3.9697,3.9697,0.0,0.0,0.0,0.0,0.0,0.0,0.0,2.4808,2.4998,2.4998,2.4998,2.4998,2.4998,2.472,2.4652,0.0,0.0,0.0,0.0,0.0,0.0,0.0,2.2702,2.2352,2.2075,2.2188,2.1884,2.1136,0.0,2.1305,2.0486,2.079,2.0605,1.9998,2.0195,2.0228,2.0084,2.0084,2.0278,2.0566,2.0566,2.0787,2.1096,0.0,0.0,0.0,2.3538,2.5357,2.7424,2.8228,3.0552,3.3492,3.5702,3.6393,3.6393,3.6393,3.6393,3.6393,3.6393,3.6393,3.6393,3.6393,3.6393,3.5513,3.2148,3.1145,2.9578,2.485,2.3653,2.2977,2.1383,2.3346,2.5653,2.6971,3.0269,3.3242,3.4874,3.5853,3.6393,3.6393,3.6393,3.6393,3.6393,3.7374,3.799,3.799,3.9057,3.9697,3.9697,3.9697,3.9697,3.9697,3.9697,3.9697,3.9697,3.9697,3.9697,3.9697,3.9697,3.9697,3.9697,3.9697,3.9697,3.9697,3.9697,3.9697,3.9697,3.9697,3.9697,3.9697,3.9697,3.9697,3.9697,3.9697,3.9697,3.9735,0.0,0.0,0.0,0.0,0.0,0.0,0.0,2.4808,2.4849,2.4984,2.4889,2.4862,2.4984,2.4462,2.4292,0.0,0.0,0.0,0.0,0.0,0.0,0.0,0.0,0.0,2.2728,0.0,0.0,2.206,2.2574,0.0,0.0,0.0,0.0,0.0,2.1226,2.1242,2.1133,2.111,2.1184,0.0,0.0,2.1406,2.1559,0.0,0.0,0.0,0.0,2.5824,2.6963,2.7223,2.9334,3.2223,3.4321,3.5388,3.584,3.5727,3.5777,3.5941,3.6305,3.6393,3.6393,3.6393,3.6393,3.5237,3.0806,2.933,2.7605,2.306,2.1701,2.12,2.0786,2.2808,2.4778,2.5494,2.902,3.216,3.3544,3.4962,3.6003,3.6355,3.6393,3.6443,3.6556,3.7437,3.804,3.8178,3.9132,3.9697,3.9697,3.9697,3.9697,3.9697,3.9697,3.9697,3.9697,3.9697,3.9697,3.9697,3.9697,3.9697,3.9697,3.9697,3.9697,3.9697,3.9697,3.9697,3.9697,3.9697,3.9697,3.9697,3.9697,3.9697,3.971,3.9823,3.9873,3.9948,0.0,0.0,0.0,0.0,0.0,0.0,0.0,2.4184,2.4381,2.493,2.4516,2.4394,2.4944,2.4462,2.4116,0.0,0.0,0.0,0.0,0.0,0.0,0.0,0.0,0.0,0.0,0.0,0.0,2.2891,2.2951,0.0,0.0,0.0,0.0,0.0,0.0,2.1288,2.1272,2.1154,0.0,0.0,0.0,0.0,0.0,0.0,0.0,0.0,0.0,2.5632,2.59,2.6959,2.7537,2.8131,2.9864,3.2125,3.4022,3.3555,3.3745,3.4461,3.5991,3.6393,3.6393,3.6393,3.6393,3.5237,3.0806,2.933,2.7514,2.2593,2.115,2.0761,2.0711,2.095,2.2137,2.5117,2.6453,2.8536,3.26,3.3732,3.4687,3.6217,3.6393,3.6594,3.7085,3.7651,3.8228,3.8781,3.9371,3.9697,3.9697,3.9697,3.9697,3.9697,3.9697,3.9697,3.9697,3.9697,3.9697,3.9697,3.9697,3.9697,3.9697,3.9697,3.9697,3.9697,3.9697,3.9697,0.0,3.9697,3.9697,3.9697,3.9697,3.9697,3.976,4.0262,4.0425,4.05,0.0,0.0,0.0,0.0,0.0,0.0,2.4611,2.4264,2.4202,2.4797,2.4344,2.4074,2.431,2.3872,2.3852,2.4584,0.0,0.0,0.0,0.0,0.0,0.0,0.0,0.0,0.0,0.0,2.4106,2.3967,2.3836,0.0,0.0,0.0,0.0,0.0,0.0,2.2684,2.2669,2.2412,0.0,0.0,0.0,0.0,0.0,0.0,0.0,0.0,0.0,0.0,2.5624,2.5753,2.6396,2.6951,2.596,2.7478,3.0084,3.2422,3.3253,3.3845,3.5853,3.6393,3.6393,3.6393,3.54,3.3605,3.0514,2.8298,2.5988,2.2666,2.155,2.1175,2.1175,2.1444,2.2196,2.3825,2.5452,2.7115,2.8888,3.0464,3.2049,3.3682,3.4473,3.5503,3.7048,3.8002,3.8781,3.9333,3.9584,3.9697,3.9697,3.9697,3.9697,3.9697,3.9697,3.9697,3.9697,3.9697,3.9697,3.9697,3.9697,3.9697,3.9697,3.9697,3.9697,3.9697,3.9697,3.9697,0.0,3.9697,3.9697,3.9722,4.0061,4.0174,4.0262,4.0775,4.0989,4.1064,0.0,0.0,0.0,0.0,0.0,2.4467,2.465,2.4201,2.4071,2.4718,2.4435,2.4173,2.4215,2.3602,2.3601,2.4638,2.3628,0.0,0.0,0.0,0.0,0.0,0.0,0.0,0.0,0.0,2.4785,2.4663,2.4528,2.4336,0.0,0.0,2.4149,2.3956,0.0,0.0,0.0,0.0,0.0,0.0,0.0,0.0,0.0,0.0,0.0,0.0,0.0,0.0,0.0,0.0,0.0,2.592,2.3795,2.4257,2.6309,2.9981,3.1626,3.2739,3.485,3.5903,3.6393,3.6393,3.4734,3.2525,3.0304,2.762,2.5021,2.296,2.1983,2.1608,2.1913,2.2144,2.2483,2.3007,2.4448,2.5737,2.6407,2.7848,2.9487,3.1275,3.2202,3.3671,3.6219,3.8077,3.9283,3.9672,3.9697,3.9697,3.9697,3.9697,3.9697,3.9697,3.9697,3.9697,3.9697,3.9697,3.9697,3.9697,3.9697,3.9697,3.9697,3.9697,3.9697,3.9697,3.9697,3.9697,0.0,3.9697,3.9785,3.9973,4.0349,4.06,4.08,4.1366,4.1567,4.1642,0.0,0.0,0.0,0.0,0.0,0.0,2.3817,2.3794,2.3966,2.4704,2.4792,2.4849,2.4963,2.392,2.3452,2.4062,2.3011,0.0,0.0,0.0,0.0,0.0,0.0,0.0,0.0,0.0,2.4927,2.4792,2.4792,2.4734,2.4592,2.4585,2.4585,2.4578,0.0,0.0,0.0,0.0,0.0,0.0,0.0,0.0,0.0,0.0,0.0,0.0,0.0,0.0,0.0,0.0,0.0,0.0,0.0,2.3244,2.3207,2.5584,2.8201,3.0742,3.2622,3.4734,3.6393,3.6393,3.4734,3.2525,3.0304,2.762,2.5113,2.3434,2.2232,2.182,2.2889,2.2651,2.2483,2.3007,2.312,2.3926,2.6176,2.652,2.7354,2.9563,2.9839,3.1135,3.4414,3.7739,3.9685,3.9697,3.9697,3.9697,3.9697,3.9697,3.9697,3.9697,3.9697,3.9697,3.9697,3.9697,3.9697,3.9697,3.9697,3.9697,3.9697,3.9697,3.9697,3.9697,3.9697,3.9697,0.0,3.9697,4.0011,4.05,4.05,4.0826,4.1352,4.1972,4.2186,4.2274,0.0,0.0,0.0,0.0,0.0,0.0,0.0,2.3908,2.3833,2.4568,2.4308,2.4061,2.411,2.3575,2.3074,2.2759,2.2087,0.0,0.0,0.0,0.0,0.0,0.0,0.0,0.0,0.0,2.4977,2.4941,2.4835,2.4828,2.4863,2.4699,2.4706,2.4856,2.4478,2.4357,0.0,0.0,0.0,0.0,0.0,0.0,2.3226,0.0,0.0,0.0,0.0,0.0,0.0,0.0,0.0,0.0,0.0,0.0,0.0,2.3992,2.571,2.7869,3.021,3.1254,3.1716,3.1842,3.0235,2.841,2.7697,2.5967,2.4356,2.3821,2.3444,2.3314,2.365,2.3241,2.2895,2.3075,2.31,2.3221,2.3577,2.5603,2.7726,2.9588,3.3481,3.657,3.799,3.9082,3.9697,3.9697,3.9697,3.9697,3.9697,3.9697,3.9697,3.9697,3.9697,3.9697,3.9697,3.9697,3.9697,3.9697,3.9697,3.9697,3.9697,3.9697,3.9697,3.9697,3.9697,3.9697,3.9722,4.0099,4.0349,4.0575,4.1355,4.1771,4.197,4.2537,4.275,4.2763,0.0,0.0,0.0,0.0,0.0,0.0,0.0,2.4053,2.4013,2.4308,2.3959,2.3724,2.378,2.3185,2.2578,2.2073,2.1596,0.0,0.0,0.0,0.0,0.0,0.0,0.0,0.0,2.4347,2.4767,2.4998,2.492,2.492,2.4998,2.4828,2.4835,2.4991,2.4693,2.4615,0.0,0.0,0.0,0.0,0.0,0.0,2.3926,0.0,0.0,0.0,0.0,0.0,0.0,0.0,0.0,0.0,0.0,0.0,0.0,0.0,2.4259,2.5473,2.808,2.9126,2.9556,2.9753,2.8137,2.6508,2.6508,2.5201,2.4004,2.4004,2.4004,2.4004,2.4004,2.3512,2.31,2.31,2.2932,2.3115,2.4054,2.5816,2.7848,3.0128,3.4663,3.7751,3.8078,3.9082,3.9697,3.9697,3.9697,3.9697,3.9697,3.9697,3.9697,3.9697,3.9697,3.9697,3.9697,3.9697,3.9697,3.9697,3.9697,3.9697,3.9697,3.9697,3.9697,3.9697,3.9697,3.981,0.0,4.0362,4.0738,4.1204,4.1909,4.2324,4.2537,4.2876,4.3002,4.3002,0.0,0.0,0.0,0.0,0.0,0.0,0.0,2.4171,2.4373,2.3943,2.378,2.3725,2.3809,2.2863,2.2126,2.1912,0.0,0.0,0.0,0.0,0.0,0.0,0.0,0.0,0.0,2.3784,2.4408,2.4998,2.4998,2.4998,2.4998,2.4998,2.4998,2.4998,2.4998,2.4991,0.0,0.0,0.0,0.0,0.0,0.0,0.0,0.0,0.0,0.0,0.0,0.0,0.0,0.0,0.0,0.0,0.0,0.0,0.0,0.0,0.0,0.0,0.0,2.7914,2.9063,2.9267,2.7776,2.6273,2.6311,2.5113,0.0,2.4054,2.4021,2.3981,2.4054,2.3537,2.3113,2.3158,2.2714,2.3519,2.6825,2.7207,2.835,3.1597,3.4239,3.5796,3.5796,3.8166,3.9697,3.9697,3.9697,3.9697,3.9697,3.9697,3.9697,3.9697,3.9697,3.9697,3.9697,3.9697,3.9697,3.9697,3.9697,3.9697,3.9697,3.9697,3.9697,0.0,3.9735,4.0036,0.0,4.0588,4.1242,4.2199,4.2237,4.2563,4.3002,4.3002,4.3002,4.3002,0.0,0.0,0.0,0.0,0.0,0.0,0.0,0.0,0.0,0.0,2.3634,2.3413,2.3084,2.3225,2.2944,0.0,0.0,0.0,0.0,0.0,0.0,0.0,0.0,0.0,0.0,2.3784,2.4408,2.4998,2.4998,2.4998,2.4998,2.4998,2.4998,2.4998,2.4998,2.4857,0.0,0.0,0.0,0.0,0.0,0.0,0.0,0.0,0.0,0.0,2.6226,2.6297,0.0,0.0,0.0,0.0,0.0,0.0,0.0,0.0,2.3933,2.3874,2.4301,0.0,2.4364,2.4611,2.4282,2.4014,0.0,2.4157,2.3932,2.4504,2.4162,2.3944,2.4504,2.3785,2.3246,2.37,2.3298,2.3938,2.6888,3.0811,3.4465,3.74,3.8316,3.8705,3.8705,3.9308,3.9697,3.9697,3.9697,3.9697,3.9697,3.9697,3.9697,3.9697,3.9697,3.9697,3.9697,3.9697,3.9697,3.9697,3.9697,3.9697,3.9697,3.9697,3.9697,3.9722,4.0123,4.0374,4.0575,4.143,4.196,4.2237,4.265,4.2889,4.3002,4.3002,4.3002,4.3002,0.0,0.0,0.0,0.0,0.0,0.0,0.0,0.0,0.0,0.0,0.0,2.275,2.2704,2.2558,0.0,0.0,0.0,0.0,0.0,0.0,0.0,0.0,0.0,2.2424,2.3089,2.3764,2.4373,2.4906,2.497,2.4998,2.4998,2.4998,2.4998,2.4998,2.4998,2.4892,0.0,0.0,0.0,0.0,2.4203,0.0,0.0,0.0,0.0,0.0,2.6094,2.6084,0.0,2.5919,2.6397,2.6853,0.0,0.0,0.0,0.0,2.4464,2.3919,2.3564,2.3292,2.3115,2.31,2.3316,2.36,2.3929,2.4058,2.415,2.4272,2.378,2.3376,2.3526,2.2902,2.2546,2.3138,2.4029,2.572,2.8746,3.174,3.4653,3.7438,3.7764,3.8279,3.9572,3.9697,3.9697,3.9697,3.9697,3.9697,3.9697,3.9697,3.9697,3.9697,3.9697,3.9697,3.9697,3.9697,3.9697,3.9697,3.9697,3.9697,3.9697,3.9697,3.9835,4.0073,4.0374,4.0802,4.133,4.196,4.235,4.2601,4.2889,4.3002,4.3002,4.3002,4.3002,4.3002,0.0,0.0,0.0,0.0,0.0,0.0,0.0,0.0,0.0,0.0,0.0,0.0,0.0,0.0,0.0,0.0,0.0,0.0,0.0,0.0,0.0,0.0,0.0,2.2368,2.3091,2.3737,2.4297,2.4764,2.4899,2.497,2.497,2.497,2.4977,2.4998,2.4998,2.4998,0.0,0.0,0.0,0.0,2.4821,0.0,0.0,0.0,0.0,0.0,0.0,0.0,0.0,2.5816,2.6414,2.7168,2.6786,0.0,0.0,0.0,0.0,0.0,2.3386,2.3648,2.3963,2.3336,2.3597,2.4017,2.4097,2.4288,2.4272,2.3724,2.3147,2.2605,2.2198,2.1847,2.1802,2.2332,2.5138,2.8363,3.1585,3.2401,3.3533,3.5858,3.6147,3.7074,3.9471,3.9697,3.9697,3.9697,3.9697,3.9697,3.9697,3.9697,3.9697,3.9697,3.9697,3.9697,3.9697,3.9697,3.9697,3.9697,3.9697,3.9697,3.9697,3.9785,4.0074,4.0512,0.0,0.0,4.2199,4.2287,4.2587,4.3002,4.3002,4.3002,4.3002,4.3002,4.3002,4.3002,0.0,0.0,0.0,0.0,0.0,0.0,0.0,0.0,0.0,0.0,0.0,0.0,0.0,0.0,0.0,0.0,0.0,0.0,0.0,0.0,0.0,2.2578,2.2054,2.2339,2.3571,2.3816,2.4165,2.4634,2.4764,2.4828,2.4828,2.4828,2.4885,2.4998,2.4998,2.4998,2.4991,0.0,0.0,0.0,2.4453,0.0,0.0,0.0,0.0,0.0,0.0,0.0,0.0,2.6479,2.7308,2.8163,2.7606,0.0,0.0,0.0,0.0,0.0,2.3168,2.4554,2.595,2.4074,2.3812,2.4117,2.4578,2.4147,2.3583,2.3267,2.2541,2.2029,2.2227,2.2225,2.2357,2.2895,2.7284,3.1637,3.4466,3.6923,3.858,3.9007,3.9057,3.9233,3.966,3.9697,3.9697,3.9697,3.9697,3.9697,3.9697,3.9697,3.9697,3.9697,3.9697,3.9697,3.9697,3.9697,3.9697,3.9697,3.9697,3.9697,3.9723,4.0161,4.0425,4.055,0.0,4.2035,4.225,4.2688,4.2926,4.3002,4.3002,4.3002,4.3002,4.3002,4.3002,4.3002,0.0,0.0,0.0,0.0,0.0,0.0,0.0,0.0,0.0,0.0,0.0,0.0,0.0,0.0,0.0,0.0,0.0,0.0,0.0,0.0,0.0,2.3017,2.2686,2.2886,2.3683,2.4087,2.4375,2.4606,2.4734,2.4792,2.4792,2.4863,2.4941,2.4998,2.492,2.4885,2.4878,2.4742,0.0,0.0,0.0,0.0,0.0,0.0,0.0,0.0,0.0,0.0,0.0,0.0,2.7416,2.8451,2.8177,0.0,0.0,0.0,0.0,0.0,2.2889,2.3778,2.5127,2.5402,2.6527,2.7636,2.7878,2.7537,2.6797,2.5477,2.4116,2.2951,2.2309,2.293,2.4819,2.8737,3.051,3.2365,3.5107,3.5342,3.5768,3.725,3.7425,3.8028,3.9546,3.9697,3.9697,3.9697,3.9697,3.9697,3.9697,3.9697,3.9697,3.9697,3.9697,3.9697,3.9697,3.9697,3.9697,3.9697,3.9697,3.9848,4.0149,4.0387,4.084,4.1443,0.0,4.2362,4.265,4.2901,4.3002,4.3002,4.3002,4.3002,4.3002,4.3002,4.3002,4.3002,0.0,0.0,0.0,0.0,0.0,0.0,0.0,0.0,0.0,0.0,0.0,0.0,0.0,0.0,0.0,0.0,0.0,0.0,0.0,0.0,2.3405,2.3405,2.3405,2.3532,2.3784,2.4273,2.4506,2.4476,2.4614,2.4767,2.4943,2.4917,2.5008,2.5151,2.4881,2.4823,2.4936,2.4931,2.5035,0.0,0.0,0.0,0.0,0.0,0.0,0.0,0.0,0.0,0.0,0.0,0.0,0.0,0.0,0.0,0.0,2.6268,2.5009,2.3771,2.2686,2.3223,2.4522,2.6366,2.7916,2.9289,3.0362,2.9917,2.8946,2.7703,2.6315,2.4797,2.3051,2.3997,2.699,3.2961,3.3045,3.3334,3.6084,3.4664,3.4123,3.6222,3.6485,3.7325,3.9484,3.9697,3.9697,3.9697,3.9697,3.9697,3.9697,3.9697,3.9697,3.9697,3.9697,3.9697,3.9697,3.9697,3.9697,3.9697,3.9823,4.0111,4.0512,4.0789,4.1368,4.2199,4.2337,4.2612,4.3002,4.3002,4.3002,4.3002,4.3002,4.3002,4.3002,4.3002,4.3002,4.3002,0.0,0.0,0.0,0.0,0.0,0.0,0.0,0.0,0.0,0.0,0.0,0.0,0.0,0.0,0.0,0.0,0.0,0.0,0.0,0.0,2.4045,2.4045,2.4045,2.4053,2.4074,2.4242,2.4268,2.4134,2.4262,2.4692,2.5354,2.4859,2.4987,2.5623,2.4925,2.4885,2.5379,2.5742,2.6232,2.6743,0.0,0.0,0.0,0.0,0.0,0.0,0.0,0.0,0.0,0.0,0.0,0.0,0.0,0.0,2.7556,2.6268,2.5009,2.3771,2.2686,2.4075,2.5893,2.6176,2.527,2.5398,2.965,2.8378,2.6779,2.8422,2.8565,2.7603,2.5069,2.5573,2.7525,3.1057,3.3637,3.6184,3.9007,3.922,3.917,3.9371,3.9396,3.9471,3.9672,3.9697,3.9697,3.9697,3.9697,3.9697,3.9697,3.9697,3.9697,3.9697,3.9697,3.9697,3.9697,3.9697,3.9697,3.971,4.0199,4.0462,4.0538,4.1595,4.2123,4.2238,4.2725,4.295,4.3002,4.3002,4.3002,4.3002,4.3002,4.3002,4.3002,4.3002,4.3002,4.3002,0.0,0.0,0.0,0.0,0.0,0.0,0.0,0.0,0.0,0.0,0.0,0.0,0.0,0.0,0.0,0.0,0.0,0.0,0.0,2.3351,2.3654,2.4076,2.4098,2.4098,2.4098,2.4143,2.4188,2.4218,2.4284,2.4676,2.5385,2.4851,2.4927,2.5483,2.4744,2.473,2.5297,2.5707,2.6461,2.7435,2.7786,0.0,0.0,0.0,0.0,0.0,0.0,0.0,0.0,0.0,2.9162,2.9595,2.9595,2.8767,2.7556,2.6268,2.5009,2.3793,2.2836,2.4497,2.6475,2.641,2.584,2.6501,3.1115,3.1242,3.0616,3.1353,3.1409,3.0693,2.8656,3.0373,3.2495,3.3749,3.6284,3.8479,3.9546,3.9697,3.9697,3.9697,3.9697,3.9697,3.9697,3.9697,3.9697,3.9697,3.9697,3.9697,3.9697,3.9697,3.9697,3.9697,3.9697,3.9697,3.9697,4.0036,4.0212,4.0212,4.04,4.0877,4.1582,4.201,4.2387,4.2713,4.2914,4.3002,4.3002,4.3002,4.3002,4.3002,4.3002,4.3002,4.3002,4.3002,4.3002,4.3002,0.0,0.0,0.0,0.0,0.0,0.0,0.0,0.0,0.0,0.0,0.0,0.0,0.0,0.0,0.0,0.0,0.0,0.0,2.3073,2.3302,2.3617,2.4076,2.4098,2.4098,2.4098,2.4288,2.4341,2.424,2.4424,2.4986,2.5868,2.5262,2.5203,2.5604,2.5229,2.518,2.5441,2.6269,2.7119,2.7948,2.8318,2.8679,0.0,0.0,0.0,0.0,0.0,0.0,0.0,0.0,2.9435,2.9749,2.9626,2.8624,2.7305,2.6403,2.5026,2.3616,2.2813,2.4062,2.5652,2.6049,2.622,2.749,3.2064,3.2382,3.2173,3.3807,3.3654,3.2927,3.1941,3.382,3.5495,3.5495,3.7852,3.9697,3.9697,3.9697,3.9697,3.9697,3.9697,3.9697,3.9697,3.9697,3.9697,3.9697,3.9697,3.9697,3.9697,3.9697,3.9697,3.9697,3.986,3.9961,3.9961,4.0487,4.0851,4.104,4.104,4.1443,4.2199,4.2375,4.265,4.3002,4.3002,4.3002,4.3002,4.3002,4.3002,4.3002,4.3002,4.3002,4.3002,4.3002,4.3002,4.3002,0.0,0.0,0.0,0.0,0.0,0.0,0.0,0.0,0.0,0.0,0.0,0.0,0.0,0.0,0.0,0.0,0.0,0.0,2.3103,2.3714,2.409,2.4098,2.4098,2.4098,2.4098,2.4689,2.4702,2.4111,2.4702,2.5637,2.686,2.6149,2.5897,2.6118,2.6516,2.6355,2.5918,2.7658,2.8407,2.8416,2.8416,2.8629,0.0,0.0,0.0,0.0,0.0,0.0,0.0,0.0,2.9826,3.0034,2.971,2.8321,2.6789,2.671,2.5099,2.3177,2.2569,2.2675,2.3364,2.4996,2.5991,2.7706,3.2108,3.0838,3.0206,3.5353,3.51,3.411,3.4603,3.5168,3.5533,3.5508,3.7852,3.9697,3.9697,3.9697,3.9697,3.9697,3.9697,3.9697,3.9697,3.9697,3.9697,3.9697,3.9697,3.9697,3.9697,3.9697,3.9697,3.971,4.0211,4.05,4.0512,4.1039,4.1604,4.2199,4.2199,4.2199,4.2238,4.2763,4.3002,4.3002,4.3002,4.3002,4.3002,4.3002,4.3002,4.3002,4.3002,4.3002,4.3002,4.3002,4.3002,4.3002,0.0,0.0,0.0,0.0,0.0,0.0,0.0,0.0,0.0,0.0,0.0,0.0,0.0,0.0,0.0,0.0,0.0,0.0,2.3073,2.3287,2.361,2.4076,2.4098,2.4098,2.4098,2.4275,2.4499,2.4728,2.4499,2.4964,2.6115,2.5515,2.5709,2.6516,2.6201,2.6203,2.6518,2.7898,2.8741,2.9248,3.0151,3.0455,3.0359,0.0,0.0,0.0,0.0,0.0,0.0,0.0,0.0,0.0,2.9626,2.8564,2.7207,2.6377,2.5058,2.3679,2.2833,2.502,2.732,2.6408,2.8674,3.1492,3.2801,3.242,3.2887,3.6734,3.7462,3.6985,3.5532,3.7011,3.7814,3.5821,3.7852,3.9697,3.9697,3.9697,3.9697,3.9697,3.9697,3.9697,3.9697,3.9697,3.9697,3.9697,3.9697,3.9697,3.9697,3.9697,3.9873,4.0249,4.0425,4.0675,4.1064,4.1643,4.2022,4.2199,4.2575,4.2763,4.2763,4.2926,4.3002,4.3002,4.3002,4.3002,4.3002,4.3002,4.3002,4.3002,4.3002,4.3002,4.3002,4.3002,4.3002,4.3002,0.0,0.0,0.0,0.0,0.0,0.0,0.0,0.0,0.0,0.0,0.0,0.0,0.0,0.0,0.0,0.0,0.0,0.0,0.0,2.3347,2.3682,2.4076,2.4098,2.4209,2.4452,2.4222,2.44,2.4992,2.4637,2.4915,2.5801,2.5709,2.5905,2.6355,2.6687,2.6786,2.6791,2.8238,2.8946,2.9186,3.0231,3.0623,3.0599,0.0,0.0,0.0,0.0,0.0,0.0,0.0,0.0,0.0,2.968,2.8524,2.7128,2.6472,2.4978,2.3586,2.3981,2.5981,2.8081,2.8627,3.0954,3.3391,3.4484,3.4736,3.5426,3.7864,3.8655,3.8555,3.7375,3.8567,3.9145,3.7438,3.8592,3.9697,3.9697,3.9697,3.9697,3.9697,3.9697,3.9697,3.9697,3.9697,3.9697,3.9697,3.9697,3.9697,3.9697,3.9898,4.0174,4.05,4.094,4.1329,4.1656,4.2235,4.2526,4.2526,4.2851,4.3002,4.3002,4.3002,4.3002,4.3002,4.3002,4.3002,4.3002,4.3002,4.3002,4.3002,4.3002,4.3002,4.3002,4.3002,4.3002,4.3002,0.0,0.0,0.0,0.0,0.0,0.0,0.0,0.0,0.0,0.0,0.0,0.0,0.0,0.0,0.0,0.0,0.0,0.0,0.0,0.0,2.4098,2.4098,2.4098,2.436,2.4913,2.4426,2.4452,2.4992,2.4992,2.5278,2.5814,2.642,2.6433,2.6031,2.7668,2.7795,2.689,2.8722,2.9149,2.8653,2.9354,2.9804,3.0049,3.0049,0.0,0.0,0.0,0.0,0.0,0.0,0.0,0.0,2.9703,2.8219,2.6724,2.6683,2.4913,2.3448,2.5607,2.6231,2.7243,3.1275,3.2878,3.4145,3.6683,3.7311,3.765,3.868,3.8931,3.912,3.9609,3.9697,3.9697,3.9697,3.9697,3.9697,3.9697,3.9697,3.9697,3.9697,3.9697,3.9697,3.9697,3.9697,3.9697,3.9697,3.9697,3.9722,3.9772,4.0236,4.055,4.0651,4.1658,4.2224,4.2274,4.2763,4.3002,4.3002,4.3002,4.3002,4.3002,4.3002,4.3002,4.3002,4.3002,4.3002,4.3002,4.3002,4.3002,4.3002,4.3002,4.3002,4.3002,4.3002,4.3016,4.3044,0.0,0.0,0.0,0.0,0.0,0.0,0.0,0.0,0.0,0.0,0.0,0.0,0.0,0.0,0.0,0.0,0.0,0.0,0.0,0.0,2.4098,2.4098,2.4098,2.4163,2.4288,2.4637,2.4867,2.4992,2.4992,2.5278,2.5814,2.642,2.6852,2.7175,2.8077,2.8046,2.7453,2.9437,2.9886,2.9378,3.0299,3.0591,3.0463,3.0463,3.0516,0.0,0.0,0.0,0.0,0.0,0.0,0.0,2.8856,2.7851,2.6791,2.5304,2.5346,2.5932,2.6134,2.8787,3.1721,3.2675,3.4635,3.6583,3.76,3.819,3.8605,3.8843,3.9233,3.9559,3.9685,3.9697,3.9697,3.9697,3.9697,3.9697,3.9697,3.9697,3.9697,3.9697,3.9697,3.9697,3.9697,3.9697,3.9697,3.9697,3.9697,3.9885,4.0312,4.0437,4.0915,4.1808,4.2073,4.24,4.2826,4.2951,4.3002,4.3002,4.3002,4.3002,4.3002,4.3002,4.3002,4.3002,4.3002,4.3002,4.3002,4.3002,4.3002,4.3002,4.3002,4.3002,4.3002,4.3002,4.3129,4.331,0.0,0.0,0.0,0.0,0.0,0.0,0.0,0.0,0.0,0.0,0.0,0.0,0.0,0.0,0.0,0.0,0.0,0.0,0.0,0.0,2.4648,2.49,2.4913,2.4913,2.4913,2.5215,2.538,2.538,2.5678,2.5814,2.5814,2.642,2.6847,2.7139,2.7756,2.8015,2.8072,2.944,2.9912,2.9835,3.0829,3.0977,3.059,3.059,3.059,3.0582,3.0401,0.0,0.0,0.0,0.0,0.0,0.0,0.0,2.7053,2.5364,2.4947,2.5443,2.7401,2.9461,3.1725,3.4409,3.6143,3.7412,3.8241,3.8668,3.8969,3.9233,3.9509,3.9697,3.9697,3.9697,3.9697,3.9697,3.9697,3.9697,3.9697,3.9697,3.9697,3.9697,3.9697,3.9697,3.9697,3.9697,3.9697,3.9697,3.9697,3.9936,4.0475,4.0738,4.1291,4.2174,4.245,4.2713,4.3002,4.3002,4.3002,4.3002,4.3002,4.3002,4.3002,4.3002,4.3002,4.3002,4.3002,4.3002,4.3002,4.3002,4.3085,4.3184,4.3184,4.3294,4.3432,4.3432,4.3515,4.364,0.0,0.0,0.0,0.0,0.0,0.0,0.0,0.0,0.0,0.0,0.0,0.0,0.0,0.0,0.0,0.0,0.0,0.0,0.0,0.0,0.0,2.5775,2.5801,2.5801,2.5801,2.59,2.5952,2.5952,2.6551,2.6582,2.6101,2.6595,2.6834,2.6868,2.7421,2.7957,2.8495,2.9323,2.9804,3.0072,3.1029,3.1102,3.0657,3.0627,3.0628,3.0657,3.0627,3.0762,0.0,0.0,0.0,0.0,0.0,0.0,2.7178,2.5751,2.4508,2.4426,2.8256,2.9529,3.0952,3.5955,3.7349,3.7738,3.868,3.8969,3.917,3.9609,3.9697,3.9697,3.9697,3.9697,3.9697,3.9697,3.9697,3.9697,3.9697,3.9697,3.9697,3.9697,3.9697,3.9697,3.9697,3.9697,3.9697,3.9697,3.9785,4.0061,4.06,4.1152,4.1731,4.2324,4.2763,4.3002,4.3002,4.3002,4.3002,4.3002,4.3002,4.3044,4.3154,4.3099,4.3071,4.3071,4.3071,4.3099,4.3168,4.3168,4.3294,4.3489,4.3489,4.3667,4.3899,4.3844,4.3873,4.3968,0.0,0.0,0.0,0.0,0.0,0.0,0.0,0.0,0.0,0.0,0.0,0.0,0.0,0.0,0.0,0.0,0.0,0.0,0.0,0.0,0.0,2.5801,2.5801,2.5801,2.5801,2.6316,2.6572,2.6572,2.7123,2.7355,2.7268,2.7355,2.7394,2.7427,2.8081,2.8298,2.8246,2.9748,3.0223,3.0057,3.0785,3.1014,3.0918,3.0687,3.0747,3.0918,3.068,3.0762,0.0,0.0,3.097,0.0,0.0,0.0,2.6613,2.5073,2.5101,2.5857,2.6975,3.0197,3.3872,3.6545,3.7939,3.8705,3.8869,3.9258,3.9609,3.9697,3.9697,3.9697,3.9697,3.9697,3.9697,3.9697,3.9697,3.9697,3.9697,3.9697,3.9697,3.9697,3.9697,3.9697,3.9697,3.9697,3.9697,3.9697,4.0123,4.0638,4.1163,4.177,4.2323,4.2876,4.2964,4.3002,4.3002,4.3002,4.3002,4.3002,4.3002,4.3265,4.3763,4.3476,4.3352,4.3352,4.3352,4.3516,4.3776,4.3776,4.379,4.3832,4.3832,4.3859,4.3859,4.3571,4.3806,4.4203,0.0,0.0,0.0,0.0,0.0,0.0,0.0,0.0,0.0,0.0,0.0,0.0,0.0,0.0,0.0,0.0,0.0,0.0,0.0,0.0,0.0,2.6741,2.6754,2.6754,2.6754,2.7018,2.7157,2.7157,2.7206,2.7323,2.7481,2.7087,2.7007,2.7234,2.7718,2.8075,2.8368,2.8881,2.958,3.0343,3.0405,3.1231,3.2284,3.1239,3.1601,3.2517,3.127,0.0,3.1248,3.1058,3.0873,3.0457,2.8948,0.0,0.0,0.0,2.4973,2.5573,2.8467,3.1526,3.4575,3.7449,3.8529,3.8982,3.9283,3.9534,3.9697,3.9697,3.9697,3.9697,3.9697,3.9697,3.9697,3.9697,3.9697,3.9697,3.9697,3.9697,3.9697,3.9697,3.9697,3.9697,3.9697,3.9697,3.9823,4.0136,4.0362,4.0876,4.177,4.206,4.245,4.2975,4.3002,4.3002,4.3002,4.3002,4.3085,4.3226,4.3226,4.3461,4.3899,4.375,4.3681,4.3681,4.3681,4.375,4.3899,4.3899,4.3996,4.412,4.412,4.4217,4.434,4.4177,4.43,4.4504,0.0,0.0,0.0,0.0,0.0,0.0,0.0,0.0,0.0,0.0,0.0,0.0,0.0,0.0,0.0,0.0,0.0,0.0,0.0,0.0,0.0,2.7477,2.7498,2.7498,2.7498,2.7415,2.7373,2.7373,2.7015,2.6981,2.7213,2.6769,2.6616,2.6735,2.7078,2.7713,2.8503,2.8043,2.8913,3.0611,3.0697,3.1801,3.3277,3.2226,3.2656,0.0,0.0,0.0,3.1502,3.1026,3.0705,3.0253,2.8876,2.7675,0.0,0.0,0.0,2.5066,2.9064,3.1285,3.3344,3.704,3.8062,3.8428,3.9472,3.9697,3.9697,3.9697,3.9697,3.9697,3.9697,3.9697,3.9697,3.9697,3.9697,3.9697,3.9697,3.9697,3.9697,3.9697,3.9697,3.9697,3.9697,3.9823,4.0074,4.0475,4.0777,4.1305,4.2149,4.2324,4.2588,4.2989,4.3002,4.303,4.3099,4.3196,4.3364,4.3642,4.3559,4.3723,4.4107,4.4024,4.4038,4.4107,4.4024,4.4038,4.4107,4.4107,4.4217,4.4408,4.4408,4.4518,4.4681,4.4626,4.464,4.4707,0.0,0.0,0.0,0.0,0.0,0.0,0.0,0.0,0.0,0.0,0.0,0.0,0.0,0.0,2.5986,2.6554,2.6633,2.6878,2.742,2.7459,2.7472,2.7498,2.7498,0.0,2.7498,2.7184,2.7032,2.7032,2.662,2.6432,2.6457,2.6812,2.6611,2.5968,2.6307,2.7246,2.8533,2.7764,2.8655,3.0735,3.216,3.2893,3.3186,3.3798,3.3734,3.3163,0.0,3.1503,3.1665,3.0819,3.0501,3.0185,2.8328,2.7233,2.6455,0.0,0.0,0.0,2.7021,2.8036,2.9615,3.4233,3.5761,3.6771,3.9158,3.9697,3.9697,3.9697,3.9697,3.9697,3.9697,3.9697,3.9697,3.9697,3.9697,3.9697,3.9697,3.9697,3.9697,3.9697,3.9697,3.9697,3.9697,4.0162,4.0475,4.05,4.1493,4.2136,4.2199,4.2675,4.2977,4.3002,4.3002,4.3127,4.338,4.3695,4.3983,4.4244,4.3997,4.4148,4.4654,4.4408,4.4422,4.464,4.4395,4.4422,4.4667,4.4667,4.4681,4.4681,4.4681,4.4681,4.4681,4.4408,4.4477,4.4759,0.0,0.0,0.0,0.0,0.0,0.0,0.0,0.0,0.0,0.0,0.0,0.0,0.0,2.563,2.6468,2.6685,2.7,2.7306,2.7485,2.7306,2.7281,2.7481,2.7284,2.7175,2.7175,2.7057,2.6871,2.6611,2.6259,2.619,2.6389,2.6061,2.603,2.6238,2.6624,2.7322,2.8108,2.6579,2.7613,3.0287,3.0461,3.2074,3.4334,3.3812,3.5004,3.6653,3.4315,3.3223,3.2841,3.2534,3.0765,2.8599,2.7913,2.6782,2.5687,2.5608,2.5293,2.552,2.8109,2.8699,2.9348,3.2543,3.4674,3.623,3.7117,3.8566,3.9697,3.9697,3.9697,3.9697,3.9697,3.9697,3.9697,3.9697,3.9697,3.9697,3.9697,3.9697,3.9697,3.9697,3.9697,3.9697,3.9697,4.0186,4.0637,4.0989,4.1744,4.235,4.27,4.2901,4.3085,4.3254,4.3268,4.3297,4.3408,4.3722,4.3955,4.4038,4.412,4.4354,4.4695,4.4599,4.4613,4.4681,4.4599,4.4613,4.4695,4.4695,4.4695,4.4695,4.4695,4.4695,4.4681,4.4586,4.4861,4.5295,0.0,0.0,0.0,0.0,0.0,0.0,0.0,0.0,0.0,0.0,0.0,0.0,0.0,0.0,2.6842,2.6961,2.7185,2.7381,2.7481,2.7184,2.7099,2.7323,2.699,2.6803,2.6803,2.6515,2.6319,2.622,2.5684,2.5714,2.6224,2.5737,2.5821,2.6397,2.6375,2.6848,2.7548,2.582,2.6833,2.96,3.0034,3.1982,3.4609,3.4395,3.554,3.7058,3.5312,3.4203,3.3663,3.429,3.2785,3.0404,2.8928,2.7046,2.5416,2.5685,2.5703,2.6063,2.8023,2.8152,2.8295,3.0694,3.2407,3.3918,3.5623,3.7236,3.863,3.9509,3.9697,3.9697,3.9697,3.9697,3.9697,3.9697,3.9697,3.9697,3.9697,3.9697,3.9697,3.9697,3.9697,3.9772,3.9948,4.045,4.1002,4.1554,4.2134,4.2612,4.2975,4.3099,4.3268,4.3558,4.3655,4.3697,4.3697,4.4011,4.4175,4.4175,4.4354,4.4531,4.4695,4.4695,4.4695,4.4695,4.4695,4.4695,4.4695,4.4695,4.4695,4.4695,4.4695,4.4695,4.4721,4.493,4.5256,4.5648,0.0,0.0,0.0,0.0,0.0,0.0,0.0,0.0,0.0,2.4247,0.0,0.0,0.0,0.0,0.0,2.7456,2.7184,2.7133,2.7448,2.715,2.6973,2.6981,2.6607,2.6389,2.6389,2.5561,2.5373,2.5884,2.4971,2.4992,2.5884,2.5884,2.606,2.6325,2.5482,2.5786,2.6841,2.5576,2.6346,2.8644,3.1128,3.2738,3.383,3.5612,3.5388,3.4168,3.4655,3.4423,3.4136,3.5944,3.6437,3.5555,3.123,0.0,0.0,0.0,2.6221,2.6528,0.0,0.0,0.0,2.8592,2.8852,2.9776,3.4663,3.5732,3.6432,3.9057,3.9584,3.9609,3.9697,3.9697,3.9697,3.9697,3.9697,3.9697,3.9697,3.9697,3.9697,3.9697,3.9697,3.991,4.045,4.0989,4.1554,4.2149,4.27,4.3002,4.3002,4.3282,4.3585,4.3899,4.4175,4.4313,4.4299,4.4572,4.4695,4.4681,4.4695,4.4695,4.4695,4.4695,4.4695,4.4695,4.4695,4.4695,4.4695,4.4695,4.4695,4.4695,4.4695,4.4708,4.4799,4.5387,4.5622,4.5805,0.0,0.0,0.0,0.0,0.0,0.0,2.242,2.2629,2.3135,0.0,0.0,0.0,2.6257,2.6731,2.704,2.7125,2.7049,2.6922,2.6726,2.6388,2.631,2.6564,2.6233,2.6046,2.6046,2.5794,2.5611,2.5474,2.5211,2.5211,2.5474,2.5474,2.5439,2.5373,2.5292,2.5219,2.5119,2.4039,2.4762,2.6843,2.953,3.1181,3.2368,3.5321,3.7399,3.8686,3.8145,3.7904,3.7797,3.7646,3.5002,3.1221,2.7933,0.0,0.0,0.0,0.0,0.0,2.7148,0.0,0.0,0.0,0.0,0.0,3.0273,3.1891,3.384,3.6354,3.6876,3.7458,3.9346,3.9697,3.9697,3.9697,3.9697,3.9697,3.9697,3.9697,3.9697,3.9697,3.9697,3.991,4.045,4.0989,4.1554,4.2149,4.27,4.3085,4.3282,4.3766,4.4094,4.4189,4.445,4.4491,4.4299,4.4572,4.4599,4.4408,4.4613,4.4695,4.4695,4.4695,4.4695,4.4695,4.4695,4.4695,4.4695,4.4695,4.4695,4.4695,4.4695,4.4969,4.5374,4.5544,4.6118,4.6876,0.0,0.0,0.0,0.0,0.0,2.1847,2.3354,2.3284,2.3553,0.0,0.0,0.0,2.6146,0.0,2.6414,2.6714,2.6616,2.6496,2.6418,2.6086,2.5985,2.6181,2.5842,2.5653,2.5653,2.5422,2.5305,2.5303,2.5075,2.5048,2.5217,2.5126,2.5068,2.5025,2.4698,2.4458,2.4223,2.3284,2.3946,2.5918,2.8971,3.0803,3.2044,3.5218,3.7247,3.8413,3.8531,3.8442,3.8405,3.9193,3.5881,3.117,2.9742,0.0,0.0,0.0,0.0,0.0,0.0,0.0,2.6544,2.6018,0.0,0.0,2.9657,3.1138,3.3102,3.6683,3.7432,3.7899,3.9421,3.9697,3.9697,3.9697,3.9697,3.9697,3.9697,3.9697,3.9697,3.9697,3.9898,4.0301,4.0987,4.1528,4.2137,4.2857,4.3199,4.3501,4.3766,4.4108,4.4354,4.445,4.4626,4.4626,4.4463,4.4626,4.4626,4.4463,4.464,4.4695,4.4695,4.4695,4.4695,4.4695,4.4695,4.4695,4.4695,4.4695,4.4695,4.4734,4.4982,4.5296,4.5661,4.6131,4.6732,4.7346,0.0,0.0,2.2325,2.2909,2.2374,2.2543,2.4553,2.4425,2.4528,0.0,2.5828,2.5846,2.5902,2.5579,0.0,0.0,2.6019,2.5925,2.6164,2.5863,2.5665,2.5665,2.537,2.5207,2.5207,2.4801,2.4798,2.5245,2.4738,2.4665,2.5005,2.4798,2.4805,2.4914,2.3952,2.3684,2.3875,2.3105,2.3847,2.5814,2.9137,3.1069,3.2287,3.5318,3.621,3.6018,3.7456,3.7682,3.7722,4.0357,3.7929,3.383,3.3994,3.1039,2.7474,0.0,2.7899,0.0,0.0,0.0,0.0,2.6466,2.5878,0.0,3.0593,3.139,3.2634,3.7466,3.8453,3.8541,3.8831,3.8881,3.8881,3.8881,3.912,3.9422,3.966,3.9697,3.9697,3.9697,4.0161,4.0845,4.1732,4.229,4.2958,4.3821,4.3927,4.4052,4.4285,4.4326,4.445,4.4681,4.4695,4.4695,4.4695,4.4695,4.4695,4.4695,4.4695,4.4695,4.4695,4.4695,4.4695,4.4695,4.4695,4.4695,4.4708,4.4773,4.4799,4.4852,4.5387,4.5674,4.5909,4.6928,4.7346,4.7477,0.0,2.2814,2.2975,2.3004,2.2597,2.2944,2.4903,2.4564,2.4418,2.5303,2.5418,2.5544,2.5854,2.5832,0.0,0.0,2.5539,2.5144,2.4889,2.4463,2.4207,2.4207,2.4492,2.4657,2.4657,2.497,2.506,2.4901,2.4638,2.4454,2.4374,2.4217,2.4148,2.4117,2.3797,2.3612,2.3517,2.3336,2.4673,2.71,2.9409,3.0593,3.1456,3.5906,3.8239,3.9209,3.9519,4.0316,4.1058,4.0005,3.8163,3.586,3.3326,3.2803,3.246,2.9077,0.0,0.0,0.0,0.0,0.0,0.0,2.6091,0.0,2.6546,2.639,2.6946,3.0054,3.069,3.13,3.3368,3.3738,3.3738,3.3738,3.5596,3.7664,3.946,3.9697,3.9697,3.9697,4.0161,4.0845,4.1732,4.229,4.2958,4.3821,4.4107,4.4231,4.4299,4.4491,4.4654,4.4695,4.4695,4.4695,4.4695,4.4695,4.4695,4.4695,4.4695,4.4695,4.4695,4.4695,4.4695,4.4695,4.4695,4.4695,4.4734,4.5217,4.5426,4.5439,4.5557,4.6158,4.7007,4.7229,4.7609,4.8028,2.2985,2.296,2.3206,2.3497,2.3078,2.3292,2.5034,2.4618,2.4382,2.5185,2.5303,2.5374,2.5579,2.5366,2.5196,0.0,0.0,0.0,0.0,2.3934,2.3806,2.3806,2.403,2.4154,2.4154,2.4406,2.447,2.4301,2.4196,2.3994,2.3697,2.3745,2.355,2.3205,2.3518,2.3576,2.3472,2.3765,2.5536,2.8308,3.0184,3.1814,3.3501,3.73,3.9212,3.9846,3.9846,4.0497,4.1201,4.0155,3.7602,3.4958,3.5547,3.4416,3.2532,3.0884,3.1502,3.2095,0.0,0.0,0.0,2.7614,2.6913,0.0,0.0,2.7736,2.8172,3.0388,3.0838,3.1142,3.2115,3.2292,3.2292,3.2292,3.4609,3.6309,3.6047,3.8369,4.021,4.0515,4.1009,4.1607,4.2327,4.3023,4.3676,4.4259,4.4422,4.4491,4.4491,4.464,4.4695,4.4695,4.4695,4.4695,4.4695,4.4695,4.4695,4.4695,4.4695,4.4695,4.4695,4.4695,4.4695,4.4695,4.4695,4.4865,4.5165,4.5478,4.5936,4.6458,4.6458,4.6798,4.7346,4.7635,4.7937,4.82,2.3148,2.2957,2.3135,2.3961,2.3491,2.352,2.5061,2.4755,2.4564,2.5203,2.5329,2.532,2.5211,2.5231,2.5209,2.5112,0.0,0.0,2.4343,2.4222,2.3956,2.3509,2.3593,2.3649,2.3649,2.377,2.3816,2.374,2.3699,2.3519,2.3191,2.34,2.3264,2.2888,2.4027,2.4272,2.3907,2.4814,2.6937,2.9808,3.1296,3.3404,3.5962,3.86,3.9665,3.977,3.9887,4.0214,4.0539,4.0299,3.731,3.4187,3.7016,3.547,3.247,3.1691,3.2764,3.3341,0.0,0.0,0.0,0.0,0.0,2.7664,0.0,0.0,0.0,3.1512,3.1794,3.1641,3.1161,3.0971,3.0963,3.119,3.3333,3.426,3.2153,3.6035,3.9214,3.9566,4.1145,4.217,4.2094,4.2977,4.3879,4.4642,4.4185,4.4107,4.4669,4.4695,4.4695,4.4695,4.4695,4.4695,4.4695,4.4695,4.4695,4.4695,4.4695,4.4695,4.4695,4.4695,4.4695,4.4708,4.4825,4.5152,4.5622,4.5831,4.6471,4.7307,4.7307,4.7372,4.753,4.8015,4.82,4.82,2.2929,2.2604,2.2802,2.3906,2.3491,2.352,2.5061,2.522,2.5194,2.5294,2.5465,2.538,2.4906,2.6714,2.7766,2.7284,2.8557,2.8472,2.6331,2.5752,2.4559,2.2466,2.2839,2.3087,2.3087,2.3676,2.3823,2.3527,2.336,2.3209,2.3117,2.338,2.3685,2.4116,2.6765,2.6879,2.5214,2.7203,2.9609,3.2146,3.2708,3.4282,3.6536,3.8756,3.99,4.0384,4.0919,4.1155,4.1029,3.9893,3.8525,3.6731,3.3508,3.5227,3.7039,2.9904,3.1655,3.48,0.0,0.0,0.0,0.0,2.7611,0.0,2.7666,0.0,2.691,2.6761,0.0,2.6707,2.6643,0.0,0.0,2.7174,2.8787,3.0019,3.0237,3.2442,3.3807,3.323,3.8503,4.1312,3.9054,4.0046,4.1927,4.4512,4.2331,4.1991,4.4564,4.4695,4.4695,4.4695,4.4695,4.4695,4.4695,4.4695,4.4695,4.4695,4.4695,4.4695,4.4695,4.4695,4.4695,4.4734,4.5269,4.5544,4.5674,4.6693,4.7189,4.7307,4.7307,4.7635,4.8108,4.8174,4.82,4.82,2.3238,2.3079,2.3463,2.4602,2.4288,2.4188,2.5149,2.5303,2.5303,2.5303,2.5374,2.5333,2.5116,2.5717,2.6478,2.7357,2.7777,2.7452,2.6126,2.5833,0.0,2.2297,2.2417,2.2538,2.2538,2.2893,2.3003,2.2854,2.3211,2.3393,2.345,2.3925,2.4198,2.4453,2.7447,2.8271,2.7481,2.8849,3.0832,3.3126,3.356,3.4986,3.7145,3.9634,4.0724,4.0959,4.1207,4.1298,4.1217,0.0,3.8281,0.0,0.0,3.6743,3.4781,3.2817,3.3441,3.3915,0.0,0.0,0.0,0.0,0.0,0.0,2.7899,0.0,2.6985,0.0,0.0,0.0,0.0,0.0,0.0,0.0,2.8612,2.9625,2.8275,3.1573,3.4039,3.376,3.6175,3.8288,3.9407,3.9916,4.1435,4.4472,4.203,4.1664,4.4551,4.4695,4.4695,4.4695,4.4695,4.4695,4.4695,4.4695,4.4695,4.4695,4.4695,4.4695,4.4695,4.4695,4.4891,4.5243,4.5491,4.5975,4.6628,4.7111,4.7503,4.7819,4.7819,4.7976,4.82,4.82,4.82,4.82,2.3936,2.3792,2.4145,2.5206,2.5046,2.496,2.5519,2.5226,2.4997,2.5145,2.5024,2.4957,2.4992,2.5648,2.6645,2.8004,2.8788,2.8502,2.6854,2.6735,2.569,2.3341,2.2663,2.2655,2.3357,2.2974,2.2813,2.2921,2.3506,2.3869,2.4012,2.4556,2.4812,2.494,2.7979,2.9348,2.9467,3.064,3.2514,3.4724,3.5028,3.5955,3.7503,4.025,4.1298,4.1298,4.1298,4.1298,4.1207,4.058,3.7941,0.0,3.9151,3.7444,3.4255,3.5077,3.5489,3.486,3.1118,0.0,0.0,0.0,0.0,0.0,0.0,0.0,0.0,0.0,0.0,0.0,0.0,0.0,2.6521,2.7077,0.0,2.9257,2.7417,3.0423,3.2814,3.2878,3.3738,3.5798,3.9493,3.8998,3.9953,4.3611,4.1211,4.1074,4.4525,4.4695,4.4695,4.4695,4.4695,4.4695,4.4695,4.4695,4.4695,4.4695,4.4695,4.4695,4.4708,4.4865,4.5191,4.5622,4.5936,4.6536,4.732,4.7477,4.7806,4.82,4.82,4.82,4.82,4.82,4.82,4.82,2.5096,2.4636,2.4627,2.5444,2.5523,2.5674,2.6263,2.5041,2.4227,2.475,2.4353,2.4095,2.4222,2.7752,3.0149,3.0199,3.3812,3.417,2.9669,2.9373,2.8337,2.5973,2.3828,2.3838,2.6312,2.4583,2.3854,2.4239,2.4455,2.463,2.4775,2.5178,2.5553,2.5977,2.8869,3.0333,3.0788,3.2889,3.5312,3.7733,3.755,3.7363,3.7503,4.025,4.1298,4.1298,4.1298,0.0,0.0,3.8751,3.79,0.0,0.0,0.0,0.0,0.0,0.0,0.0,0.0,0.0,0.0,2.92,0.0,0.0,0.0,0.0,2.8849,0.0,0.0,0.0,0.0,0.0,0.0,0.0,0.0,0.0,0.0,2.7993,2.7734,2.774,3.1104,3.4764,3.8144,3.6049,3.6511,4.1435,3.9134,3.9601,4.4435,4.4695,4.4695,4.4695,4.4695,4.4695,4.4695,4.4695,4.4695,4.4695,4.4695,4.4695,4.4721,4.5296,4.5583,4.5661,4.6771,4.7268,4.7346,4.7924,4.8174,4.82,4.82,4.82,4.82,4.82,4.82,4.82,2.5123,2.5093,2.505,2.5237,2.4805,2.4522,2.477,2.4349,2.4627,2.6362,2.6351,2.681,2.8444,2.987,3.1185,3.2379,3.375,3.3112,2.9729,2.9821,2.898,2.6632,2.4747,2.4849,2.7189,2.5292,2.4363,2.45,2.5008,2.5277,2.5339,2.5887,2.6193,2.6392,2.8606,3.0804,3.2848,3.331,3.5021,3.7264,3.5282,3.5587,3.7305,3.8233,3.859,3.8827,4.0656,4.1298,0.0,4.041,3.9213,3.8114,3.8562,3.7651,3.6557,3.7281,3.7639,0.0,0.0,0.0,3.8038,3.3238,0.0,0.0,0.0,0.0,0.0,0.0,0.0,0.0,0.0,0.0,0.0,0.0,0.0,0.0,0.0,3.0011,3.0371,3.0295,3.2369,3.4262,3.5438,3.5918,3.7709,4.141,4.0264,4.0938,4.4499,4.4695,4.4695,4.4695,4.4695,4.4695,4.4695,4.4695,4.4695,4.4695,4.4695,4.4904,4.5296,4.5505,4.6014,4.6745,4.7137,4.753,4.7911,4.8121,4.82,4.82,4.82,4.8654,4.9231,4.8492,4.82,4.82,2.5293,2.5254,2.5132,2.5172,2.4437,2.3973,2.4401,2.3981,2.4505,2.6999,2.7038,2.7818,3.0407,3.1228,3.2198,3.3747,3.4486,3.3533,3.0376,3.1239,3.0837,2.8546,2.7404,2.7934,3.0285,2.7567,2.62,2.6339,2.6058,2.5917,2.5929,2.6323,2.6395,2.6235,2.7665,3.0273,3.3611,3.3537,3.5492,3.8326,3.4525,3.4085,3.5683,3.5747,3.6371,3.7558,0.0,4.1298,4.1298,4.1298,4.0379,3.952,4.1113,3.9715,3.7988,4.052,4.0252,3.9277,3.9865,4.1283,0.0,3.7094,3.7009,0.0,3.1325,0.0,3.0456,0.0,0.0,0.0,0.0,0.0,0.0,0.0,0.0,0.0,0.0,3.1832,3.244,3.2352,3.3292,3.418,3.4718,3.5338,3.6972,4.0013,3.9932,4.0796,4.3153,4.4186,4.4695,4.4695,4.4695,4.4695,4.4695,4.4695,4.4695,4.4695,4.4917,4.5217,4.5609,4.6027,4.6615,4.732,4.753,4.7845,4.82,4.82,4.82,4.82,4.82,4.864,4.9247,4.8929,4.88,4.88,2.559,2.5151,2.4852,2.5137,2.435,2.4003,2.5033,2.3883,2.3915,2.677,2.6569,2.7309,3.0306,3.2062,3.3444,3.4492,3.6201,3.5616,3.1811,3.356,3.3798,3.1687,3.1522,3.2703,3.5298,3.1136,2.9122,2.9505,2.7482,2.6508,2.6508,2.6461,2.6151,2.5624,2.6139,2.8802,3.2934,3.3418,3.645,4.0486,3.5307,3.3129,3.3028,3.3357,3.5057,3.7648,4.0367,4.1364,4.139,4.139,4.139,4.1481,4.2068,4.2289,4.261,4.4155,4.4593,4.4375,4.3469,4.3176,4.2637,4.0543,0.0,0.0,0.0,0.0,3.4897,0.0,0.0,0.0,0.0,0.0,0.0,0.0,0.0,0.0,0.0,3.3216,3.3552,3.3552,3.3781,3.4443,3.5761,3.4316,3.4496,3.7462,3.8214,3.9225,4.0805,4.3219,4.4592,4.4695,4.4695,4.4695,4.4695,4.4695,4.4721,4.4747,4.5335,4.5622,4.5727,4.6811,4.732,4.7385,4.795,4.82,4.82,4.82,4.823,4.8287,4.8229,4.8273,4.8494,4.9518,4.9901,4.9915,2.549,2.4845,2.4094,2.3735,2.344,2.3314,2.3493,2.3174,2.4394,2.8537,2.8805,3.0346,3.4935,3.581,3.6336,3.7014,3.7514,3.6671,3.4037,3.4766,3.5043,3.4466,3.3294,3.3748,3.6074,3.1817,2.9622,2.9711,2.7566,2.6508,2.6495,2.6038,2.5753,2.5573,2.4929,2.6655,3.0038,2.9766,3.2016,3.5604,3.4209,3.3887,3.4462,0.0,3.7809,3.884,4.1137,4.2226,4.2553,4.2553,4.2553,4.2579,4.2762,4.3341,4.4052,4.4414,4.5081,4.5799,4.6296,4.6412,4.589,4.3808,4.3286,4.2457,0.0,0.0,0.0,0.0,0.0,0.0,0.0,0.0,0.0,0.0,0.0,0.0,0.0,3.3837,3.4241,3.4241,3.4381,3.4442,3.4301,3.4356,3.5632,3.8637,3.8013,3.9297,4.3455,0.0,4.2999,4.4643,4.4695,4.4695,4.4695,4.4695,4.493,4.5374,4.5531,4.604,4.6876,4.7176,4.7543,4.7976,4.8134,4.82,4.82,4.82,4.8697,4.9375,4.8537,4.9273,5.0726,5.0126,4.9901,5.0028,2.4814,2.4197,2.3499,2.315,2.4119,2.483,2.452,2.3859,2.5015,2.9556,3.0265,3.1809,3.5681,3.696,3.7789,3.8329,3.8379,3.755,3.5567,3.6634,3.6899,3.5943,3.5955,3.657,3.7814,3.4448,3.221,3.1233,2.8759,2.706,2.608,2.5523,2.5134,2.4883,2.4757,2.621,2.8944,3.1591,3.3282,3.4307,3.5573,3.6214,0.0,3.8224,3.9784,4.1303,4.2512,4.2971,4.2997,4.2997,4.2997,4.3062,4.331,4.3807,4.4429,4.5135,4.5407,4.5827,4.737,4.7772,4.7609,4.6903,4.7085,4.6592,4.3367,4.2877,4.2608,0.0,0.0,0.0,0.0,0.0,0.0,3.2131,0.0,0.0,0.0,3.451,3.4937,3.4937,3.5008,3.4793,3.4118,3.3828,3.4722,3.7266,3.6745,3.7313,0.0,4.1086,4.2173,4.293,4.315,4.3717,4.4682,4.3993,4.4309,4.5609,4.6105,4.668,4.732,4.757,4.7885,4.82,4.82,4.82,4.82,4.82,4.858,4.9145,4.8988,5.0069,5.1688,5.1511,5.1428,5.1524,2.3904,2.3517,2.3221,2.3221,2.554,2.7349,2.7165,2.5904,2.6452,3.0598,3.1539,3.2704,3.5003,3.6973,3.8366,3.8957,3.9007,3.8379,3.6933,3.863,3.8843,3.6921,3.8668,3.9697,3.9697,3.7524,3.5287,3.2989,3.0322,2.7849,2.5586,2.5126,2.4661,2.425,2.5109,2.6679,2.9061,3.4977,3.6454,3.5065,3.7941,3.9033,3.8972,3.9531,4.1527,4.399,4.399,4.3663,4.3219,4.3219,4.3219,4.331,4.3846,4.411,4.4481,4.5792,4.5582,4.5342,4.7266,4.7889,4.8256,4.9329,5.04,5.0443,4.7587,4.6943,4.6121,4.3264,4.2681,4.2595,0.0,0.0,0.0,3.3552,0.0,0.0,0.0,3.6156,3.6394,3.605,3.5946,0.0,3.4585,3.3203,3.3184,3.5167,3.5,3.4804,0.0,0.0,4.172,4.1441,4.1697,4.2622,4.4254,0.0,4.359,4.5289,4.6657,4.7346,4.7438,4.7963,4.82,4.82,4.82,4.82,4.8214,4.8361,4.8508,4.877,4.9901,5.1003,5.2041,5.303,5.3505,5.365,2.3354,2.3567,2.3833,2.3833,2.6126,2.8536,3.0279,3.0291,3.1035,3.3637,3.4063,3.5153,3.7876,3.8517,3.8969,3.9509,3.9559,3.9446,3.9145,3.9471,3.9534,3.9145,3.9484,3.9697,3.9697,3.7524,3.5075,3.2355,3.0532,2.826,2.5607,2.5498,2.541,2.531,2.5042,2.6667,2.9691,3.1425,3.338,3.5615,3.8495,3.9834,4.0371,4.2788,4.4069,4.4565,4.4565,4.4486,4.4407,4.4407,4.4407,4.442,4.4538,4.5209,4.5845,4.5181,4.5529,4.619,4.6569,4.7331,4.8256,4.9329,5.04,5.1053,5.0473,5.0338,5.0185,4.9602,4.9482,4.8704,4.6121,0.0,0.0,0.0,0.0,0.0,0.0,4.1913,4.1205,3.8973,3.833,3.7119,3.4728,3.3765,3.4167,3.634,3.3817,3.5089,0.0,0.0,4.0868,0.0,4.4573,0.0,0.0,0.0,4.4547,4.3648,4.6122,4.757,4.8056,4.8147,4.82,4.82,4.82,4.82,4.826,4.9217,5.0182,5.121,5.2337,5.2924,5.3123,5.3335,5.4029,5.4885,2.3981,2.4227,2.4787,2.5925,2.8401,3.0974,3.3185,3.4776,3.5567,3.518,3.5379,3.6093,3.7461,3.863,3.9421,3.9685,3.9697,3.9697,3.9697,3.9697,3.9697,3.9697,3.9697,3.9697,3.9697,3.8931,3.6608,3.2677,0.0,0.0,2.5586,2.5322,2.5189,2.5259,2.6876,2.8766,3.0953,3.4277,0.0,3.8433,4.1212,4.246,4.2775,4.4172,4.4695,4.4695,4.4695,4.4695,4.4695,4.4695,4.4695,4.4695,4.4695,4.5073,4.5409,4.4857,4.5515,4.64,4.64,4.7587,4.8958,4.9464,5.04,5.1191,5.1191,5.1191,5.1191,5.1191,5.1191,5.0212,4.6995,4.2418,0.0,0.0,0.0,0.0,0.0,0.0,4.2871,4.158,3.9694,3.8102,3.7144,3.5213,3.4175,3.4545,3.3079,3.4378,0.0,0.0,4.119,0.0,0.0,0.0,0.0,0.0,0.0,4.5353,4.6982,4.7924,4.82,4.82,4.82,4.82,4.82,4.8537,4.9174,5.035,5.1524,5.2645,5.319,5.3781,5.4329,5.4329,5.4705,5.5207,2.5331,2.5205,2.582,2.8502,3.0861,3.3133,3.5355,3.7965,3.8906,3.6673,3.681,3.7109,3.7109,3.8655,3.9697,3.9697,3.9697,3.9697,3.9697,3.9697,3.9747,3.9873,3.9873,3.9923,4.0036,4.045,3.8467,0.0,0.0,0.0,0.0,2.5515,2.5502,2.6248,2.9193,3.1589,0.0,0.0,4.079,4.1735,4.3847,4.4695,4.4695,4.4695,4.4695,4.4695,4.4695,4.4695,4.4695,4.4695,4.4695,4.4695,4.4695,4.4695,4.4695,4.4695,4.5342,4.6046,4.6046,4.7447,4.8921,4.8921,4.9904,5.0858,5.0858,5.105,5.1191,5.1191,5.1191,5.02,4.6942,4.4192,0.0,0.0,0.0,0.0,0.0,0.0,4.4765,4.4212,4.125,3.9463,3.9993,3.6688,3.4225,3.3589,3.3819,3.4954,3.7196,0.0,0.0,0.0,0.0,4.4143,4.5799,0.0,4.5536,4.6996,4.8071,4.8421,4.82,4.82,4.82,4.8214,4.8463,4.9346,5.0726,5.1674,5.2738,5.3781,5.3781,5.4355,5.5207,5.5207,5.5207,5.5207,2.7385,2.6578,2.6854,3.1075,3.2478,3.3756,3.5979,3.8241,3.9609,3.9333,3.9358,3.9396,3.9396,3.9584,3.9697,3.9697,3.9697,3.9697,3.9697,3.9697,3.9923,4.04,4.0425,4.065,4.1138,4.1188,3.9785,0.0,0.0,3.2028,0.0,0.0,2.7806,3.0444,0.0,0.0,0.0,4.0299,4.2078,4.4356,4.4604,4.4695,4.4695,4.4695,4.4695,4.4695,4.4695,4.4695,4.4695,4.4695,4.4695,4.4695,4.4695,4.4695,4.4695,4.4695,4.4776,4.4857,4.4857,4.5755,4.6699,4.6699,4.8233,4.9747,4.9747,5.051,5.1191,5.1191,5.1191,5.0235,4.7066,4.6126,4.4911,0.0,0.0,0.0,0.0,0.0,4.9576,4.7209,4.4038,4.2051,4.2101,3.7505,3.5176,3.6812,3.752,3.9256,0.0,0.0,0.0,4.4532,4.4347,4.3271,4.1329,4.7156,4.8681,4.5973,4.8518,4.9203,4.82,4.82,4.82,4.8258,4.9289,5.1003,5.3083,5.3189,5.3951,5.504,5.504,5.5103,5.5207,5.5207,5.5207,5.5207,3.0856,3.0555,3.1082,3.4175,3.4913,3.584,3.804,3.9132,3.9697,3.9697,3.9697,3.9697,3.9697,3.9697,3.9697,3.9697,3.9697,3.9835,4.0162,4.0174,4.0425,4.0964,4.0989,4.1076,4.1289,4.1656,4.0463,0.0,0.0,0.0,0.0,0.0,0.0,0.0,0.0,3.8037,4.0333,4.2278,4.3716,4.4695,4.4695,4.4695,4.4695,4.4695,4.4695,4.4695,4.4695,4.4695,4.4695,4.4695,4.4695,4.4695,4.4695,4.4695,4.4695,4.4695,4.5635,4.6686,4.6686,4.7954,4.9278,4.9278,4.9941,5.0558,5.0558,5.0893,5.1191,5.1191,5.1191,5.0825,4.955,4.7675,4.6531,0.0,0.0,0.0,0.0,0.0,5.0069,4.7059,4.3803,4.2116,4.2915,3.7114,3.4763,3.8329,3.6656,3.6716,0.0,0.0,0.0,4.3286,0.0,4.7429,4.4813,4.8775,5.0313,4.9352,5.0459,5.074,5.0294,5.0294,5.0294,5.0364,5.1511,5.2537,5.3466,5.4173,5.4756,5.5207,5.5207,5.5207,5.5207,5.5207,5.5207,5.5207,3.3858,3.3555,3.3996,3.6872,3.6822,3.7147,3.9358,3.9697,3.9697,3.9697,3.9835,3.9873,3.9723,3.9835,3.9936,3.9936,4.0086,4.0324,4.07,4.0751,4.0976,4.1542,4.1567,0.0,4.1805,4.2222,4.1456,3.9471,3.7098,0.0,0.0,0.0,0.0,0.0,3.9235,4.0696,4.1669,4.3793,4.4695,4.4695,4.4695,4.4695,4.4695,4.4695,4.4695,4.4695,4.4695,4.4695,4.4695,4.4695,4.4695,4.4695,4.4695,4.4695,4.4695,4.4695,4.5807,4.7035,4.7035,4.8382,4.9793,4.9793,5.0254,5.0739,5.0739,5.0964,5.1191,5.1191,5.1191,5.1191,5.1191,4.9291,4.8185,4.9531,0.0,0.0,0.0,5.0592,0.0,4.6689,4.3389,4.2142,4.4077,3.7994,3.6199,4.1614,3.8542,3.721,0.0,0.0,0.0,0.0,0.0,0.0,0.0,5.0733,5.2123,5.2203,5.2203,5.2027,5.1702,5.1702,5.1879,5.2229,5.3043,5.3597,5.4003,5.486,5.5207,5.5207,5.5207,5.5207,5.5207,5.5207,5.5207,5.5207,3.5931,3.4599,3.4497,3.8894,3.7851,3.7147,3.9358,3.9697,3.9697,3.9697,4.0161,4.0287,3.976,4.0161,4.05,4.05,4.0976,4.1276,4.1289,4.1289,4.1567,0.0,0.0,4.2438,4.2977,4.2989,4.2963,4.2951,0.0,0.0,3.8342,0.0,3.6683,4.014,4.0179,4.1864,4.4656,4.4682,4.4695,4.4695,4.4695,4.4695,4.4695,4.4695,4.4695,4.4695,4.4695,4.4695,4.4695,4.4695,4.4695,4.4695,4.4695,4.4695,4.4695,4.4695,4.4722,4.4735,4.4735,4.5582,4.6465,4.6465,4.8044,4.9625,4.9625,5.0451,5.1191,5.1191,5.1191,5.1191,5.1191,5.1173,5.0084,4.6884,0.0,0.0,0.0,4.9157,0.0,4.6689,4.3389,4.2681,4.5956,4.0842,4.0367,4.7634,4.5135,0.0,0.0,0.0,0.0,4.8109,4.9074,0.0,4.928,5.3177,5.4547,5.3387,5.3387,5.2792,5.1702,5.1702,5.231,5.3387,5.34,5.4082,5.5181,5.5194,5.5207,5.5207,5.5207,5.5207,5.5207,5.5207,5.5207,5.5207,3.8504,3.8078,3.804,3.9446,3.912,3.8881,3.9584,4.0011,4.0262,4.0262,4.0713,4.0989,4.0813,4.0938,4.1051,4.1051,4.1201,4.1465,0.0,4.1908,4.216,4.2713,4.275,4.2826,4.3002,4.3002,4.3099,4.3268,0.0,0.0,0.0,3.884,4.019,4.3271,4.3271,4.3793,4.4695,4.4695,4.4695,4.4695,4.4695,4.4695,4.4695,4.4695,4.4695,4.4695,4.4695,4.4695,4.4695,4.4695,4.4695,4.4695,4.4695,4.4695,4.4695,4.4695,4.5768,4.6944,4.6944,4.8282,4.9671,4.9671,5.0182,5.0689,5.0689,5.0952,5.1191,5.1191,5.1191,5.1191,5.1191,5.1191,5.0858,4.9815,5.0518,0.0,4.9785,0.0,4.6629,4.3344,4.0537,4.013,4.3329,4.0397,4.0175,4.4749,4.2136,0.0,0.0,0.0,0.0,0.0,5.0647,0.0,4.9946,5.3428,5.5015,5.4626,5.4626,5.4447,5.4084,5.4084,5.4278,5.4626,5.4626,5.486,5.5207,5.5207,5.5207,5.5207,5.5207,5.5207,5.5207,5.5207,5.5491,5.588,3.9697,3.9697,3.9697,3.9697,3.9697,3.9773,3.9973,4.0274,4.0562,4.0775,4.1291,4.1629,4.1629,4.1818,0.0,4.1668,4.1818,4.2095,4.2488,4.2499,4.265,4.2989,4.3002,4.3002,4.3002,4.3002,0.0,4.3254,4.1748,4.1221,4.1595,4.1801,4.2892,4.4695,4.4695,4.4695,4.4695,4.4695,4.4695,4.4695,4.4695,4.4695,4.4721,4.4956,4.5047,4.5074,4.5296,4.5388,4.5388,4.5388,4.5388,4.5388,4.5388,4.5388,4.5335,4.51,4.6183,4.7435,4.7435,4.872,5.0146,5.0568,5.0998,5.1415,5.1852,5.1947,5.1947,5.1947,5.1947,5.1947,5.1947,5.1947,5.1947,5.1947,5.1947,5.1528,5.0275,0.0,4.5817,0.0,0.0,0.0,0.0,4.3208,4.3768,0.0,4.5767,0.0,0.0,0.0,0.0,4.8371,5.2815,0.0,5.2103,5.4147,5.5207,5.5207,5.5207,5.5207,5.5207,5.5207,5.5207,5.5207,5.5207,5.5207,5.5207,5.5207,5.5207,5.5207,5.5207,5.5356,5.5581,5.5581,5.597,5.6551,3.9697,3.9697,3.971,3.9747,3.976,3.9936,4.0475,4.0588,4.0801,4.1302,4.1883,4.2249,4.2249,4.27,4.2801,4.2299,0.0,0.0,0.0,4.3002,4.3002,4.3002,4.3002,4.3002,4.3002,4.3002,4.3002,4.303,4.3638,4.3927,4.3941,4.445,4.4695,4.4695,4.4695,4.4695,4.4695,4.4747,4.476,4.476,4.4812,4.4812,4.4891,4.5439,4.5661,4.574,4.6304,4.6501,4.6501,4.6501,4.6501,4.6501,4.6501,4.654,4.6435,4.5845,4.6166,4.6727,4.6727,4.7576,4.8705,4.9766,5.0833,5.1904,5.2967,5.3198,5.3198,5.3198,5.3198,5.3198,5.3198,5.3198,5.3198,5.3198,5.3019,5.1791,4.8727,4.8098,4.68,4.3673,0.0,0.0,0.0,4.8423,4.9992,0.0,0.0,0.0,0.0,0.0,4.8265,5.4995,5.5207,5.5207,5.5207,5.5207,5.5207,5.5207,5.5207,5.5207,5.5207,5.5207,5.5207,5.5207,5.5207,5.5207,5.5207,5.5207,5.5237,5.5281,5.5281,5.5683,5.6267,5.6267,5.6643,5.7169,0.0,0.0,3.9823,4.0236,4.0312,4.05,4.1039,4.1492,4.1846,4.1972,4.2474,4.2813,4.2813,4.2926,4.2951,4.2826,4.2926,4.3002,4.3002,4.3002,4.3002,4.3002,4.3002,4.3002,4.3002,4.3002,4.3099,4.331,4.3902,4.4203,4.4203,4.4545,4.4695,4.4695,4.4695,4.4695,4.4734,4.5191,4.5387,4.5426,4.5885,4.6082,4.6095,4.6225,4.6291,4.6317,4.6448,4.6501,4.6501,4.6501,4.6501,4.6501,4.6501,4.6774,4.6995,4.6447,4.7579,4.9013,4.9013,5.0471,5.2067,5.2328,5.2605,5.2866,5.3138,5.3198,5.3198,5.3198,5.3198,5.3198,5.3198,5.3198,5.3198,5.3198,5.1103,4.9202,4.8412,4.6097,4.4192,0.0,4.3893,4.5554,4.8749,4.9625,5.0369,0.0,0.0,0.0,0.0,5.0046,5.1012,5.5072,5.5207,5.5207,5.5207,5.5207,5.5207,5.5207,5.5207,5.5207,5.5207,5.5207,5.5207,5.5207,5.5207,5.5207,5.5207,5.5207,5.5491,5.5968,5.5968,5.6329,5.6883,5.6883,5.7304,5.7859,4.0023,4.0074,4.0224,4.0775,4.0876,4.1065,4.163,4.1997,4.2287,4.2524,4.2813,4.3002,4.3002,4.3002,4.3002,4.3002,4.3002,4.3002,4.3002,4.3002,4.3002,4.3002,4.3002,4.3002,4.3002,4.3002,4.3129,4.3408,4.3875,4.4189,4.4299,4.4859,4.5113,4.5126,4.5401,4.5518,4.5545,4.5858,4.6016,4.6042,4.637,4.6501,4.654,4.6774,4.6878,4.6904,4.718,4.7272,4.7272,4.7272,4.7272,4.7272,4.7272,4.7479,4.7648,4.7363,4.8492,4.9855,4.9855,5.1154,5.2639,5.3164,5.3711,5.4114,5.4114,5.4114,5.4114,5.4114,5.4114,5.4114,5.4114,5.4114,5.4114,5.4114,5.1334,4.9168,4.9168,4.6311,0.0,4.6275,4.6869,4.843,5.1672,5.2399,5.2642,5.2642,5.2642,0.0,5.2642,5.2642,5.3433,5.5147,5.5207,5.5207,5.5207,5.5207,5.5207,5.5207,5.5207,5.5207,5.5207,5.5207,5.5207,5.5207,5.5207,5.5371,5.5656,5.5656,5.603,5.6613,5.6613,5.7002,5.7573,5.7573,5.7979,5.8562,4.0525,4.0612,4.0788,4.134,4.144,4.1629,4.2223,4.2324,4.2474,4.2951,4.3002,4.3002,4.3002,4.3002,4.3002,4.3002,4.3002,4.3002,4.3002,4.3002,4.3002,4.3002,4.3002,4.3002,4.3002,4.3044,4.3221,4.3534,4.3905,4.4246,4.4571,4.5367,4.574,4.5767,4.6278,4.6501,4.6514,4.6592,4.6618,4.6631,4.6709,4.6749,4.6801,4.7256,4.7438,4.749,4.8015,4.82,4.82,4.82,4.82,4.82,4.82,4.82,4.823,4.842,4.9261,5.014,4.9957,5.0906,5.223,5.3374,5.4432,5.5207,5.5207,5.5207,5.5207,5.5207,5.5207,5.5207,5.5207,5.5207,5.5042,5.4521,5.1639,4.946,4.946,0.0,4.6516,4.9818,5.0656,5.2073,5.4922,5.5207,5.5207,5.5207,5.5207,5.5207,5.5207,5.5207,5.5207,5.5207,5.5207,5.5207,5.5207,5.5207,5.5207,5.5207,5.5207,5.5207,5.5207,5.5207,5.5207,5.5207,5.5311,5.5671,5.6207,5.6297,5.6688,5.7244,5.7244,5.7649,5.8249,5.8249,5.8607,5.9099,4.1076,4.1189,4.1352,4.1959,4.206,4.2235,4.2788,4.2876,4.2914,4.3002,4.3002,4.3002,4.3002,4.3002,4.3002,4.3002,4.3002,4.3002,4.3002,4.3002,4.3002,4.3002,4.3002,4.3002,4.3002,4.3226,4.3607,4.4158,4.4718,4.5242,4.5749,4.615,4.6356,4.6356,4.6461,4.6501,4.6526,4.6982,4.7191,4.7216,4.7728,4.7938,4.7951,4.803,4.8069,4.8082,4.8174,4.82,4.82,4.82,4.82,4.82,4.82,4.82,4.8391,4.9346,5.0476,5.1196,5.0182,5.1483,5.3413,5.4613,5.5065,5.5207,5.5207,5.5207,5.5207,5.5207,5.5207,5.5207,5.5207,5.5207,5.4266,5.1445,4.8211,4.6067,4.6067,0.0,4.6516,4.9818,5.2698,5.4625,5.5162,5.5207,5.5207,5.5207,5.5207,5.5207,5.5207,5.5207,5.5207,5.5207,5.5207,5.5207,5.5207,5.5207,5.5207,5.5207,5.5207,5.5207,5.5207,5.5207,5.5207,5.5237,5.5803,5.6102,5.6237,5.6748,5.7348,5.7935,5.7935,5.8353,5.8936,5.8936,5.9011,5.9099,4.1668,4.1769,4.197,4.2524,4.2625,4.2713,4.2964,4.3002,4.3002,4.3002,4.3002,4.3002,4.3002,4.3002,4.3002,4.3002,4.3002,4.3002,4.3002,4.3002,4.3002,4.3002,4.3002,4.321,4.3693,4.3929,4.4349,4.5011,4.528,4.5621,4.6008,4.6631,4.6929,4.6957,4.7272,4.743,4.7428,4.7675,4.7779,4.7819,4.8095,4.82,4.82,4.82,4.82,4.82,4.82,4.8582,4.9117,4.9117,4.9546,5.0097,5.0097,5.0097,5.0196,5.0726,5.1702,5.2645,5.2725,5.3546,5.4498,5.5065,5.5207,5.5207,5.5207,5.5207,5.5207,5.5207,5.5207,5.5207,5.5207,5.5207,5.4102,5.0745,4.8933,0.0,0.0,4.7931,4.9168,5.2504,5.4266,5.5207,5.5207,5.5207,5.5207,5.5207,5.5207,5.5207,5.5207,5.5207,5.5207,5.5207,5.5207,5.5207,5.5207,5.5207,5.5207,5.5207,5.5207,5.5207,5.5222,5.5566,5.5743,5.576,5.6404,5.6898,5.7244,5.7515,5.8023,5.8637,5.8637,5.8831,5.9099,5.9099,5.9099,5.9099,4.2261,4.2387,4.2526,4.2926,4.3002,4.3002,4.3002,4.3002,4.3002,4.3002,4.3002,4.3002,4.3002,4.3002,4.3002,4.3002,4.3002,4.3002,4.3002,4.3113,4.3189,4.3189,4.3302,4.3691,4.4361,4.4605,4.507,4.5799,4.5856,4.6108,4.6524,4.7208,4.7503,4.753,4.7989,4.82,4.82,4.82,4.82,4.82,4.82,4.82,4.82,4.82,4.82,4.82,4.82,4.877,4.949,4.949,5.0294,5.1237,5.0975,5.1265,5.1702,5.1702,5.2713,5.3964,5.4601,5.4781,5.486,5.5128,5.5207,5.5207,5.5207,5.5207,5.5207,5.5207,5.5207,5.5207,5.5207,5.5207,5.4102,5.0745,0.0,0.0,0.0,5.0207,5.1445,5.479,5.5207,5.5207,5.5207,5.5207,5.5207,5.5207,5.5207,5.5207,5.5207,5.5207,5.5207,5.5207,5.5207,5.5207,5.5207,5.5207,5.5207,5.5207,5.5356,5.5431,5.5446,5.6117,5.6417,5.6434,5.7049,5.762,5.8115,5.8278,5.8637,5.9099,5.9099,5.9099,5.9099,5.9099,5.9099,5.9099,4.2838,4.2951,4.2951,4.3002,4.3002,4.3002,4.3002,4.3002,4.3002,4.3002,4.3002,4.3002,4.3002,4.3002,4.3002,4.3002,4.3002,4.3002,4.3002,4.3478,4.374,4.374,4.4215,4.4503,4.4583,4.4895,4.5477,4.6332,4.665,4.724,4.804,4.8094,4.8134,4.8147,4.8174,4.82,4.82,4.82,4.82,4.82,4.82,4.82,4.82,4.82,4.82,4.82,4.82,4.8245,4.8318,4.8318,4.9101,4.9844,4.8798,4.9956,5.1702,5.1702,5.3297,5.4847,5.3807,5.3531,5.3794,5.4923,5.5207,5.5207,5.5207,5.5207,5.5207,5.5207,5.5207,5.5207,5.5207,5.5207,5.4102,5.0745,0.0,0.0,5.0207,5.0207,5.1445,5.479,5.5207,5.5207,5.5207,5.5207,5.5207,5.5207,5.5207,5.5207,5.5207,5.5207,5.5207,5.5207,5.5207,5.5207,5.5207,5.5207,5.5207,5.5222,5.5833,5.6132,5.6147,5.6763,5.7032,5.7077,5.7739,5.8055,5.8145,5.8771,5.9054,5.9099,5.9099,5.9099,5.9099,5.9099,5.9099,5.9099,4.2964,4.3002,4.3002,4.3002,4.3002,4.3002,4.3002,4.3002,4.3002,4.3002,4.3002,4.3002,4.3002,4.3002,4.3002,4.3002,4.3302,4.3503,4.3503,4.4003,4.4303,4.4303,4.4857,4.5246,4.5409,4.5895,4.641,4.6898,4.7234,4.7569,4.7881,4.8112,4.82,4.82,4.82,4.82,4.82,4.82,4.82,4.82,4.82,4.82,4.82,4.82,4.82,4.82,4.82,4.864,4.9361,5.0111,5.0657,5.1196,5.2216,5.2149,5.1838,5.2552,5.3927,5.5103,5.4639,5.4524,5.4626,5.5091,5.5207,5.5207,5.5207,5.5207,5.5207,5.5207,5.5207,5.5207,5.5207,5.5207,5.4102,5.0745,0.0,5.2567,5.0491,5.1983,5.3773,5.5044,5.5207,5.5207,5.5207,5.5207,5.5207,5.5207,5.5207,5.5207,5.5207,5.5207,5.5207,5.5207,5.5596,5.5611,5.5207,5.5611,5.582,5.5833,5.6449,5.6763,5.6778,5.7423,5.7724,5.7754,5.8427,5.8726,5.8741,5.8981,5.9099,5.9099,5.9099,5.9099,5.9099,5.9099,5.9099,5.9099,4.3002,4.3002,4.3002,4.3002,4.3002,4.3002,4.3002,4.3002,4.3002,4.3002,4.3002,4.3002,4.3002,4.3002,4.3077,4.3239,4.3591,4.3878,4.4039,4.4566,4.488,4.488,4.5447,4.584,4.602,4.6531,4.693,4.7205,4.7543,4.7749,4.7865,4.8098,4.82,4.82,4.82,4.82,4.82,4.82,4.82,4.82,4.82,4.82,4.8243,4.8609,4.8741,4.8784,4.9159,4.9801,5.0587,5.1429,5.1946,5.2458,5.3704,5.3244,5.2458,5.3624,5.4549,5.5207,5.5207,5.5207,5.5207,5.5207,5.5207,5.5207,5.5207,5.5207,5.5207,5.5207,5.5207,5.5207,5.5207,5.5207,5.4446,5.2133,5.3698,5.4401,5.2088,5.3758,5.5207,5.5207,5.5207,5.5207,5.5207,5.5207,5.5207,5.5207,5.5207,5.5207,5.5207,5.5401,5.5506,5.5506,5.6134,5.6254,5.5792,5.6254,5.6492,5.6492,5.7109,5.7408,5.7438,5.8113,5.8412,5.8442,5.8891,5.9099,5.9099,5.9099,5.9099,5.9099,5.9099,5.9099,5.9099,5.9099,5.9099,5.9099,4.3002,4.3002,4.3002,4.3002,4.3002,4.3002,4.3002,4.3002,4.3002,4.3002,4.3002,4.3002,4.3002,4.3002,4.3226,4.3752,4.3815,4.4039,4.4591,4.5171,4.5512,4.5512,4.6024,4.6298,4.6298,4.6629,4.6932,4.7205,4.7543,4.788,4.82,4.82,4.82,4.82,4.82,4.82,4.82,4.82,4.8214,4.8214,4.8214,4.8229,4.8347,4.9475,4.9915,5.007,5.1264,5.1702,5.1702,5.1716,5.2458,5.3189,5.2068,5.2485,5.365,5.4847,5.5194,5.5207,5.5207,5.5207,5.5207,5.5207,5.5207,5.5207,5.5207,5.5207,5.5207,5.5207,5.5207,5.5207,5.5207,5.5207,5.5207,5.5207,5.5207,5.5207,5.5207,5.5207,5.5207,5.5207,5.5207,5.5207,5.5207,5.5207,5.5207,5.5207,5.5207,5.5222,5.5222,5.5848,5.6207,5.6207,5.6793,5.7109,5.7109,5.7109,5.7109,5.7122,5.7784,5.8115,5.813,5.8801,5.9099,5.9099,5.9099,5.9099,5.9099,5.9099,5.9099,5.9099,5.9099,5.9099,5.9099,5.9099,5.9099,5.9099,4.3002,4.3002,4.3002,4.3002,4.3002,4.3002,4.3002,4.3002,4.3002,4.3002,4.3002,4.3002,4.3002,4.3339,4.3641,4.379,4.4531,4.5221,4.5759,4.5959,4.6062,4.6062,4.621,4.6419,4.6644,4.6932,4.7114,4.7205,4.7764,4.8112,4.82,4.82,4.82,4.82,4.82,4.82,4.82,4.82,4.8654,4.9389,4.9389,4.99,5.0685,5.1031,5.1154,5.1209,5.1579,5.1702,5.1824,5.2632,5.2592,5.2149,5.1811,5.3058,5.4562,5.4082,5.4537,5.5207,5.5207,5.5207,5.5207,5.5207,5.5207,5.5207,5.5207,5.5207,5.5207,5.5207,5.5207,5.5207,5.5207,5.5207,5.5207,5.5207,5.5207,5.5207,5.5207,5.5207,5.5207,5.5207,5.5207,5.5207,5.5207,5.5207,5.5207,5.5207,5.5641,5.609,5.6509,5.6718,5.6823,5.6823,5.7455,5.7799,5.7799,5.7799,5.7799,5.7814,5.8487,5.8801,5.8801,5.9011,5.9099,5.9099,5.9099,5.9099,5.9099,5.9099,5.9099,5.9099,5.9099,5.9099,5.9099,5.9099,5.9099,5.9099,4.3002,4.3002,4.3002,4.3002,4.3002,4.3002,4.3002,4.3002,4.3002,4.3002,4.3002,4.3076,4.3289,4.3601,4.3978,4.443,4.5311,4.5949,4.6273,4.6419,4.6494,4.6494,4.6494,4.6524,4.6599,4.6993,4.7205,4.7205,4.788,4.82,4.82,4.82,4.82,4.82,4.82,4.82,4.82,4.82,4.8609,4.9231,4.9231,4.9928,5.1031,5.1525,5.1987,5.2431,5.2912,5.3085,5.3191,5.3873,5.365,5.3085,5.3085,5.4071,5.5065,5.4329,5.4626,5.5207,5.5207,5.5207,5.5207,5.5207,5.5207,5.5207,5.5207,5.5207,5.5207,5.5207,5.5207,5.5207,5.5207,5.5207,5.5207,5.5207,5.5207,5.5207,5.5207,5.5207,5.5207,5.5207,5.5207,5.5207,5.5207,5.5431,5.5685,5.5927,5.6329,5.6718,5.7092,5.7348,5.7513,5.7513,5.8143,5.8502,5.8502,5.8502,5.8502,5.8502,5.8906,5.9099,5.9099,5.9099,5.9099,5.9099,5.9099,5.9099,5.9099,5.9099,5.9099,5.9099,5.9099,5.9099,5.9099,5.9099,5.9099,5.9099,4.3002,4.3002,4.3002,4.3002,4.3002,4.3002,4.3002,4.3002,4.3002,4.3002,4.3052,4.3251,4.374,4.389,4.4367,4.5412,4.5987,4.6313,4.6343,4.6599,4.6776,4.6806,4.6806,4.6659,4.6358,4.6919,4.722,4.7237,4.7894,4.82,4.82,4.82,4.82,4.82,4.82,4.82,4.82,4.82,4.8258,4.8347,4.8347,4.9103,5.0322,5.1429,5.2565,5.3703,5.4807,5.5207,5.5207,5.5207,5.5207,5.5207,5.5207,5.5207,5.5207,5.5207,5.5207,5.5207,5.5207,5.5207,5.5207,5.5207,5.5207,5.5207,5.5207,5.5207,5.5207,5.5207,5.5207,5.5207,5.5207,5.5207,5.5207,5.5207,5.5207,5.5207,5.5207,5.5207,5.5222,5.5281,5.5296,5.5311,5.5359,5.5923,5.6524,5.7139,5.7184,5.7214,5.7287,5.7859,5.819,5.819,5.8786,5.9099,5.9099,5.9099,5.9099,5.9099,5.9099,5.9099,5.9099,5.9099,5.9099,5.9099,5.9099,5.9099,5.9099,5.9099,5.9099,5.9099,5.9099,5.9099,5.9099,5.9099,5.9099,5.9099,4.3002,4.3002,4.3002,4.3002,4.3002,4.3002,4.3002,4.3002,4.3002,4.3002,4.3377,4.3664,4.379,4.4593,4.5236,4.5474,4.5987,4.6419,4.6673,4.6509,4.6524,4.6791,4.6806,4.6776,4.6701,4.7038,4.7324,4.7587,4.7997,4.82,4.82,4.82,4.82,4.82,4.82,4.82,4.82,4.82,4.8726,4.9532,4.9532,5.0782,5.2671,5.2938,5.3782,5.4847,5.5103,5.5207,5.5207,5.5207,5.5207,5.5207,5.5207,5.5207,5.5207,5.5207,5.5207,5.5207,5.5207,5.5207,5.5207,5.5207,5.5207,5.5207,5.5207,5.5207,5.5207,5.5207,5.5207,5.5207,5.5207,5.5207,5.5207,5.5207,5.5207,5.5207,5.5207,5.5207,5.5401,5.5923,5.5983,5.6177,5.6643,5.6823,5.7169,5.7829,5.7889,5.8113,5.8635,5.8801,5.8876,5.8876,5.9011,5.9099,5.9099,5.9099,5.9099,5.9099,5.9099,5.9099,5.9099,5.9099,5.9099,5.9099,5.9099,5.9099,5.9099,5.9099,5.9099,5.9099,5.9099,5.9099,5.9099,5.9099,5.9099,5.9099,4.3002,4.3002,4.3002,4.3002,4.3002,4.3002,4.3002,4.3002,4.3102,4.3352,4.3641,4.4003,4.4543,4.5265,4.5807,4.6099,4.6375,4.6614,4.6791,4.6915,4.6964,4.6991,4.714,4.7229,4.7229,4.7379,4.7516,4.7705,4.8041,4.82,4.82,4.82,4.82,4.82,4.82,4.82,4.82,4.82,4.8857,4.9901,4.9901,5.1305,5.34,5.34,5.4147,5.5207,5.5207,5.5207,5.5207,5.5207,5.5207,5.5207,5.5207,5.5207,5.5207,5.5207,5.5207,5.5207,5.5207,5.5207,5.5207,5.5207,5.5207,5.5207,5.5207,5.5207,5.5207,5.5207,5.5207,5.5207,5.5207,5.5207,5.5207,5.5207,5.5461,5.5683,5.5683,5.5925,5.6239,5.6583,5.6628,5.6883,5.7528,5.7575,5.7859,5.8532,5.8577,5.8726,5.9071,5.9099,5.9099,5.9099,5.9099,5.9099,5.9099,5.9099,5.9099,5.9099,5.9099,5.9099,5.9099,5.9099,5.9099,5.9099,5.9099,5.9099,5.9099,5.9099,5.9099,5.9099,5.9099,5.9099,5.9099,5.9099,5.9099,5.9099,4.3002,4.3002,4.3002,4.3002,4.3002,4.3002,4.3002,4.3002,4.3189,4.3727,4.3878,4.4344,4.546,4.5855,4.6229,4.668,4.6776,4.6821,4.6868,4.7335,4.7528,4.7294,4.7558,4.7705,4.7705,4.7762,4.7792,4.7792,4.8055,4.82,4.82,4.82,4.82,4.82,4.82,4.8316,4.8494,4.8494,4.916,5.021,5.021,5.1483,5.34,5.34,5.4147,5.5207,5.5207,5.5207,5.5207,5.5207,5.5207,5.5207,5.5207,5.5207,5.5207,5.5207,5.5207,5.5207,5.5207,5.5207,5.5207,5.5207,5.5207,5.5207,5.5207,5.5207,5.5207,5.5207,5.5207,5.5237,5.5356,5.5371,5.5401,5.5521,5.5985,5.6357,5.6357,5.6778,5.7139,5.7259,5.7363,5.7663,5.8218,5.8264,5.8502,5.9069,5.9099,5.9099,5.9099,5.9099,5.9099,5.9099,5.9099,5.9099,5.9099,5.9099,5.9099,5.9099,5.9099,5.9099,5.9099,5.9099,5.9099,5.9099,5.9099,5.9099,5.9099,5.9099,5.9099,5.9099,5.9099,5.9099,5.9099,5.9099,5.9099,5.9099,4.3002,4.3002,4.3002,4.3002,4.3002,4.3002,4.3002,4.3002,4.3189,4.3727,4.4202,4.4844,4.575,4.633,4.6585,4.6388,4.6629,4.69,4.7129,4.722,4.7383,4.7617,4.7676,4.7705,4.7705,4.7982,4.8128,4.8128,4.8185,4.82,4.82,4.82,4.82,4.82,4.82,4.8755,4.9674,4.9674,5.0364,5.147,5.147,5.2229,5.34,5.34,5.4147,5.5207,5.5207,5.5207,5.5207,5.5207,5.5207,5.5207,5.5207,5.5207,5.5207,5.5207,5.5207,5.5207,5.5207,5.5207,5.5207,5.5207,5.5207,5.5207,5.5207,5.5207,5.5207,5.5207,5.5207,5.5371,5.5968,5.6057,5.6237,5.6763,5.6928,5.6987,5.6987,5.7047,5.7319,5.7904,5.8472,5.8875,5.8964,5.8951,5.9009,5.9099,5.9099,5.9099,5.9099,5.9099,5.9099,5.9099,5.9099,5.9099,5.9099,5.9099,5.9099,5.9099,5.9099,5.9099,5.9099,5.9099,5.9099,5.9099,5.9099,5.9099,5.9099,5.9099,5.9099,5.9099,5.9099,5.9099,5.9099,5.9099,5.9099,5.9099,4.3002,4.3002,4.3002,4.3002,4.3002,4.3044,4.3198,4.3337,4.371,4.4421,4.4991,4.5603,4.632,4.6764,4.7038,4.7081,4.7214,4.7349,4.747,4.7646,4.7808,4.7967,4.7982,4.7982,4.7982,4.8114,4.82,4.82,4.82,4.82,4.82,4.82,4.82,4.82,4.82,4.8479,4.8944,4.8944,5.0013,5.1702,5.1702,5.2793,5.4406,5.4406,5.4743,5.5207,5.5207,5.5207,5.5207,5.5207,5.5207,5.5207,5.5207,5.5207,5.5207,5.5207,5.5207,5.5207,5.5207,5.5207,5.5207,5.5207,5.5476,5.576,5.576,5.6015,5.6164,5.582,5.576,5.594,5.6583,5.6703,5.6793,5.7062,5.7408,5.7649,5.7649,5.7977,5.8336,5.8622,5.8921,5.9099,5.9099,5.9099,5.9099,5.9099,5.9099,5.9099,5.9099,5.9099,5.9099,5.9099,5.9099,5.9099,5.9099,5.9099,5.9099,5.9099,5.9099,5.9099,5.9099,5.9099,5.9099,5.9099,5.9099,5.9099,5.9099,5.9099,5.9099,5.9099,5.9099,5.9099,5.9099,5.9099,5.9099,5.9099]},{"header":{"parameterUnit":"m.s-1","parameterCategory":1,"la1":30.6,"la2":28.766,"lo1":-90.7593,"lo2":-88.6598,"dy":0.0162,"dx":0.0183,"nx":116,"ny":114,"refTime":"2023-04-05T06:00:00:Z","depth":0,"parameterNumber":3,"parameterNumberName":"V-component_of_WINDS"},"data":[0.0,0.0,0.0,0.0,0.0,0.0,0.0,0.0,0.0,0.0,0.0,0.0,0.0,0.0,0.0,0.0,0.0,0.0,0.0,0.0,0.0,0.0,0.0,0.0,0.0,0.0,0.0,0.0,0.0,0.0,0.0,0.0,0.0,0.0,0.0,0.0,0.0,0.0,0.0,0.0,0.0,0.0,0.0,0.0,0.0,0.0,0.0,0.0,0.0,0.0,0.0,0.0,0.0,0.0,0.0,0.0,0.0,0.0,0.0,0.0,0.0,0.0,0.0,0.0,0.0,0.0,0.0,0.0,0.0,0.0,0.0,0.0,0.0,0.0,0.0,0.0,0.0,0.0,0.0,0.0,0.0,0.0,0.0,0.0,0.0,0.0,0.0,0.0,0.0,0.0,0.0,0.0,0.0,0.0,0.0,0.0,0.0,0.0,0.0,0.0,0.0,0.0,0.0,0.0,0.0,0.0,0.0,0.0,0.0,0.0,0.0,0.0,0.0,0.0,0.0,0.0,0.0,0.0,0.0,0.0,0.0,0.0,0.0,0.0,0.0,0.0,0.0,0.0,0.0,0.0,0.0,0.0,0.0,0.0,0.0,0.0,0.0,0.0,0.0,0.0,0.0,0.0,0.0,0.0,0.0,0.0,0.0,0.0,0.0,0.0,0.0,0.0,0.0,0.0,0.0,0.0,0.0,0.0,0.0,0.0,0.0,0.0,0.0,0.0,0.0,0.0,0.0,0.0,0.0,0.0,0.0,0.0,0.0,0.0,0.0,0.0,0.0,0.0,0.0,0.0,0.0,0.0,0.0,0.0,0.0,0.0,0.0,0.0,0.0,0.0,0.0,0.0,0.0,0.0,0.0,0.0,0.0,0.0,0.0,0.0,0.0,0.0,0.0,0.0,0.0,0.0,0.0,0.0,0.0,0.0,0.0,0.0,0.0,0.0,0.0,0.0,0.0,0.0,0.0,0.0,0.0,0.0,0.0,0.0,0.0,0.0,0.0,0.0,0.0,0.0,0.0,0.0,0.0,0.0,0.0,0.0,0.0,0.0,0.0,0.0,0.0,0.0,0.0,0.0,0.0,0.0,0.0,0.0,0.0,0.0,0.0,0.0,0.0,0.0,0.0,0.0,0.0,0.0,0.0,0.0,0.0,0.0,0.0,0.0,0.0,0.0,0.0,0.0,0.0,0.0,0.0,0.0,0.0,0.0,0.0,0.0,0.0,0.0,0.0,0.0,0.0,0.0,0.0,0.0,0.0,0.0,0.0,0.0,0.0,0.0,0.0,0.0,0.0,0.0,0.0,0.0,0.0,0.0,0.0,0.0,0.0,0.0,0.0,0.0,0.0,0.0,0.0,0.0,0.0,0.0,0.0,0.0,0.0,0.0,0.0,0.0,0.0,0.0,0.0,0.0,0.0,0.0,0.0,0.0,0.0,0.0,0.0,0.0,0.0,0.0,0.0,0.0,0.0,0.0,0.0,0.0,0.0,0.0,0.0,0.0,0.0,0.0,0.0,0.0,0.0,0.0,0.0,0.0,0.0,0.0,0.0,0.0,0.0,0.0,0.0,0.0,0.0,0.0,0.0,0.0,0.0,0.0,0.0,0.0,0.0,0.0,0.0,0.0,0.0,0.0,0.0,0.0,0.0,0.0,0.0,0.0,0.0,0.0,0.0,0.0,0.0,0.0,0.0,0.0,0.0,0.0,0.0,0.0,0.0,0.0,0.0,0.0,0.0,0.0,0.0,0.0,0.0,0.0,0.0,0.0,0.0,0.0,0.0,0.0,0.0,0.0,0.0,0.0,0.0,0.0,0.0,0.0,0.0,0.0,0.0,0.0,0.0,0.0,0.0,0.0,0.0,0.0,0.0,0.0,0.0,0.0,0.0,0.0,0.0,0.0,0.0,0.0,0.0,0.0,0.0,0.0,0.0,0.0,0.0,0.0,0.0,0.0,0.0,0.0,0.0,0.0,0.0,0.0,0.0,0.0,0.0,0.0,0.0,0.0,0.0,0.0,0.0,0.0,0.0,0.0,0.0,0.0,0.0,0.0,0.0,0.0,0.0,0.0,0.0,0.0,0.0,0.0,0.0,0.0,0.0,0.0,0.0,0.0,0.0,0.0,0.0,0.0,0.0,0.0,0.0,0.0,0.0,0.0,0.0,0.0,0.0,0.0,0.0,0.0,0.0,0.0,0.0,0.0,0.0,0.0,0.0,0.0,0.0,0.0,0.0,0.0,0.0,0.0,0.0,0.0,0.0,0.0,0.0,0.0,0.0,0.0,0.0,0.0,0.0,0.0,0.0,0.0,0.0,0.0,0.0,0.0,0.0,0.0,0.0,0.0,0.0,0.0,0.0,0.0,0.0,0.0,0.0,0.0,0.0,0.0,0.0,0.0,0.0,0.0,0.0,0.0,0.0,0.0,0.0,0.0,0.0,0.0,0.0,0.0,0.0,0.0,0.0,0.0,0.0,0.0,0.0,0.0,0.0,0.0,0.0,0.0,0.0,0.0,0.0,0.0,0.0,0.0,0.0,0.0,0.0,0.0,0.0,0.0,0.0,0.0,0.0,0.0,0.0,0.0,0.0,0.0,0.0,0.0,0.0,0.0,0.0,0.0,0.0,0.0,0.0,0.0,0.0,0.0,0.0,0.0,0.0,0.0,0.0,0.0,0.0,0.0,0.0,0.0,0.0,0.0,0.0,0.0,0.0,0.0,0.0,0.0,0.0,0.0,0.0,0.0,0.0,0.0,0.0,0.0,0.0,0.0,0.0,0.0,0.0,0.0,0.0,0.0,0.0,0.0,0.0,0.0,0.0,0.0,0.0,0.0,0.0,0.0,0.0,0.0,0.0,0.0,0.0,0.0,0.0,0.0,0.0,0.0,0.0,0.0,0.0,0.0,0.0,0.0,0.0,0.0,0.0,0.0,0.0,0.0,0.0,0.0,0.0,0.0,0.0,0.0,0.0,0.0,0.0,0.0,0.0,0.0,0.0,0.0,0.0,0.0,0.0,0.0,0.0,0.0,0.0,0.0,0.0,0.0,0.0,0.0,0.0,0.0,0.0,0.0,0.0,0.0,0.0,0.0,0.0,0.0,0.0,0.0,0.0,0.0,0.0,0.0,0.0,0.0,0.0,0.0,0.0,0.0,0.0,0.0,0.0,0.0,0.0,0.0,0.0,0.0,0.0,0.0,0.0,0.0,0.0,0.0,0.0,0.0,0.0,0.0,0.0,0.0,0.0,0.0,0.0,0.0,0.0,0.0,0.0,0.0,0.0,0.0,0.0,0.0,0.0,0.0,0.0,0.0,0.0,0.0,0.0,0.0,0.0,0.0,0.0,0.0,0.0,0.0,0.0,0.0,0.0,0.0,0.0,0.0,0.0,0.0,0.0,0.0,0.0,0.0,0.0,0.0,0.0,0.0,0.0,0.0,0.0,0.0,0.0,0.0,0.0,0.0,0.0,0.0,0.0,0.0,0.0,0.0,0.0,0.0,0.0,0.0,0.0,0.0,0.0,0.0,0.0,0.0,0.0,0.0,0.0,0.0,0.0,0.0,0.0,0.0,0.0,0.0,0.0,0.0,0.0,0.0,0.0,0.0,0.0,0.0,0.0,0.0,0.0,0.0,0.0,0.0,0.0,0.0,0.0,0.0,0.0,0.0,0.0,0.0,0.0,0.0,0.0,0.0,0.0,0.0,0.0,0.0,0.0,0.0,0.0,0.0,0.0,0.0,0.0,0.0,0.0,0.0,0.0,0.0,0.0,0.0,0.0,0.0,0.0,0.0,0.0,0.0,0.0,0.0,0.0,0.0,0.0,0.0,0.0,0.0,0.0,0.0,0.0,0.0,0.0,0.0,0.0,0.0,0.0,0.0,0.0,0.0,0.0,0.0,0.0,0.0,0.0,0.0,0.0,0.0,0.0,0.0,0.0,0.0,0.0,0.0,0.0,0.0,0.0,0.0,0.0,0.0,0.0,0.0,0.0,0.0,0.0,0.0,0.0,0.0,0.0,0.0,0.0,0.0,0.0,0.0,0.0,0.0,0.0,0.0,0.0,0.0,0.0,0.0,0.0,0.0,0.0,0.0,0.0,0.0,0.0,0.0,0.0,0.0,0.0,0.0,0.0,0.0,0.0,0.0,0.0,0.0,0.0,0.0,0.0,0.0,0.0,0.0,0.0,0.0,0.0,0.0,0.0,0.0,0.0,0.0,0.0,0.0,0.0,0.0,0.0,0.0,0.0,0.0,0.0,0.0,0.0,0.0,0.0,0.0,0.0,0.0,0.0,0.0,0.0,0.0,0.0,0.0,0.0,0.0,0.0,0.0,0.0,0.0,0.0,0.0,0.0,0.0,0.0,0.0,0.0,0.0,0.0,0.0,0.0,0.0,0.0,0.0,0.0,0.0,0.0,0.0,0.0,0.0,0.0,0.0,0.0,0.0,0.0,0.0,0.0,0.0,0.0,0.0,0.0,0.0,0.0,0.0,0.0,0.0,0.0,0.0,0.0,0.0,0.0,0.0,0.0,0.0,0.0,0.0,0.0,0.0,0.0,0.0,0.0,0.0,0.0,0.0,0.0,0.0,0.0,0.0,0.0,0.0,0.0,0.0,0.0,0.0,0.0,0.0,0.0,0.0,0.0,0.0,0.0,0.0,0.0,0.0,0.0,0.0,0.0,0.0,0.0,0.0,0.0,0.0,0.0,0.0,0.0,0.0,0.0,0.0,0.0,0.0,0.0,0.0,0.0,0.0,0.0,0.0,0.0,0.0,0.0,0.0,0.0,0.0,0.0,0.0,0.0,0.0,0.0,0.0,0.0,0.0,0.0,0.0,0.0,0.0,0.0,0.0,0.0,0.0,0.0,0.0,0.0,0.0,0.0,0.0,0.0,0.0,0.0,0.0,0.0,0.0,0.0,0.0,0.0,0.0,0.0,0.0,0.0,0.0,0.0,0.0,0.0,0.0,0.0,0.0,0.0,0.0,0.0,0.0,0.0,0.0,0.0,0.0,0.0,0.0,0.0,0.0,0.0,0.0,0.0,0.0,0.0,0.0,0.0,0.0,0.0,0.0,0.0,0.0,0.0,0.0,0.0,0.0,0.0,0.0,0.0,0.0,0.0,0.0,0.0,0.0,0.0,0.0,0.0,0.0,0.0,0.0,0.0,0.0,0.0,0.0,0.0,0.0,0.0,0.0,0.0,0.0,0.0,0.0,0.0,0.0,0.0,0.0,0.0,0.0,0.0,0.0,0.0,0.0,0.0,0.0,0.0,0.0,0.0,0.0,0.0,0.0,0.0,0.0,0.0,0.0,0.0,0.0,0.0,0.0,0.0,0.0,0.0,0.0,0.0,0.0,0.0,0.0,0.0,0.0,0.0,0.0,0.0,0.0,0.0,0.0,0.0,0.0,0.0,0.0,0.0,0.0,0.0,0.0,0.0,0.0,0.0,0.0,0.0,0.0,0.0,0.0,0.0,0.0,0.0,0.0,0.0,0.0,0.0,0.0,0.0,0.0,0.0,0.0,0.0,0.0,0.0,0.0,0.0,0.0,0.0,0.0,0.0,0.0,0.0,0.0,0.0,0.0,0.0,0.0,0.0,0.0,0.0,0.0,0.0,0.0,0.0,0.0,0.0,0.0,0.0,0.0,0.0,0.0,0.0,0.0,0.0,0.0,0.0,0.0,0.0,0.0,0.0,0.0,0.0,0.0,0.0,0.0,0.0,0.0,0.0,0.0,0.0,0.0,0.0,0.0,0.0,0.0,0.0,0.0,0.0,0.0,0.0,0.0,0.0,0.0,0.0,0.0,0.0,0.0,0.0,0.0,0.0,0.0,0.0,0.0,0.0,0.0,0.0,0.0,0.0,0.0,0.0,0.0,0.0,0.0,0.0,0.0,0.0,0.0,0.0,0.0,0.0,0.0,0.0,0.0,0.0,0.0,0.0,0.0,0.0,0.0,0.0,0.0,0.0,0.0,0.0,0.0,0.0,0.0,0.0,0.0,0.0,0.0,0.0,0.0,0.0,0.0,0.0,0.0,0.0,0.0,0.0,0.0,0.0,0.0,0.0,0.0,0.0,0.0,0.0,0.0,0.0,0.0,0.0,0.0,2.6368,2.4571,0.0,0.0,0.0,0.0,0.0,0.0,0.0,0.0,0.0,0.0,0.0,0.0,0.0,0.0,0.0,0.0,0.0,0.0,0.0,0.0,0.0,0.0,0.0,0.0,0.0,0.0,0.0,0.0,0.0,0.0,0.0,0.0,0.0,0.0,0.0,0.0,0.0,2.1252,2.2854,2.4614,2.6482,2.656,2.5969,2.4802,0.0,0.0,0.0,0.0,0.0,0.0,0.0,0.0,0.0,0.0,0.0,0.0,0.0,0.0,0.0,0.0,0.0,0.0,0.0,0.0,0.0,0.0,0.0,0.0,0.0,0.0,0.0,0.0,0.0,0.0,0.0,0.0,0.0,0.0,0.0,0.0,0.0,0.0,0.0,0.0,0.0,0.0,0.0,0.0,0.0,0.0,0.0,0.0,0.0,0.0,0.0,0.0,0.0,0.0,0.0,0.0,0.0,0.0,0.0,0.0,0.0,0.0,0.0,0.0,0.0,0.0,0.0,0.0,0.0,0.0,3.027,2.8379,0.0,0.0,0.0,0.0,0.0,0.0,0.0,0.0,0.0,0.0,0.0,0.0,0.0,0.0,0.0,0.0,0.0,0.0,0.0,0.0,0.0,0.0,0.0,0.0,1.7204,1.7412,1.7187,1.7229,0.0,0.0,0.0,0.0,0.0,0.0,0.0,1.9245,2.0149,2.1903,2.4615,2.7257,2.9769,2.9659,2.8835,2.741,2.6502,0.0,0.0,0.0,0.0,0.0,0.0,0.0,0.0,0.0,0.0,0.0,0.0,0.0,0.0,0.0,0.0,0.0,0.0,0.0,0.0,0.0,0.0,0.0,0.0,0.0,0.0,0.0,0.0,0.0,0.0,0.0,0.0,0.0,0.0,0.0,0.0,0.0,0.0,0.0,0.0,0.0,0.0,0.0,0.0,0.0,0.0,0.0,0.0,0.0,0.0,0.0,0.0,0.0,0.0,0.0,0.0,0.0,0.0,0.0,0.0,0.0,0.0,0.0,3.3867,3.4358,3.4358,3.4946,3.5253,3.5303,3.5534,3.3785,3.0712,2.986,0.0,0.0,0.0,0.0,0.0,0.0,0.0,0.0,0.0,0.0,0.0,0.0,0.0,0.0,0.0,0.0,0.0,0.0,0.0,0.0,0.0,1.7854,1.7916,1.6828,1.7526,1.805,0.0,0.0,0.0,0.0,0.0,0.0,2.0617,1.9478,2.0786,2.4676,2.7531,2.9457,3.0474,3.0451,3.0328,3.0038,2.8719,2.7432,2.6252,0.0,0.0,0.0,0.0,0.0,0.0,0.0,0.0,0.0,0.0,0.0,0.0,0.0,0.0,0.0,0.0,0.0,0.0,0.0,0.0,0.0,0.0,0.0,0.0,0.0,0.0,0.0,0.0,0.0,0.0,0.0,0.0,0.0,0.0,0.0,0.0,0.0,0.0,0.0,0.0,0.0,3.0378,2.848,0.0,0.0,0.0,0.0,0.0,0.0,0.0,0.0,0.0,0.0,0.0,0.0,0.0,3.2371,3.2922,3.3287,3.3483,3.3506,3.5809,3.6905,3.7017,3.9934,4.1266,4.1307,4.1834,0.0,3.3265,3.0302,0.0,0.0,0.0,0.0,0.0,0.0,0.0,0.0,0.0,0.0,0.0,0.0,0.0,0.0,0.0,0.0,0.0,0.0,0.0,0.0,0.0,1.9827,2.0627,2.0227,2.1381,2.1944,2.1482,2.2009,0.0,0.0,0.0,2.1046,2.1016,2.1696,2.4224,2.8638,3.0119,3.1595,3.3011,3.3011,3.3011,3.2997,3.2371,3.0657,2.8134,2.6448,0.0,0.0,0.0,0.0,0.0,0.0,0.0,0.0,0.0,0.0,0.0,0.0,0.0,0.0,0.0,0.0,0.0,0.0,0.0,0.0,0.0,0.0,0.0,0.0,0.0,0.0,0.0,0.0,0.0,0.0,0.0,0.0,0.0,0.0,0.0,0.0,0.0,0.0,0.0,2.8625,2.933,2.8177,2.8747,2.8476,0.0,0.0,0.0,0.0,0.0,0.0,0.0,0.0,0.0,3.1468,3.414,3.5636,3.5778,3.7612,3.8549,3.8563,4.0023,4.0722,4.0767,4.2242,4.291,4.2925,4.319,4.1752,3.899,3.5805,3.3721,3.2364,0.0,0.0,0.0,0.0,2.9678,2.9624,0.0,0.0,0.0,0.0,0.0,0.0,0.0,0.0,0.0,0.0,0.0,0.0,2.0134,2.2176,2.3587,2.3639,2.4915,2.5259,2.4153,2.4255,2.3619,2.1928,2.1684,2.1499,2.133,2.4146,2.7496,3.13,3.2261,3.348,3.4902,3.4951,3.4951,3.4902,3.5072,3.3382,3.0279,2.8207,2.7016,2.6281,0.0,0.0,0.0,0.0,0.0,0.0,0.0,0.0,0.0,0.0,0.0,0.0,0.0,0.0,0.0,0.0,0.0,0.0,0.0,0.0,0.0,0.0,0.0,0.0,0.0,0.0,0.0,0.0,0.0,0.0,0.0,0.0,0.0,0.0,0.0,0.0,0.0,2.8999,2.9737,2.8587,2.9324,2.9355,0.0,0.0,0.0,0.0,0.0,0.0,3.0217,3.2327,3.391,3.4808,3.7535,3.8956,3.8913,4.1379,4.2631,4.2646,4.3085,4.33,4.33,4.33,4.33,4.33,4.33,4.33,4.3076,4.0157,3.7727,3.5736,3.4744,3.4223,3.4005,3.3796,3.3644,3.3584,0.0,0.0,0.0,0.0,0.0,0.0,0.0,0.0,0.0,0.0,0.0,2.2484,2.1854,2.4591,2.6183,2.5439,2.6437,2.6308,2.4412,2.494,2.4401,2.2354,2.1962,2.1844,2.1941,2.6198,2.9342,3.13,3.3807,3.4986,3.4902,3.5106,3.5082,3.4939,3.556,3.4646,3.2594,3.2015,3.0925,2.933,2.6437,0.0,0.0,0.0,0.0,0.0,0.0,0.0,0.0,0.0,0.0,0.0,0.0,0.0,0.0,0.0,0.0,0.0,0.0,0.0,0.0,0.0,0.0,0.0,0.0,0.0,0.0,0.0,0.0,0.0,0.0,0.0,0.0,0.0,0.0,0.0,0.0,0.0,0.0,3.1163,3.2232,0.0,0.0,0.0,0.0,3.3795,3.3043,3.2963,3.4152,3.619,3.7573,3.8139,4.0761,4.2447,4.3,4.318,4.3255,4.3255,4.33,4.33,4.33,4.33,4.33,4.33,4.33,4.33,4.3105,4.0455,3.9063,3.8338,3.5778,3.4834,3.4907,3.4639,3.4893,3.5302,0.0,0.0,0.0,0.0,0.0,0.0,0.0,0.0,1.8703,1.9316,2.1691,2.3424,2.3617,2.693,2.9176,2.9231,3.0758,3.1037,2.9489,2.765,2.6021,2.4674,2.244,2.2822,2.6241,2.9554,3.2144,3.3996,3.4944,3.5359,3.5309,3.58,3.5993,3.5965,3.6582,3.6452,3.5614,3.3517,3.2552,3.2218,2.9578,2.7933,0.0,0.0,0.0,0.0,0.0,0.0,0.0,0.0,0.0,0.0,0.0,0.0,0.0,0.0,0.0,0.0,0.0,0.0,0.0,0.0,0.0,0.0,0.0,0.0,0.0,0.0,0.0,0.0,0.0,0.0,0.0,0.0,0.0,0.0,0.0,0.0,0.0,3.3314,3.4528,0.0,3.2811,3.2338,3.2641,3.383,3.5034,3.6103,3.6962,3.9345,4.0951,4.1545,4.2482,4.307,4.33,4.33,4.33,4.33,4.33,4.33,4.33,4.33,4.33,4.33,4.33,4.33,4.324,4.2298,4.1832,4.1593,4.0641,4.0297,4.0306,4.0091,4.0143,4.0261,0.0,0.0,0.0,0.0,0.0,0.0,0.0,0.0,1.9686,2.1091,2.3419,2.5366,2.6464,2.9744,3.1989,3.2355,3.3762,3.3598,3.1158,2.8951,2.6768,2.4582,2.3023,2.4573,2.9601,3.145,3.3389,3.5496,3.5496,3.5624,3.5848,3.6291,3.6605,3.6829,3.7464,3.7749,3.7612,3.586,3.5225,3.521,3.2941,3.0744,2.8793,0.0,0.0,0.0,0.0,0.0,0.0,0.0,0.0,0.0,0.0,0.0,0.0,0.0,0.0,0.0,0.0,0.0,0.0,0.0,0.0,0.0,0.0,0.0,0.0,0.0,0.0,0.0,0.0,0.0,0.0,0.0,0.0,0.0,0.0,3.3267,3.4766,3.4651,3.6117,3.6668,3.547,3.5238,3.5545,3.6499,3.8124,3.9364,4.0023,4.1738,4.2895,4.33,4.33,4.33,4.33,4.33,4.33,4.33,4.33,4.33,4.33,4.33,4.33,4.33,4.33,4.33,4.33,4.33,4.33,4.33,4.33,4.33,4.328,4.3145,4.3095,4.3046,0.0,0.0,0.0,0.0,0.0,0.0,0.0,1.9696,2.0964,2.3292,2.5947,2.8357,3.0313,3.2916,3.4511,3.4526,3.5123,3.3552,2.8996,2.857,2.6467,2.1909,2.3832,2.7109,3.1593,3.1773,3.3029,3.5496,3.5526,3.5863,3.6508,3.6538,3.6866,3.7456,3.8123,3.8431,3.8476,3.9116,3.9026,3.8275,3.6457,3.4453,3.228,0.0,0.0,0.0,0.0,0.0,0.0,0.0,0.0,0.0,0.0,0.0,0.0,0.0,0.0,0.0,0.0,0.0,0.0,0.0,0.0,0.0,0.0,0.0,0.0,0.0,0.0,0.0,0.0,0.0,0.0,0.0,0.0,0.0,3.0814,3.4584,3.6847,3.5294,3.7118,3.8596,3.8897,3.8679,3.9607,4.2221,4.2425,4.269,4.327,4.33,4.33,4.33,4.33,4.33,4.33,4.33,4.33,4.33,4.33,4.33,4.33,4.33,4.33,4.33,4.33,4.33,4.33,4.33,4.33,4.33,4.33,4.33,4.33,4.33,4.33,4.326,0.0,0.0,0.0,0.0,0.0,0.0,0.0,2.01,2.1272,2.333,2.5947,2.8537,3.0965,3.3185,3.4697,3.5183,3.5385,3.4127,3.0913,2.8026,2.5016,2.1849,2.6903,3.0341,3.1531,3.347,3.4795,3.5496,3.5991,3.6321,3.6515,3.7443,3.7967,3.8153,3.8841,3.9131,3.9146,3.9316,3.9287,3.9086,3.855,3.6883,3.4585,0.0,0.0,0.0,0.0,0.0,0.0,0.0,0.0,0.0,0.0,0.0,0.0,0.0,0.0,0.0,0.0,0.0,0.0,0.0,0.0,0.0,0.0,0.0,0.0,0.0,0.0,0.0,0.0,0.0,0.0,0.0,3.4187,3.6267,3.5609,3.7015,3.8502,3.9481,4.0177,4.0797,4.1351,4.134,4.1792,4.296,4.305,4.3115,4.33,4.33,4.33,4.33,4.33,4.33,4.33,4.33,4.33,4.33,4.33,4.33,4.33,4.33,4.33,4.33,4.33,4.33,4.33,4.33,4.33,4.33,4.33,4.33,4.33,4.33,4.321,4.3095,0.0,0.0,0.0,0.0,0.0,0.0,0.0,2.0872,2.2228,2.5285,2.7042,2.9332,3.2796,3.4218,3.5078,3.5474,3.4471,3.2587,2.9641,2.6267,2.4807,2.5767,2.9545,3.2107,3.3147,3.4703,3.5639,3.5923,3.6306,3.6769,3.7317,3.8056,3.855,3.8841,3.9236,3.9406,3.9406,3.9406,3.9406,3.9406,3.9406,3.8009,3.5902,3.5677,3.4336,3.2524,3.2368,3.2541,3.2582,3.1043,0.0,0.0,0.0,0.0,0.0,0.0,0.0,0.0,0.0,0.0,0.0,0.0,0.0,0.0,0.0,0.0,0.0,0.0,0.0,0.0,0.0,0.0,0.0,0.0,3.6349,3.8975,3.9433,3.9831,4.0514,4.1682,4.2037,4.2342,4.2741,4.2785,4.2925,4.327,4.33,4.33,4.33,4.33,4.33,4.33,4.33,4.33,4.33,4.33,4.33,4.33,4.33,4.33,4.33,4.33,4.33,4.33,4.33,4.33,4.33,4.33,4.33,0.0,0.0,0.0,0.0,0.0,4.323,4.3135,0.0,0.0,0.0,0.0,0.0,0.0,0.0,2.1759,2.3456,2.8008,2.8673,3.0447,3.5003,3.5496,3.5496,3.5496,3.3058,3.0119,2.6824,2.4773,2.5989,3.1167,3.175,3.3058,3.5451,3.5571,3.5893,3.6508,3.6635,3.7293,3.8401,3.8476,3.8841,3.9406,3.9406,3.9406,3.9406,3.9406,3.9406,3.9406,3.9406,3.8368,3.6763,3.6238,3.5327,3.4277,3.3796,3.3555,3.3374,3.2884,0.0,0.0,0.0,0.0,0.0,0.0,0.0,0.0,0.0,0.0,0.0,0.0,0.0,0.0,0.0,0.0,0.0,0.0,0.0,0.0,0.0,0.0,0.0,0.0,3.7985,4.0462,4.2251,4.2506,4.2506,4.2506,4.296,4.33,4.33,4.33,4.33,4.33,4.33,4.33,4.33,4.33,0.0,0.0,0.0,4.33,4.33,4.33,4.33,4.33,4.33,4.33,4.33,4.33,4.33,4.33,4.33,4.33,4.33,4.33,4.33,4.33,4.33,4.33,4.33,4.33,4.33,4.33,0.0,0.0,0.0,0.0,0.0,0.0,0.0,2.2154,2.3965,2.8068,2.9077,3.0963,3.5047,3.5496,3.5496,3.5496,3.3058,3.0119,2.6824,2.8609,3.0067,3.0665,3.3275,3.4973,3.5481,3.6036,3.6365,3.6508,3.7533,3.8161,3.8416,3.8952,3.9272,3.9406,3.9406,3.9406,3.9406,3.9406,3.9406,3.9406,3.9406,3.9167,3.8832,3.8715,3.8505,3.8275,3.8175,3.8121,3.7873,3.6338,3.57,3.5083,3.2604,3.0848,0.0,0.0,0.0,0.0,0.0,0.0,0.0,0.0,0.0,0.0,0.0,0.0,0.0,0.0,0.0,0.0,0.0,0.0,0.0,3.6246,3.9819,4.2672,4.307,4.313,4.313,4.313,4.3225,4.33,4.33,4.33,4.33,4.33,4.33,4.33,4.33,4.33,4.33,4.33,4.33,4.33,4.33,4.33,4.33,4.33,0.0,0.0,4.33,4.33,4.33,4.33,4.33,4.33,4.33,4.33,4.33,4.33,4.33,4.33,4.33,4.33,4.33,4.33,0.0,0.0,0.0,0.0,0.0,0.0,0.0,2.2984,2.4219,2.7207,2.7778,2.9058,3.2109,3.208,3.173,3.1417,2.9619,2.814,2.73,2.9595,3.1886,3.3871,3.4946,3.5793,3.6435,3.6479,3.6808,3.7443,3.8086,3.8565,3.8907,3.9242,3.9406,3.9406,3.9406,3.9406,3.9406,3.9406,3.9406,3.9406,3.9406,3.9406,3.9406,3.9406,3.9406,3.9406,3.9406,3.9406,3.9266,3.8351,3.7789,3.7068,3.4884,3.3445,3.2106,0.0,0.0,0.0,0.0,0.0,0.0,0.0,0.0,0.0,0.0,0.0,0.0,0.0,0.0,3.2421,3.3333,0.0,3.8446,3.8446,4.1186,4.33,4.33,4.33,4.33,4.33,4.33,4.33,4.33,4.33,4.33,4.33,4.33,4.33,4.33,4.33,4.33,4.33,4.33,4.33,4.33,4.33,4.33,4.33,4.33,4.33,4.33,4.33,4.33,4.33,4.33,4.33,4.33,4.33,4.33,4.33,4.33,4.33,4.33,4.33,4.33,4.33,0.0,0.0,0.0,0.0,0.0,0.0,0.0,2.3674,2.4318,2.6345,2.6389,2.7064,2.9199,2.8835,2.795,2.6758,2.6641,2.6945,2.7653,3.0304,3.3394,3.6886,3.6412,3.6438,3.7213,3.7134,3.7521,3.8401,3.8535,3.8871,3.9406,3.9406,3.9406,3.9406,3.9406,3.9406,3.9406,3.9406,3.9406,3.9406,3.9406,3.9406,3.9406,3.9406,3.9406,3.9406,3.9406,3.9077,3.8718,3.9227,3.8633,3.7516,3.6564,3.5802,3.453,3.0695,3.0984,0.0,0.0,0.0,0.0,0.0,0.0,0.0,0.0,3.2996,3.348,3.6139,3.6289,3.6243,3.7229,3.9041,4.0397,4.0397,4.2038,4.33,4.33,4.33,4.33,4.33,4.33,4.33,4.33,4.33,4.33,4.33,4.33,4.33,4.33,4.33,4.33,4.33,4.33,4.33,4.33,4.33,4.33,4.33,4.33,4.33,4.33,4.33,4.33,4.33,4.33,4.33,4.3314,4.3434,4.3494,4.3509,4.3628,4.3698,4.3673,4.3539,4.3494,4.3509,0.0,0.0,0.0,0.0,0.0,0.0,0.0,0.0,2.4318,2.6345,2.6462,2.7191,2.9342,2.9396,2.7942,2.4653,2.8265,2.9681,2.7181,3.3052,3.6349,3.5742,3.7297,3.7662,3.6612,3.8273,3.8909,3.8401,3.8996,3.9331,3.9406,3.9406,3.9406,3.9406,3.9406,3.9406,3.9406,3.9406,3.9406,3.9406,3.9406,3.9406,3.9406,3.9406,3.9406,3.9406,3.9406,3.7911,3.6289,3.8614,3.7799,3.6047,3.7481,3.6842,3.5081,3.2624,3.0656,2.9005,2.7906,2.9669,3.1795,3.1645,3.3851,3.6051,0.0,3.6412,3.6864,3.7223,3.7248,3.7238,3.7372,3.9041,4.0397,4.0397,4.2038,4.33,4.33,4.33,4.33,4.33,4.33,4.33,4.33,4.33,4.33,4.33,4.33,4.33,4.33,4.33,4.33,4.33,4.33,4.33,4.33,4.33,4.33,4.33,4.33,4.33,4.33,4.33,4.33,4.33,4.33,4.33,4.3359,4.3938,4.4202,4.4262,4.484,4.508,4.5005,4.4411,4.4202,4.4267,0.0,0.0,0.0,0.0,0.0,0.0,0.0,0.0,0.0,2.4854,2.4749,2.4966,2.5935,2.4918,2.3631,2.2314,2.6087,2.8566,2.8588,3.3413,3.6546,3.7109,3.7257,3.7412,3.7596,3.8422,3.8896,3.8981,3.9257,3.9406,3.9406,3.9406,3.9406,3.9406,3.9406,3.9406,3.9406,3.9406,3.9406,3.9406,3.9406,3.9406,3.9406,3.9406,3.9406,3.9197,3.768,3.6439,0.0,3.6768,3.6394,3.5902,3.818,3.7627,3.5635,3.3146,3.1981,3.1842,3.3453,3.4229,3.4953,3.6471,3.7914,3.8937,3.8937,3.9049,3.946,4.0603,4.0833,4.0833,4.0833,4.1515,4.2083,4.2083,4.2761,4.33,4.33,4.33,4.33,4.33,4.33,4.33,4.33,4.33,4.33,4.33,4.33,4.33,4.33,4.33,4.33,4.33,4.33,4.3494,4.3878,4.3878,4.4072,4.4456,4.4456,4.4456,4.4456,4.4456,4.4456,4.4456,4.4456,4.4456,4.4486,4.4766,4.4875,4.4915,4.5185,4.53,4.527,4.499,4.4875,4.493,0.0,0.0,0.0,0.0,0.0,0.0,0.0,0.0,0.0,0.0,2.3522,2.3337,2.3258,2.1589,2.0626,2.095,2.4196,2.7098,2.9149,3.2988,3.5983,3.7725,3.748,3.7644,3.8376,3.878,3.9122,3.9406,3.9406,3.9406,3.9406,3.9406,3.9406,3.9406,3.9406,3.9406,3.9406,3.9406,3.9406,3.9406,3.9406,3.9406,3.9406,3.9406,3.8958,3.8075,3.6202,3.5034,3.4374,3.4234,3.38,3.3784,3.64,3.6379,3.4944,3.2624,3.1913,3.2557,3.5654,3.6473,3.7071,3.9694,4.0874,4.1415,4.1415,4.1308,4.1599,4.3015,4.33,4.33,4.33,4.33,4.33,4.33,4.33,4.33,4.33,4.33,4.33,4.33,4.33,4.33,4.33,4.33,4.33,4.33,4.33,4.33,4.33,4.33,4.3389,4.3569,4.3569,4.3908,4.4576,4.4576,4.4815,4.53,4.53,4.53,4.53,4.53,4.53,4.53,4.53,4.53,4.5304,4.5499,4.5589,4.5589,4.5783,4.5843,4.5843,4.5843,4.5738,4.5603,0.0,0.0,0.0,0.0,0.0,0.0,0.0,0.0,0.0,0.0,0.0,0.0,0.0,2.1465,2.0823,2.1166,2.3855,2.6212,2.7853,3.2013,3.5061,3.6485,3.8328,3.9035,3.8417,3.9738,4.0104,3.9406,3.9406,3.9406,3.9406,3.9406,3.9406,3.9406,3.9406,3.9406,3.9406,3.9406,3.9406,3.9406,3.9406,3.9406,3.9406,3.9406,3.7821,3.5617,3.5602,3.389,3.154,3.1023,2.9507,2.8304,3.0927,3.2146,3.2347,3.0964,2.9234,2.8357,3.0994,3.3574,3.6171,3.8787,4.135,4.322,4.322,4.321,4.324,4.33,4.33,4.33,4.33,4.33,4.33,4.33,4.33,4.33,4.33,4.33,4.33,4.33,4.33,4.33,4.33,4.33,4.33,4.33,4.33,4.33,4.33,4.33,4.3599,4.4262,4.4267,4.4591,4.5259,4.5274,4.5285,4.53,4.53,4.53,4.53,4.53,4.53,4.53,4.53,4.53,4.5349,4.6012,4.6271,4.633,4.6984,4.7249,4.7249,4.7249,4.6835,4.636,0.0,0.0,0.0,0.0,0.0,0.0,0.0,0.0,0.0,0.0,0.0,0.0,0.0,0.0,0.0,0.0,2.4093,2.5512,2.6936,3.0867,3.3692,3.4926,3.6967,3.8116,3.8198,3.9228,3.9646,3.9406,3.9406,3.9406,3.9406,3.9406,3.9406,3.9406,3.9406,3.9406,3.9406,3.9406,3.9406,3.9406,3.9406,3.9406,3.9221,3.7516,3.6294,3.5073,0.0,2.9597,2.8218,2.8045,2.7514,2.7467,3.0546,3.077,2.9647,2.8314,2.8673,3.02,3.3312,3.6178,3.8939,4.1592,4.2905,4.3567,4.3567,4.3433,4.33,4.33,4.1924,4.0713,4.0713,4.0713,4.0713,4.0713,4.2163,4.33,4.33,4.33,4.33,4.33,4.33,4.33,4.33,4.33,4.33,4.33,4.33,4.3494,4.3938,4.3967,4.4267,4.4945,4.496,4.5289,4.5967,4.5956,4.6191,4.6636,4.6636,4.6636,4.6636,4.6636,4.6636,4.6636,4.6636,4.6636,4.6636,4.6865,4.6969,4.6984,4.7209,4.7309,4.7309,4.7309,4.7164,4.6999,0.0,0.0,0.0,0.0,0.0,0.0,0.0,0.0,0.0,0.0,0.0,0.0,0.0,0.0,0.0,0.0,0.0,2.4664,2.6252,2.8593,3.0782,3.2691,3.4155,3.5192,3.5732,3.628,3.6571,3.6571,3.7537,3.8009,3.803,3.8958,3.9406,3.9406,3.9406,3.9406,3.9406,3.9406,3.8871,3.8038,3.8038,3.7503,3.6542,3.4901,3.366,0.0,2.9148,2.6959,2.5571,2.5386,2.5565,2.6252,2.8371,2.8669,2.8261,2.8331,2.9536,3.1734,3.5787,3.821,4.0229,4.2896,4.3557,4.3557,4.3557,4.3423,4.33,4.33,4.1221,3.9406,3.9406,3.8629,3.8009,3.8009,3.9421,4.0833,4.1774,4.1909,4.2253,4.3195,4.33,4.33,4.33,4.3509,4.3658,4.3658,4.3658,4.3953,4.4621,4.4651,4.495,4.5648,4.5663,4.5982,4.6644,4.6659,4.6879,4.7309,4.7309,4.7309,4.7309,4.7309,4.7309,4.7309,4.7309,4.7309,4.7309,4.7309,4.7309,4.7309,4.7309,4.7309,4.7309,4.7309,4.7309,4.7309,0.0,0.0,0.0,0.0,0.0,0.0,0.0,0.0,0.0,0.0,0.0,0.0,0.0,0.0,0.0,0.0,0.0,0.0,2.5617,2.5497,2.6739,2.9882,3.0322,3.0786,3.1445,3.1482,3.1496,3.1503,3.4052,3.5295,3.5371,3.7845,3.8996,3.902,3.902,3.902,3.902,3.902,3.7629,3.541,3.541,3.3992,3.1888,3.1752,3.013,2.7882,2.7726,2.6015,2.3773,2.3258,2.3867,2.4883,2.5002,2.6378,2.8402,3.0927,3.175,3.2968,3.803,3.9496,4.0199,4.2687,4.33,4.33,4.33,4.33,4.326,4.3135,4.1012,3.9167,3.9017,3.7073,3.5496,3.5496,3.5721,3.6768,3.9257,3.9601,4.0519,4.3015,4.33,4.33,4.33,4.3908,4.4322,4.4352,4.4352,4.4636,4.5319,4.5349,4.5663,4.633,4.6345,4.6659,4.7283,4.7309,4.7309,4.7309,4.7309,4.7309,4.7309,4.7309,4.7309,4.7309,4.7309,4.7309,4.7309,4.7309,4.7309,4.7309,4.7309,4.7309,4.7309,4.7309,4.7309,4.7309,0.0,0.0,0.0,0.0,0.0,0.0,0.0,0.0,0.0,0.0,0.0,0.0,0.0,0.0,0.0,0.0,0.0,0.0,2.363,2.5113,2.643,2.7466,2.9297,3.0516,3.1043,3.1198,3.1402,3.1646,3.2227,3.2624,3.2831,3.3298,3.3621,3.3804,3.3713,3.372,3.3804,3.3804,3.3434,3.2837,3.2837,3.2459,3.1699,2.9798,2.8585,2.7719,2.63,2.5258,2.4508,2.4267,2.603,2.8673,3.0612,3.1577,3.222,3.3387,3.5115,3.7037,3.8898,4.0818,4.2462,4.3135,4.33,4.33,4.33,4.33,4.2746,4.0797,3.8315,3.5877,3.3872,3.4606,3.5496,3.5496,3.8778,4.1535,4.2208,4.2313,4.2552,4.3225,4.33,4.33,4.33,4.3908,4.4516,4.5005,4.505,4.5349,4.6001,4.6057,4.6356,4.7029,4.7044,4.7119,4.7309,4.7309,4.7309,4.7309,4.7309,4.7309,4.7309,4.7309,4.7309,4.7309,4.7309,4.7309,4.7309,4.7309,4.7309,4.7309,4.7309,4.7309,4.7309,4.7309,4.7309,4.7309,0.0,0.0,0.0,0.0,0.0,0.0,0.0,0.0,0.0,0.0,0.0,0.0,0.0,0.0,0.0,0.0,0.0,0.0,0.0,2.4174,2.4805,2.5221,2.6371,2.7197,2.7638,2.7987,2.8191,2.823,2.9567,3.015,3.0043,3.1091,3.1675,3.1803,3.1796,3.184,3.1896,3.1896,3.125,0.0,0.0,2.9568,2.8405,2.6973,2.6525,2.6564,2.5786,2.6453,2.7907,2.9011,3.0432,3.2055,3.3821,3.4382,3.4681,3.6193,3.7689,3.9161,4.0707,4.2178,4.33,4.33,4.33,4.3,4.1849,4.158,4.0857,3.8225,3.5593,3.3192,3.1383,3.2534,3.3649,3.3357,3.6998,4.0289,4.1431,4.158,4.2014,4.3165,4.33,4.33,4.33,4.4162,4.489,4.5274,4.5563,4.6027,4.6689,4.6745,4.6909,4.7294,4.7309,4.7309,4.7309,4.7309,4.7309,4.7309,4.7309,4.7309,4.7309,4.7309,4.7309,4.7309,0.0,4.7309,4.7309,4.7309,4.7309,4.7309,4.7309,4.7309,4.7309,4.7309,4.7309,4.7309,0.0,0.0,0.0,0.0,0.0,0.0,0.0,0.0,0.0,0.0,2.5265,0.0,0.0,0.0,0.0,0.0,0.0,0.0,0.0,0.0,2.309,2.358,2.3219,2.3175,2.3513,2.3883,2.3946,2.3716,2.6476,2.759,2.7145,2.9506,3.065,3.0725,3.0837,3.0878,3.0891,3.0891,2.9661,2.7707,2.7707,2.6434,2.4521,0.0,2.4856,2.542,2.6026,2.8557,3.2034,3.4629,3.534,3.5311,3.6244,3.6543,3.6977,3.9257,3.993,4.0414,4.2687,4.33,4.33,4.33,4.33,4.2612,4.0004,3.9406,3.8539,3.5466,3.2991,3.1069,3.0036,3.0613,3.1204,3.1046,3.3754,3.6827,3.9541,3.993,4.0758,4.303,4.33,4.33,4.33,4.4516,4.53,4.53,4.5997,4.67,4.7268,4.7309,4.7309,4.7309,4.7309,4.7309,4.7309,4.7309,4.7309,4.7309,4.7309,4.7309,4.7309,4.7309,4.7309,4.7309,4.7309,4.7309,4.7309,4.7309,4.7309,4.7309,4.7309,4.7309,4.7309,4.7309,4.7309,4.7309,0.0,0.0,0.0,0.0,0.0,0.0,0.0,0.0,0.0,0.0,2.5773,2.5814,0.0,0.0,0.0,0.0,0.0,0.0,0.0,0.0,0.0,2.4153,2.3785,2.3585,2.3664,2.3161,2.3006,2.3222,2.3667,2.4081,2.4468,2.4771,2.5166,2.5576,2.5551,2.5568,2.5625,2.5625,2.5626,2.5626,2.5626,2.5652,2.5707,2.5707,0.0,0.0,2.727,2.9566,3.2647,3.4778,3.6857,3.8952,4.1221,4.1954,4.2044,4.2492,4.2627,4.2716,4.318,4.33,4.33,4.33,4.33,4.2612,4.0004,3.9406,3.7866,3.2482,3.0994,2.9812,2.6964,2.8359,3.0775,3.338,3.6104,3.9005,4.2178,4.2627,4.2791,4.3255,4.33,4.33,4.33,4.4516,4.53,4.53,4.6441,4.7179,4.7283,4.7309,4.7309,4.7309,4.7309,4.7309,4.7309,4.7309,4.7309,4.7309,4.7309,4.7309,4.7309,4.7309,4.7309,4.7309,4.7309,0.0,4.7309,4.7309,4.7309,4.7309,4.7309,4.7309,4.7309,4.7309,4.7309,4.7309,0.0,0.0,0.0,0.0,0.0,0.0,0.0,2.5703,2.59,2.59,2.59,2.59,2.59,2.5626,2.5556,0.0,0.0,0.0,0.0,0.0,0.0,0.0,2.4015,2.4022,2.4276,2.42,2.4212,2.4301,0.0,2.4387,2.3959,2.4316,2.4448,2.4368,2.4787,2.5063,2.5178,2.5178,2.5323,2.5567,2.5567,2.5741,2.5993,0.0,0.0,0.0,2.8411,3.0353,3.2647,3.3604,3.637,3.987,4.2477,4.33,4.33,4.33,4.33,4.33,4.33,4.33,4.33,4.33,4.33,4.2253,3.827,3.7097,3.525,2.9631,2.8188,2.7353,2.5427,2.7808,3.0589,3.216,3.6073,3.9595,4.1515,4.2657,4.33,4.33,4.33,4.33,4.33,4.4516,4.53,4.53,4.6546,4.7309,4.7309,4.7309,4.7309,4.7309,4.7309,4.7309,4.7309,4.7309,4.7309,4.7309,4.7309,4.7309,4.7309,4.7309,4.7309,4.7309,4.7309,4.7309,4.7309,4.7309,4.7309,4.7309,4.7309,4.7309,4.7309,4.7309,4.7309,4.7354,0.0,0.0,0.0,0.0,0.0,0.0,0.0,2.5703,2.5746,2.5886,2.5788,2.576,2.5886,2.5359,2.5197,0.0,0.0,0.0,0.0,0.0,0.0,0.0,0.0,0.0,2.4871,0.0,0.0,2.5154,2.5586,0.0,0.0,0.0,0.0,0.0,2.538,2.5798,2.5938,2.5982,2.6073,0.0,0.0,2.6244,2.6372,0.0,0.0,0.0,0.0,3.0776,3.2116,3.2407,3.492,3.8359,4.0857,4.2103,4.2642,4.2507,4.2567,4.2761,4.3195,4.33,4.33,4.33,4.33,4.1924,3.6693,3.4974,3.2953,2.7512,2.5848,2.5223,2.4703,2.7137,2.9513,3.0365,3.4546,3.8285,3.9954,4.162,4.2836,4.3255,4.33,4.3359,4.3494,4.4591,4.536,4.5499,4.661,4.7309,4.7309,4.7309,4.7309,4.7309,4.7309,4.7309,4.7309,4.7309,4.7309,4.7309,4.7309,4.7309,4.7309,4.7309,4.7309,4.7309,4.7309,4.7309,4.7309,4.7309,4.7309,4.7309,4.7309,4.7309,4.7324,4.7459,4.7519,4.7608,0.0,0.0,0.0,0.0,0.0,0.0,0.0,2.5084,2.5274,2.583,2.5415,2.5288,2.5844,2.5359,2.5014,0.0,0.0,0.0,0.0,0.0,0.0,0.0,0.0,0.0,0.0,0.0,0.0,2.44,2.4451,0.0,0.0,0.0,0.0,0.0,0.0,2.571,2.5748,2.592,0.0,0.0,0.0,0.0,0.0,0.0,0.0,0.0,0.0,3.053,3.0866,3.2093,3.2781,3.3507,3.5571,3.8263,4.0546,3.9945,4.0193,4.1046,4.2821,4.33,4.33,4.33,4.33,4.1924,3.6693,3.4974,3.2826,2.691,2.5163,2.4674,2.4614,2.4898,2.6324,2.9917,3.1473,3.3932,3.8808,4.0178,4.1315,4.309,4.33,4.3539,4.4147,4.487,4.5559,4.6166,4.6894,4.7309,4.7309,4.7309,4.7309,4.7309,4.7309,4.7309,4.7309,4.7309,4.7309,4.7309,4.7309,4.7309,4.7309,4.7309,4.7309,4.7309,4.7309,4.7309,0.0,4.7309,4.7309,4.7309,4.7309,4.7309,4.7358,4.7982,4.8203,4.8293,0.0,0.0,0.0,0.0,0.0,0.0,2.5513,2.5305,2.5337,2.5931,2.5499,2.5217,2.545,2.4869,2.4753,2.5485,0.0,0.0,0.0,0.0,0.0,0.0,0.0,0.0,0.0,0.0,2.5375,2.5506,2.5575,0.0,0.0,0.0,0.0,0.0,0.0,2.6603,2.6615,2.6858,0.0,0.0,0.0,0.0,0.0,0.0,0.0,0.0,0.0,0.0,3.0537,3.0709,3.1597,3.2405,3.1248,3.3186,3.6354,3.8703,3.9586,4.0313,4.2657,4.33,4.33,4.33,4.2118,4.0004,3.6326,3.3724,3.0971,2.7027,2.5669,2.5193,2.5193,2.5528,2.6452,2.8425,3.0299,3.2243,3.4351,3.6266,3.8174,4.0118,4.1061,4.2287,4.4127,4.5264,4.6191,4.685,4.7149,4.7309,4.7309,4.7309,4.7309,4.7309,4.7309,4.7309,4.7309,4.7309,4.7309,4.7309,4.7309,4.7309,4.7309,4.7309,4.7309,4.7309,4.7309,4.7309,0.0,4.7309,4.7309,4.7339,4.7743,4.7904,4.7982,4.8648,4.8902,4.8992,0.0,0.0,0.0,0.0,0.0,2.5489,2.5666,2.5447,2.5462,2.6033,2.5736,2.5446,2.5406,2.4614,2.4507,2.5542,2.4508,0.0,0.0,0.0,0.0,0.0,0.0,0.0,0.0,0.0,2.6104,2.6246,2.6346,2.6097,0.0,0.0,2.6297,2.5704,0.0,0.0,0.0,0.0,0.0,0.0,0.0,0.0,0.0,0.0,0.0,0.0,0.0,0.0,0.0,0.0,0.0,3.1408,2.8882,2.964,3.2201,3.6008,3.7815,3.9125,4.1509,4.2716,4.33,4.33,4.1326,3.8718,3.6094,3.2916,2.9819,2.7393,2.6198,2.5722,2.6129,2.642,2.6824,2.748,2.9152,3.0621,3.1384,3.3133,3.5122,3.7293,3.8377,4.0127,4.314,4.5354,4.679,4.7253,4.7309,4.7309,4.7309,4.7309,4.7309,4.7309,4.7309,4.7309,4.7309,4.7309,4.7309,4.7309,4.7309,4.7309,4.7309,4.7309,4.7309,4.7309,4.7309,4.7309,0.0,4.7309,4.7414,4.7638,4.8113,4.8412,4.8678,4.9325,4.9565,4.9655,0.0,0.0,0.0,0.0,0.0,0.0,2.5111,2.5321,2.5561,2.6046,2.6097,2.6043,2.5907,2.4824,2.4352,2.4958,2.3855,0.0,0.0,0.0,0.0,0.0,0.0,0.0,0.0,0.0,2.5968,2.6097,2.6097,2.6179,2.6286,2.6292,2.6292,2.6299,0.0,0.0,0.0,0.0,0.0,0.0,0.0,0.0,0.0,0.0,0.0,0.0,0.0,0.0,0.0,0.0,0.0,0.0,0.0,2.845,2.8531,3.1053,3.4135,3.7128,3.8942,4.1326,4.33,4.33,4.1326,3.8718,3.6094,3.2916,2.9945,2.7989,2.6524,2.6004,2.7324,2.7039,2.6824,2.748,2.7615,2.8545,3.1144,3.1518,3.2527,3.5212,3.5541,3.7105,4.1059,4.4975,4.7294,4.7309,4.7309,4.7309,4.7309,4.7309,4.7309,4.7309,4.7309,4.7309,4.7309,4.7309,4.7309,4.7309,4.7309,4.7309,4.7309,4.7309,4.7309,4.7309,4.7309,4.7309,0.0,4.7309,4.7683,4.8293,4.8293,4.8708,4.9363,4.9964,5.0192,5.0297,0.0,0.0,0.0,0.0,0.0,0.0,0.0,2.5722,2.5712,2.6174,2.5883,2.5606,2.556,2.4694,2.4038,2.3853,2.3009,0.0,0.0,0.0,0.0,0.0,0.0,0.0,0.0,0.0,2.5921,2.5955,2.6056,2.6063,2.6029,2.6212,2.6206,2.6036,2.6365,2.6451,0.0,0.0,0.0,0.0,0.0,0.0,2.7756,0.0,0.0,0.0,0.0,0.0,0.0,0.0,0.0,0.0,0.0,0.0,0.0,2.8719,3.0948,3.3902,3.6122,3.7413,3.8071,3.799,3.5973,3.3783,3.2953,3.0912,2.9026,2.8404,2.7955,2.7784,2.8216,2.7743,2.7345,2.7576,2.7606,2.7735,2.8098,3.0478,3.3006,3.5242,3.9879,4.3559,4.5274,4.6576,4.7309,4.7309,4.7309,4.7309,4.7309,4.7309,4.7309,4.7309,4.7309,4.7309,4.7309,4.7309,4.7309,4.7309,4.7309,4.7309,4.7309,4.7309,4.7309,4.7309,4.7309,4.7309,4.7339,4.7788,4.8113,4.8382,4.9258,4.9725,4.9991,5.0637,5.0892,5.0907,0.0,0.0,0.0,0.0,0.0,0.0,0.0,2.5907,2.5864,2.5883,2.5594,2.5386,2.5334,2.4418,2.3675,2.34,2.2695,0.0,0.0,0.0,0.0,0.0,0.0,0.0,0.0,2.5253,2.5661,2.59,2.5975,2.5975,2.59,2.6063,2.6056,2.5907,2.6164,2.6238,0.0,0.0,0.0,0.0,0.0,0.0,2.8341,0.0,0.0,0.0,0.0,0.0,0.0,0.0,0.0,0.0,0.0,0.0,0.0,0.0,2.8545,3.0764,3.3115,3.4711,3.5675,3.5537,3.3476,3.1503,3.1503,3.0,2.8607,2.8607,2.8607,2.8607,2.8607,2.8051,2.7606,2.7606,2.739,2.7593,2.8667,3.0732,3.3133,3.5885,4.1309,4.499,4.5404,4.6576,4.7309,4.7309,4.7309,4.7309,4.7309,4.7309,4.7309,4.7309,4.7309,4.7309,4.7309,4.7309,4.7309,4.7309,4.7309,4.7309,4.7309,4.7309,4.7309,4.7309,4.7309,4.7444,0.0,4.8128,4.8577,4.9105,4.989,5.0357,5.0637,5.1041,5.1191,5.1191,0.0,0.0,0.0,0.0,0.0,0.0,0.0,2.5878,2.6009,2.5314,2.5334,2.5359,2.5172,2.4132,2.3457,2.3498,0.0,0.0,0.0,0.0,0.0,0.0,0.0,0.0,0.0,2.4683,2.5303,2.59,2.59,2.59,2.59,2.59,2.59,2.59,2.59,2.5907,0.0,0.0,0.0,0.0,0.0,0.0,0.0,0.0,0.0,0.0,0.0,0.0,0.0,0.0,0.0,0.0,0.0,0.0,0.0,0.0,0.0,0.0,0.0,3.2846,3.512,3.4976,3.3065,3.1241,3.1286,2.9895,0.0,2.8667,2.8643,2.8627,2.8667,2.8081,2.7621,2.766,2.7114,2.8045,3.1951,3.237,3.3731,3.7635,4.0849,4.2755,4.2755,4.5509,4.7309,4.7309,4.7309,4.7309,4.7309,4.7309,4.7309,4.7309,4.7309,4.7309,4.7309,4.7309,4.7309,4.7309,4.7309,4.7309,4.7309,4.7309,4.7309,0.0,4.7354,4.7713,0.0,4.8397,4.9123,5.0207,5.0252,5.0641,5.1191,5.1191,5.1191,5.1191,0.0,0.0,0.0,0.0,0.0,0.0,0.0,0.0,0.0,0.0,2.547,2.5328,2.4728,2.481,2.4538,0.0,0.0,0.0,0.0,0.0,0.0,0.0,0.0,0.0,0.0,2.4683,2.5303,2.59,2.59,2.59,2.59,2.59,2.59,2.59,2.59,2.6008,0.0,0.0,0.0,0.0,0.0,0.0,0.0,0.0,0.0,0.0,3.1307,3.1654,0.0,0.0,0.0,0.0,0.0,0.0,0.0,0.0,2.6756,2.7044,2.7787,0.0,2.9754,2.9525,2.8986,2.865,0.0,2.9014,2.8871,2.9284,2.9035,2.8886,2.9284,2.8408,2.7764,2.8276,2.7797,2.856,3.2026,3.674,4.1119,4.4571,4.5663,4.6153,4.6153,4.6845,4.7309,4.7309,4.7309,4.7309,4.7309,4.7309,4.7309,4.7309,4.7309,4.7309,4.7309,4.7309,4.7309,4.7309,4.7309,4.7309,4.7309,4.7309,4.7309,4.7339,4.7844,4.8143,4.8382,4.9348,4.9923,5.0252,5.0772,5.1056,5.1191,5.1191,5.1191,5.1191,0.0,0.0,0.0,0.0,0.0,0.0,0.0,0.0,0.0,0.0,0.0,2.4611,2.4548,2.4283,0.0,0.0,0.0,0.0,0.0,0.0,0.0,0.0,0.0,2.3579,2.4185,2.4729,2.5336,2.5989,2.5927,2.59,2.59,2.59,2.59,2.59,2.59,2.5975,0.0,0.0,0.0,0.0,2.7431,0.0,0.0,0.0,0.0,0.0,3.1619,3.1855,0.0,3.1989,3.1546,3.0822,0.0,0.0,0.0,0.0,2.6697,2.6769,2.7108,2.7393,2.7593,2.7606,2.7833,2.8156,2.8517,2.8943,2.9248,2.9248,2.8768,2.8342,2.8319,2.7415,2.6899,2.7575,2.8637,3.0635,3.424,3.7847,4.1343,4.4666,4.5056,4.5644,4.716,4.7309,4.7309,4.7309,4.7309,4.7309,4.7309,4.7309,4.7309,4.7309,4.7309,4.7309,4.7309,4.7309,4.7309,4.7309,4.7309,4.7309,4.7309,4.7309,4.7474,4.7784,4.8143,4.8626,4.9228,4.9923,5.0387,5.0686,5.1056,5.1191,5.1191,5.1191,5.1191,5.1191,0.0,0.0,0.0,0.0,0.0,0.0,0.0,0.0,0.0,0.0,0.0,0.0,0.0,0.0,0.0,0.0,0.0,0.0,0.0,0.0,0.0,0.0,0.0,2.3713,2.4453,2.4837,2.5381,2.6124,2.5995,2.5927,2.5927,2.5927,2.5921,2.59,2.59,2.59,0.0,0.0,0.0,0.0,2.7718,0.0,0.0,0.0,0.0,0.0,0.0,0.0,0.0,3.2023,3.148,3.0623,2.9733,0.0,0.0,0.0,0.0,0.0,2.7261,2.7551,2.7718,2.7765,2.8184,2.8622,2.8733,2.9235,2.9477,2.8764,2.8126,2.7484,2.6883,2.621,2.5968,2.6644,2.9925,3.3746,3.762,3.8593,3.9963,4.2805,4.3149,4.4232,4.704,4.7309,4.7309,4.7309,4.7309,4.7309,4.7309,4.7309,4.7309,4.7309,4.7309,4.7309,4.7309,4.7309,4.7309,4.7309,4.7309,4.7309,4.7309,4.7414,4.7758,4.8308,0.0,0.0,5.0207,5.0312,5.0697,5.1191,5.1191,5.1191,5.1191,5.1191,5.1191,5.1191,0.0,0.0,0.0,0.0,0.0,0.0,0.0,0.0,0.0,0.0,0.0,0.0,0.0,0.0,0.0,0.0,0.0,0.0,0.0,0.0,0.0,2.4159,2.3819,2.414,2.5208,2.5193,2.5534,2.6273,2.6124,2.6063,2.6063,2.6063,2.6009,2.59,2.59,2.59,2.5907,0.0,0.0,0.0,2.7731,0.0,0.0,0.0,0.0,0.0,0.0,0.0,0.0,3.14,3.0629,2.9629,2.9027,0.0,0.0,0.0,0.0,0.0,2.7549,2.9165,3.0183,2.893,2.8615,2.8742,2.9324,2.9276,2.888,2.7976,2.7436,2.7022,2.6681,2.653,2.6674,2.7345,3.2534,3.7704,4.1143,4.4028,4.5978,4.6486,4.6546,4.6756,4.7238,4.7309,4.7309,4.7309,4.7309,4.7309,4.7309,4.7309,4.7309,4.7309,4.7309,4.7309,4.7309,4.7309,4.7309,4.7309,4.7309,4.7309,4.7313,4.7889,4.8203,4.8353,0.0,5.0013,5.024,5.0817,5.1101,5.1191,5.1191,5.1191,5.1191,5.1191,5.1191,5.1191,0.0,0.0,0.0,0.0,0.0,0.0,0.0,0.0,0.0,0.0,0.0,0.0,0.0,0.0,0.0,0.0,0.0,0.0,0.0,0.0,0.0,2.5215,2.4962,2.5017,2.5397,2.5661,2.5954,2.63,2.6179,2.6097,2.6097,2.6029,2.5955,2.59,2.5975,2.6009,2.6016,2.6144,0.0,0.0,0.0,0.0,0.0,0.0,0.0,0.0,0.0,0.0,0.0,0.0,3.0532,2.9462,2.921,0.0,0.0,0.0,0.0,0.0,2.7782,2.9022,3.0112,3.0747,3.1895,3.2953,3.326,3.3239,3.2634,3.0735,2.9402,2.8185,2.6943,2.757,2.9759,3.4324,3.638,3.8571,4.1931,4.2142,4.2626,4.4442,4.4651,4.5345,4.713,4.7309,4.7309,4.7309,4.7309,4.7309,4.7309,4.7309,4.7309,4.7309,4.7309,4.7309,4.7309,4.7309,4.7309,4.7309,4.7309,4.7489,4.7848,4.8158,4.8671,4.9363,0.0,5.0401,5.0772,5.1071,5.1191,5.1191,5.1191,5.1191,5.1191,5.1191,5.1191,5.1191,0.0,0.0,0.0,0.0,0.0,0.0,0.0,0.0,0.0,0.0,0.0,0.0,0.0,0.0,0.0,0.0,0.0,0.0,0.0,0.0,2.6023,2.6023,2.6023,2.5935,2.573,2.6129,2.6366,2.642,2.6265,2.6256,2.6385,2.6114,2.6053,2.6159,2.6148,2.6229,2.6392,2.6691,2.7366,0.0,0.0,0.0,0.0,0.0,0.0,0.0,0.0,0.0,0.0,0.0,0.0,0.0,0.0,0.0,0.0,2.8168,2.7654,2.6927,2.7922,2.8919,3.013,3.2002,3.3584,3.4983,3.6224,3.6011,3.5115,3.3457,3.1994,3.0283,2.7901,2.8918,3.2398,3.9347,3.9403,3.9748,4.3075,4.1334,4.0666,4.3239,4.3554,4.4532,4.7055,4.7309,4.7309,4.7309,4.7309,4.7309,4.7309,4.7309,4.7309,4.7309,4.7309,4.7309,4.7309,4.7309,4.7309,4.7309,4.7459,4.7803,4.8308,4.8611,4.9273,5.0207,5.0372,5.0727,5.1191,5.1191,5.1191,5.1191,5.1191,5.1191,5.1191,5.1191,5.1191,5.1191,0.0,0.0,0.0,0.0,0.0,0.0,0.0,0.0,0.0,0.0,0.0,0.0,0.0,0.0,0.0,0.0,0.0,0.0,0.0,0.0,2.6734,2.6734,2.6734,2.6728,2.6708,2.6557,2.6585,2.676,2.6564,2.6726,2.7204,2.6571,2.6504,2.6898,2.6482,2.6627,2.7261,2.8016,2.8706,2.9377,0.0,0.0,0.0,0.0,0.0,0.0,0.0,0.0,0.0,0.0,0.0,0.0,0.0,0.0,2.7021,2.8168,2.7654,2.6927,2.7922,2.9913,3.1709,3.1754,3.0502,3.0521,3.5394,3.4292,3.2649,3.4079,3.4365,3.3337,3.0008,3.0477,3.2766,3.6992,4.0131,4.3194,4.6486,4.6741,4.6681,4.692,4.695,4.704,4.7279,4.7309,4.7309,4.7309,4.7309,4.7309,4.7309,4.7309,4.7309,4.7309,4.7309,4.7309,4.7309,4.7309,4.7309,4.7298,4.7934,4.8248,4.8338,4.9516,5.0117,5.0226,5.0862,5.1158,5.1191,5.1191,5.1191,5.1191,5.1191,5.1191,5.1191,5.1191,5.1191,5.1191,0.0,0.0,0.0,0.0,0.0,0.0,0.0,0.0,0.0,0.0,0.0,0.0,0.0,0.0,0.0,0.0,0.0,0.0,0.0,2.7085,2.7107,2.6812,2.6792,2.6792,2.6792,2.6725,2.6658,2.6604,2.6545,2.6768,2.7282,2.6605,2.6614,2.7164,2.6651,2.6797,2.7471,2.8286,2.8735,2.8974,2.9797,0.0,0.0,0.0,0.0,0.0,0.0,0.0,0.0,0.0,2.8925,2.8595,2.8595,2.7765,2.7021,2.8168,2.7654,2.6907,2.7825,3.0251,3.2368,3.1737,3.1069,3.1917,3.7122,3.7398,3.675,3.7407,3.764,3.6965,3.4417,3.6317,3.8769,4.0266,4.3289,4.5883,4.713,4.7309,4.7309,4.7309,4.7309,4.7309,4.7309,4.7309,4.7309,4.7309,4.7309,4.7309,4.7309,4.7309,4.7309,4.7309,4.7309,4.7309,4.7309,4.7713,4.7923,4.7923,4.8173,4.8716,4.9501,4.9983,5.0431,5.0847,5.1086,5.1191,5.1191,5.1191,5.1191,5.1191,5.1191,5.1191,5.1191,5.1191,5.1191,5.1191,0.0,0.0,0.0,0.0,0.0,0.0,0.0,0.0,0.0,0.0,0.0,0.0,0.0,0.0,0.0,0.0,0.0,0.0,2.7527,2.7359,2.7139,2.6812,2.6792,2.6792,2.6792,2.6989,2.6915,2.6584,2.6786,2.7252,2.7953,2.7343,2.7265,2.7638,2.7533,2.763,2.7947,2.9095,2.9563,2.9564,3.0021,2.9975,0.0,0.0,0.0,0.0,0.0,0.0,0.0,0.0,2.8675,2.8463,2.8563,2.7884,2.7275,2.8469,2.7901,2.7063,2.7844,2.9648,3.1275,3.1251,3.1439,3.2999,3.8212,3.8634,3.8427,4.0268,4.0218,3.9502,3.8341,4.0461,4.2396,4.2396,4.516,4.7309,4.7309,4.7309,4.7309,4.7309,4.7309,4.7309,4.7309,4.7309,4.7309,4.7309,4.7309,4.7309,4.7309,4.7309,4.7309,4.7309,4.7504,4.7623,4.7623,4.8278,4.8712,4.891,4.891,4.9363,5.0207,5.0416,5.0772,5.1191,5.1191,5.1191,5.1191,5.1191,5.1191,5.1191,5.1191,5.1191,5.1191,5.1191,5.1191,5.1191,0.0,0.0,0.0,0.0,0.0,0.0,0.0,0.0,0.0,0.0,0.0,0.0,0.0,0.0,0.0,0.0,0.0,0.0,2.7502,2.7055,2.6799,2.6792,2.6792,2.6792,2.6792,2.739,2.7404,2.6807,2.7404,2.8271,2.9376,2.8914,2.8589,2.844,2.924,2.9254,2.8833,3.0683,3.148,3.1472,3.1472,3.1278,0.0,0.0,0.0,0.0,0.0,0.0,0.0,0.0,2.8381,2.8161,2.8503,2.8136,2.7863,2.9116,2.8463,2.7439,2.8042,2.8032,2.8327,3.0221,3.1147,3.2946,3.8201,3.6997,3.6379,4.2132,4.1784,4.0651,4.1283,4.1982,4.244,4.241,4.516,4.7309,4.7309,4.7309,4.7309,4.7309,4.7309,4.7309,4.7309,4.7309,4.7309,4.7309,4.7309,4.7309,4.7309,4.7309,4.7309,4.7298,4.7948,4.8293,4.8308,4.8962,4.961,5.0207,5.0207,5.0207,5.0226,5.0907,5.1191,5.1191,5.1191,5.1191,5.1191,5.1191,5.1191,5.1191,5.1191,5.1191,5.1191,5.1191,5.1191,5.1191,0.0,0.0,0.0,0.0,0.0,0.0,0.0,0.0,0.0,0.0,0.0,0.0,0.0,0.0,0.0,0.0,0.0,0.0,2.7527,2.7372,2.7145,2.6812,2.6792,2.6792,2.6792,2.6975,2.7194,2.7433,2.7194,2.7695,2.8892,2.8275,2.8443,2.924,2.9051,2.9102,2.937,2.9933,2.986,2.9392,2.934,2.8854,2.8156,0.0,0.0,0.0,0.0,0.0,0.0,0.0,0.0,0.0,2.8563,2.8502,2.8436,2.8706,2.8448,2.8064,2.8055,3.0657,3.3013,3.1612,3.4173,3.7468,3.9047,3.8679,3.9281,4.3778,4.4621,4.4052,4.2416,4.4157,4.509,4.2785,4.516,4.7309,4.7309,4.7309,4.7309,4.7309,4.7309,4.7309,4.7309,4.7309,4.7309,4.7309,4.7309,4.7309,4.7309,4.7309,4.7519,4.7993,4.8203,4.8528,4.8992,4.9628,5.0024,5.0207,5.0682,5.0907,5.0907,5.1101,5.1191,5.1191,5.1191,5.1191,5.1191,5.1191,5.1191,5.1191,5.1191,5.1191,5.1191,5.1191,5.1191,5.1191,0.0,0.0,0.0,0.0,0.0,0.0,0.0,0.0,0.0,0.0,0.0,0.0,0.0,0.0,0.0,0.0,0.0,0.0,0.0,2.7321,2.7108,2.6812,2.6792,2.6902,2.7157,2.6917,2.7099,2.7695,2.7332,2.7686,2.8702,2.8522,2.8739,2.9254,2.9639,2.9733,2.9624,2.9855,2.9552,2.8901,2.8579,2.8015,2.7401,0.0,0.0,0.0,0.0,0.0,0.0,0.0,0.0,0.0,2.8506,2.879,2.8995,2.8857,2.8544,2.8422,2.9286,3.1535,3.3727,3.4136,3.6849,3.975,4.1051,4.135,4.2173,4.5099,4.6016,4.5897,4.4592,4.5963,4.6651,4.4666,4.6018,4.7309,4.7309,4.7309,4.7309,4.7309,4.7309,4.7309,4.7309,4.7309,4.7309,4.7309,4.7309,4.7309,4.7309,4.7549,4.7878,4.8293,4.879,4.9254,4.9643,5.0278,5.0596,5.0596,5.1011,5.1191,5.1191,5.1191,5.1191,5.1191,5.1191,5.1191,5.1191,5.1191,5.1191,5.1191,5.1191,5.1191,5.1191,5.1191,5.1191,5.1191,0.0,0.0,0.0,0.0,0.0,0.0,0.0,0.0,0.0,0.0,0.0,0.0,0.0,0.0,0.0,0.0,0.0,0.0,0.0,0.0,2.6792,2.6792,2.6792,2.7055,2.7608,2.7128,2.7157,2.7695,2.7695,2.8043,2.8716,2.9327,2.9341,2.8942,3.0594,3.0717,2.9718,3.0069,2.9955,2.9429,2.8674,2.8206,2.7945,2.7945,0.0,0.0,0.0,0.0,0.0,0.0,0.0,0.0,2.8341,2.8952,2.9421,2.9247,2.8833,2.8939,3.1185,3.1557,3.2467,3.7293,3.9161,4.0647,4.3693,4.4441,4.482,4.6046,4.6345,4.657,4.7179,4.7309,4.7309,4.7309,4.7309,4.7309,4.7309,4.7309,4.7309,4.7309,4.7309,4.7309,4.7309,4.7309,4.7309,4.7309,4.7309,4.7339,4.7399,4.7978,4.8353,4.8472,4.9591,5.0237,5.0297,5.0907,5.1191,5.1191,5.1191,5.1191,5.1191,5.1191,5.1191,5.1191,5.1191,5.1191,5.1191,5.1191,5.1191,5.1191,5.1191,5.1191,5.1191,5.1191,5.1179,5.1155,0.0,0.0,0.0,0.0,0.0,0.0,0.0,0.0,0.0,0.0,0.0,0.0,0.0,0.0,0.0,0.0,0.0,0.0,0.0,0.0,2.6792,2.6792,2.6792,2.6865,2.6989,2.7332,2.7572,2.7695,2.7695,2.8043,2.8716,2.9327,2.9805,3.0198,3.006,3.0142,3.0289,2.8786,2.8376,2.865,2.7703,2.7439,2.761,2.761,2.7552,0.0,0.0,0.0,0.0,0.0,0.0,0.0,2.8094,2.8574,2.9015,2.8569,3.0056,3.1828,3.1738,3.4536,3.7761,3.8898,4.1231,4.3574,4.4811,4.5488,4.5956,4.6241,4.673,4.7119,4.7268,4.7309,4.7309,4.7309,4.7309,4.7309,4.7309,4.7309,4.7309,4.7309,4.7309,4.7309,4.7309,4.7309,4.7309,4.7309,4.7309,4.7534,4.8068,4.8218,4.876,4.977,5.0058,5.0446,5.0981,5.1131,5.1191,5.1191,5.1191,5.1191,5.1191,5.1191,5.1191,5.1191,5.1191,5.1191,5.1191,5.1191,5.1191,5.1191,5.1191,5.1191,5.1191,5.1191,5.1058,5.0878,0.0,0.0,0.0,0.0,0.0,0.0,0.0,0.0,0.0,0.0,0.0,0.0,0.0,0.0,0.0,0.0,0.0,0.0,0.0,0.0,2.7374,2.77,2.7714,2.7714,2.7714,2.802,2.8187,2.8187,2.8471,2.8638,2.8716,2.9327,2.9784,3.0125,3.0092,3.0091,3.0038,2.8586,2.8092,2.8174,2.7171,2.7062,2.7498,2.7498,2.7498,2.7536,2.7736,0.0,0.0,0.0,0.0,0.0,0.0,0.0,2.8664,2.7939,2.8984,3.0814,3.2946,3.5246,3.7808,4.0962,4.3025,4.4561,4.5548,4.6057,4.639,4.6704,4.7059,4.7309,4.7309,4.7309,4.7309,4.7309,4.7309,4.7309,4.7309,4.7309,4.7309,4.7309,4.7309,4.7309,4.7309,4.7309,4.7309,4.7309,4.7309,4.7593,4.8263,4.8603,4.9209,5.0177,5.0506,5.0847,5.1191,5.1191,5.1191,5.1191,5.1191,5.1191,5.1191,5.1191,5.1191,5.1191,5.1191,5.1191,5.1191,5.1191,5.112,5.1011,5.1011,5.0944,5.0852,5.0852,5.0781,5.0647,0.0,0.0,0.0,0.0,0.0,0.0,0.0,0.0,0.0,0.0,0.0,0.0,0.0,0.0,0.0,0.0,0.0,0.0,0.0,0.0,0.0,2.8673,2.8702,2.8702,2.8702,2.8796,2.8854,2.8854,2.9472,2.9523,2.9036,2.9537,2.9769,2.9791,3.0238,3.0145,2.9637,2.8706,2.8206,2.792,2.6973,2.6918,2.7423,2.7486,2.7456,2.7423,2.7486,2.7276,0.0,0.0,0.0,0.0,0.0,0.0,2.8221,2.7314,2.7656,2.9272,3.3581,3.5113,3.6928,4.2826,4.4461,4.495,4.6046,4.639,4.6629,4.7179,4.7309,4.7309,4.7309,4.7309,4.7309,4.7309,4.7309,4.7309,4.7309,4.7309,4.7309,4.7309,4.7309,4.7309,4.7309,4.7309,4.7309,4.7309,4.7414,4.7769,4.8438,4.9097,4.9733,5.0357,5.0907,5.1191,5.1191,5.1191,5.1191,5.1191,5.1191,5.1155,5.1088,5.1109,5.1132,5.1132,5.1132,5.1109,5.1076,5.1076,5.0944,5.0751,5.0751,5.065,5.0501,5.0548,5.0498,5.0441,0.0,0.0,0.0,0.0,0.0,0.0,0.0,0.0,0.0,0.0,0.0,0.0,0.0,0.0,0.0,0.0,0.0,0.0,0.0,0.0,0.0,2.8702,2.8702,2.8702,2.8702,2.9211,2.9479,2.9479,3.014,3.043,3.0351,3.043,3.0474,3.0444,2.9949,2.9852,2.9928,2.8322,2.7786,2.7937,2.7221,2.699,2.7099,2.739,2.7323,2.7099,2.7398,2.7276,0.0,0.0,2.704,0.0,0.0,0.0,2.7408,2.6638,2.8748,3.1384,3.1619,3.5571,4.0367,4.3504,4.5164,4.6076,4.6271,4.676,4.7179,4.7283,4.7309,4.7309,4.7309,4.7309,4.7309,4.7309,4.7309,4.7309,4.7309,4.7309,4.7309,4.7309,4.7309,4.7309,4.7309,4.7309,4.7309,4.7309,4.7844,4.8457,4.9138,4.9751,5.0383,5.1041,5.1146,5.1191,5.1191,5.1191,5.1191,5.1191,5.1191,5.0994,5.0593,5.0763,5.0843,5.0843,5.0843,5.0754,5.0581,5.0581,5.057,5.0534,5.0534,5.051,5.051,5.0707,5.0504,5.0183,0.0,0.0,0.0,0.0,0.0,0.0,0.0,0.0,0.0,0.0,0.0,0.0,0.0,0.0,0.0,0.0,0.0,0.0,0.0,0.0,0.0,2.9748,2.9762,2.9762,2.9762,3.0023,3.0161,3.0161,3.0616,3.0747,3.0605,3.0955,3.0999,3.0799,3.0365,3.0008,2.9731,2.915,2.8441,2.7713,2.7557,2.7982,2.8562,2.7592,2.7713,2.8297,2.7498,0.0,2.6748,2.6939,2.6646,2.6171,2.5994,0.0,0.0,0.0,2.7343,2.976,3.2964,3.7056,4.1205,4.4581,4.5867,4.6405,4.6764,4.7089,4.7309,4.7309,4.7309,4.7309,4.7309,4.7309,4.7309,4.7309,4.7309,4.7309,4.7309,4.7309,4.7309,4.7309,4.7309,4.7309,4.7309,4.7309,4.7459,4.7833,4.8128,4.8742,4.9751,5.0069,5.0506,5.1187,5.1191,5.1191,5.1191,5.1191,5.112,5.0976,5.0976,5.0802,5.0501,5.0579,5.0638,5.0638,5.0638,5.0579,5.0501,5.0501,5.0417,5.0282,5.0282,5.0171,5.0062,5.0154,5.0045,4.989,0.0,0.0,0.0,0.0,0.0,0.0,0.0,0.0,0.0,0.0,0.0,0.0,0.0,0.0,0.0,0.0,0.0,0.0,0.0,0.0,0.0,3.0583,3.059,3.059,3.059,3.0665,3.0702,3.0702,3.0992,3.1021,3.0844,3.1204,3.1335,3.1234,3.0962,3.0343,2.9548,2.9958,2.9119,2.7562,2.8252,2.9157,2.9914,2.8215,2.8435,0.0,0.0,0.0,2.6448,2.6587,2.6181,2.5597,2.5576,2.5709,0.0,0.0,0.0,2.7839,3.3196,3.6388,3.9279,4.3827,4.506,4.5544,4.6988,4.7309,4.7309,4.7309,4.7309,4.7309,4.7309,4.7309,4.7309,4.7309,4.7309,4.7309,4.7309,4.7309,4.7309,4.7309,4.7309,4.7309,4.7309,4.7459,4.7758,4.8263,4.8596,4.9198,5.0147,5.0357,5.0671,5.1176,5.1191,5.1167,5.1109,5.1053,5.0885,5.0621,5.0692,5.0576,5.0294,5.0366,5.0354,5.0294,5.0366,5.0354,5.0294,5.0294,5.0171,5.0002,5.0002,4.9878,4.9705,4.9781,4.9768,4.9734,0.0,0.0,0.0,0.0,0.0,0.0,0.0,0.0,0.0,0.0,0.0,0.0,0.0,0.0,2.8876,2.9443,2.953,2.9835,3.0503,3.0546,3.0561,3.059,3.059,0.0,3.059,3.0844,3.0977,3.0977,3.1306,3.1465,3.1444,3.1168,3.1365,3.1925,3.1595,3.0762,2.9627,3.0216,2.9319,2.7659,2.9517,3.0307,3.0276,2.9413,2.9487,2.9778,0.0,2.6508,2.6161,2.5803,2.5636,2.5526,2.5076,2.5437,2.5912,0.0,0.0,0.0,3.0126,3.155,3.3621,3.9752,4.1709,4.303,4.6512,4.7309,4.7309,4.7309,4.7309,4.7309,4.7309,4.7309,4.7309,4.7309,4.7309,4.7309,4.7309,4.7309,4.7309,4.7309,4.7309,4.7309,4.7309,4.7863,4.8263,4.8293,4.9422,5.0132,5.0207,5.0802,5.1161,5.1191,5.1191,5.1085,5.0819,5.0626,5.0402,5.0147,5.039,5.0231,4.9756,5.0002,4.999,4.9768,5.0014,4.999,4.9744,4.9744,4.9732,4.9732,4.9732,4.9705,4.9732,5.0002,4.9914,4.9819,0.0,0.0,0.0,0.0,0.0,0.0,0.0,0.0,0.0,0.0,0.0,0.0,0.0,2.9193,2.9363,2.9588,2.9987,3.0343,3.0576,3.0762,3.0784,3.0605,3.0755,3.0851,3.0851,3.0955,3.1117,3.1313,3.166,3.1718,3.1501,3.1773,3.1824,3.1653,3.1328,3.0696,2.9896,3.0542,2.9209,2.6958,3.0278,3.1536,3.1307,3.0195,3.1294,3.2966,2.9292,2.7739,2.7405,2.7254,2.6291,2.5122,2.4954,2.529,2.5827,2.6288,2.6726,2.7743,3.0827,3.2031,3.3336,3.721,4.0042,4.2233,4.3531,4.5632,4.7309,4.7309,4.7309,4.7309,4.7309,4.7309,4.7309,4.7309,4.7309,4.7309,4.7309,4.7309,4.7309,4.7309,4.7309,4.7309,4.7309,4.7919,4.8483,4.8902,4.9722,5.0387,5.0832,5.1071,5.112,5.0952,5.0941,5.089,5.0796,5.0602,5.0453,5.0354,5.0282,5.005,4.9693,4.9805,4.9793,4.9705,4.9805,4.9793,4.9693,4.9693,4.9693,4.9693,4.9693,4.9693,4.9705,4.9817,5.0042,5.0388,0.0,0.0,0.0,0.0,0.0,0.0,0.0,0.0,0.0,0.0,0.0,0.0,0.0,0.0,3.0024,2.9943,3.0425,3.0695,3.0605,3.0844,3.0918,3.0747,3.1014,3.1175,3.1175,3.1062,3.1228,3.1667,3.1752,3.1754,3.1689,3.2086,3.1993,3.1494,3.1155,3.0749,3.0361,3.0805,2.9348,2.7079,3.1408,3.2867,3.2362,3.1328,3.2709,3.4633,3.026,2.8668,2.8672,2.8869,2.7986,2.6708,2.6133,2.6004,2.6175,2.6757,2.7279,2.8118,3.0216,3.0841,3.1581,3.4466,3.6811,3.9018,4.1365,4.3815,4.591,4.7059,4.7309,4.7309,4.7309,4.7309,4.7309,4.7309,4.7309,4.7309,4.7309,4.7309,4.7309,4.7309,4.7309,4.7399,4.7608,4.8233,4.8891,4.955,5.0185,5.0727,5.1187,5.1109,5.0941,5.0719,5.0609,5.0573,5.0573,5.0351,5.0234,5.0234,5.005,4.9866,4.9693,4.9693,4.9693,4.9693,4.9693,4.9693,4.9693,4.9693,4.9693,4.9693,4.9693,4.9693,4.9722,4.9954,5.0317,5.0753,0.0,0.0,0.0,0.0,0.0,0.0,0.0,0.0,0.0,2.9976,0.0,0.0,0.0,0.0,0.0,3.0628,3.0844,3.0888,3.0635,3.0874,3.1029,3.1021,3.1343,3.1501,3.1501,3.1198,3.1351,3.2018,3.1622,3.1631,3.2018,3.2018,3.1824,3.1478,3.1136,3.0987,3.0962,3.0958,2.9681,2.8087,3.2874,3.4254,3.3371,3.2919,3.3729,3.458,3.0392,2.9286,2.9887,3.0513,3.0625,3.0216,2.8508,0.0,0.0,0.0,2.7406,2.8031,0.0,0.0,0.0,3.1391,3.1868,3.327,4.0052,4.1837,4.3011,4.6444,4.7149,4.7179,4.7283,4.7309,4.7309,4.7309,4.7309,4.7309,4.7309,4.7309,4.7309,4.7309,4.7309,4.7563,4.8233,4.8902,4.955,5.0147,5.0832,5.1191,5.1191,5.0929,5.0695,5.0501,5.0234,5.0086,5.0098,4.9829,4.9693,4.9705,4.9693,4.9693,4.9693,4.9693,4.9693,4.9693,4.9693,4.9693,4.9693,4.9693,4.9693,4.9693,4.9693,4.9708,4.9809,5.0463,5.0724,5.0927,0.0,0.0,0.0,0.0,0.0,0.0,3.1341,3.1816,3.1934,0.0,0.0,0.0,3.1153,3.1057,3.097,3.0896,3.0962,3.1073,3.1241,3.1553,3.1617,3.1379,3.1682,3.1861,3.1861,3.1764,3.1911,3.2295,3.2179,3.2179,3.2295,3.2295,3.1874,3.1124,3.0938,3.0594,3.0119,2.9918,2.8706,2.7375,3.2887,3.4554,3.396,3.5747,3.7095,3.7624,3.4402,3.2787,3.2282,3.3142,3.1326,2.8547,2.7585,0.0,0.0,0.0,0.0,0.0,2.8655,0.0,0.0,0.0,0.0,0.0,3.3899,3.6405,3.9317,4.2872,4.3608,4.4369,4.6839,4.7309,4.7309,4.7309,4.7309,4.7309,4.7309,4.7309,4.7309,4.7309,4.7309,4.7563,4.8233,4.8902,4.955,5.0147,5.0832,5.112,5.0929,5.0513,5.0279,5.0222,4.9939,4.9902,5.0098,4.9829,4.9805,5.0002,4.9793,4.9693,4.9693,4.9693,4.9693,4.9693,4.9693,4.9693,4.9693,4.9693,4.9693,4.9693,4.9693,4.9998,5.0448,5.0637,5.1276,5.2118,0.0,0.0,0.0,0.0,0.0,3.3086,3.2016,3.2549,3.2716,0.0,0.0,0.0,3.1753,0.0,3.148,3.1226,3.1335,3.1437,3.1502,3.1803,3.1911,3.1725,3.2001,3.2178,3.2178,3.1888,3.1956,3.2405,3.2112,3.1934,3.1826,3.1873,3.1321,3.0273,3.0112,2.9753,2.9238,2.8946,2.8068,2.7371,3.2836,3.4474,3.3971,3.6909,3.8508,3.8898,3.6545,3.5439,3.5249,3.6468,3.3975,3.0365,3.0249,0.0,0.0,0.0,0.0,0.0,0.0,0.0,2.8418,2.7733,0.0,0.0,3.3009,3.5273,3.8226,4.3284,4.4339,4.4942,4.6929,4.7309,4.7309,4.7309,4.7309,4.7309,4.7309,4.7309,4.7309,4.7309,4.7549,4.7949,4.8496,4.9163,4.9774,5.029,5.0691,5.0793,5.0513,5.024,5.005,4.9939,4.9781,4.9781,4.9926,4.9781,4.9781,4.9926,4.9768,4.9693,4.9693,4.9693,4.9693,4.9693,4.9693,4.9693,4.9693,4.9693,4.9693,4.9737,5.0013,5.0361,5.0768,5.129,5.1958,5.2641,0.0,0.0,3.373,3.4045,3.4515,3.4405,3.3049,3.3047,3.2922,0.0,3.2038,3.2024,3.2004,3.2212,0.0,0.0,3.1757,3.1783,3.1511,3.1708,3.1818,3.1818,3.2128,3.2281,3.2281,3.178,3.1758,3.2276,3.1681,3.1217,3.0895,3.1036,3.0428,2.9219,2.9056,2.8746,2.8358,2.8059,2.7844,2.8109,3.2897,3.426,3.382,3.7299,3.8979,3.9263,3.7784,3.7641,3.8344,3.9464,3.7476,3.4501,3.4367,3.1932,2.9126,0.0,2.9852,0.0,0.0,0.0,0.0,2.849,2.7811,0.0,3.4295,3.5597,3.752,4.4183,4.5548,4.5653,4.6047,4.6107,4.6107,4.6107,4.6416,4.6826,4.7238,4.7309,4.7309,4.7309,4.7889,4.8462,4.8862,4.9515,5.0075,5.0466,5.0477,5.0342,5.011,5.0074,4.9939,4.9705,4.9693,4.9693,4.9693,4.9693,4.9693,4.9693,4.9693,4.9693,4.9693,4.9693,4.9693,4.9693,4.9693,4.9693,4.9708,4.978,4.9809,4.9867,5.0463,5.0782,5.1044,5.2176,5.2641,5.2786,0.0,3.6665,3.5847,3.4287,3.4323,3.4116,3.2713,3.2895,3.298,3.2405,3.2315,3.224,3.2017,3.206,0.0,0.0,3.1468,3.1259,3.1413,3.0978,3.0707,3.0707,3.1278,3.1595,3.1595,3.1996,3.195,3.1428,3.1412,3.0985,3.02,3.0326,2.9804,2.8742,2.8804,2.8375,2.7612,2.7535,2.8524,3.0396,3.3646,3.4712,3.4859,3.9551,4.1253,4.1092,4.0767,4.0559,4.0172,3.8254,3.854,3.8772,3.3655,3.3894,3.5211,3.0943,0.0,0.0,0.0,0.0,0.0,0.0,2.8225,0.0,2.8843,2.8721,2.9535,3.3728,3.4574,3.5417,3.8175,3.8683,3.8683,3.8683,4.0949,4.3783,4.6871,4.7309,4.7309,4.7309,4.7889,4.8462,4.8862,4.9515,5.0075,5.0466,5.0294,5.0159,5.0098,4.9902,4.9756,4.9693,4.9693,4.9693,4.9693,4.9693,4.9693,4.9693,4.9693,4.9693,4.9693,4.9693,4.9693,4.9693,4.9693,4.9693,4.9737,5.0274,5.0506,5.0521,5.0651,5.1319,5.2263,5.251,5.2904,5.3341,3.665,3.5996,3.5185,3.3832,3.3954,3.3831,3.2588,3.2855,3.3006,3.2472,3.2405,3.2349,3.2212,3.1907,3.1693,0.0,0.0,0.0,0.0,3.0599,3.0402,3.0402,3.0722,3.0898,3.0898,3.1221,3.1197,3.0808,3.0865,3.0453,2.9591,2.9602,2.8856,2.7518,2.7842,2.7741,2.7316,2.7657,2.9327,3.1961,3.4343,3.59,3.7248,4.1449,4.2933,4.28,4.28,4.2885,4.2781,4.1401,3.995,3.838,3.651,3.5213,3.3965,3.1946,3.197,3.2235,0.0,0.0,0.0,2.8831,2.85,0.0,0.0,2.9923,3.061,3.3823,3.4494,3.493,3.6339,3.6599,3.6599,3.6599,3.9399,4.17,4.1927,4.485,4.7054,4.7358,4.7989,4.8609,4.915,4.9684,5.0022,5.0108,4.999,4.9902,4.9902,4.9768,4.9693,4.9693,4.9693,4.9693,4.9693,4.9693,4.9693,4.9693,4.9693,4.9693,4.9693,4.9693,4.9693,4.9693,4.9693,4.9882,5.0216,5.0564,5.1073,5.1653,5.1653,5.2031,5.2641,5.2933,5.3239,5.3502,3.5666,3.4974,3.4199,3.3361,3.3646,3.3649,3.2568,3.2776,3.2895,3.2458,3.2384,3.2317,3.2179,3.2113,3.2031,3.1909,0.0,0.0,3.0948,3.0795,3.0507,3.0039,3.0147,3.0202,3.0202,3.0305,3.0295,3.0131,3.0163,2.9733,2.8895,2.8978,2.8206,2.6813,2.7869,2.8045,2.7638,2.8687,3.08,3.3581,3.5316,3.7283,3.9526,4.2776,4.4077,4.4193,4.4324,4.4687,4.4998,4.4293,4.1098,3.7576,3.8541,3.5957,3.2523,3.2249,3.2338,3.211,0.0,0.0,0.0,0.0,0.0,2.9376,0.0,0.0,0.0,3.494,3.5447,3.5218,3.4494,3.4454,3.454,3.4546,3.7346,3.8639,3.6044,4.0798,4.4765,4.5365,4.7254,4.8458,4.8344,4.8791,4.927,4.9662,4.9127,4.904,4.9664,4.9693,4.9693,4.9693,4.9693,4.9693,4.9693,4.9693,4.9693,4.9693,4.9693,4.9693,4.9693,4.9693,4.9693,4.9708,4.9838,5.0201,5.0724,5.0956,5.1668,5.2597,5.2597,5.267,5.2817,5.3326,5.3502,5.3502,3.5668,3.5782,3.5239,3.3496,3.3646,3.3649,3.2568,3.2444,3.2465,3.2411,3.2302,3.1996,3.1399,3.323,3.4288,3.3749,3.5206,3.52,3.2936,3.2249,3.0927,2.8722,2.9199,2.9501,2.9501,2.9982,2.9866,2.9151,2.9285,2.8805,2.7795,2.8616,2.8669,2.8205,3.1131,3.1109,2.9038,3.1501,3.3912,3.6155,3.7092,3.841,4.0113,4.2925,4.4338,4.4875,4.5471,4.5732,4.5293,4.2085,4.12,4.0437,3.4679,3.5867,3.8084,3.1478,3.2531,3.4971,0.0,0.0,0.0,0.0,2.7853,0.0,2.7742,0.0,2.7117,2.7863,0.0,2.7671,2.6527,0.0,0.0,2.713,2.9924,3.2174,3.2319,3.5095,3.7341,3.7933,4.4219,4.7341,4.4386,4.4942,4.6666,4.949,4.7065,4.6687,4.9548,4.9693,4.9693,4.9693,4.9693,4.9693,4.9693,4.9693,4.9693,4.9693,4.9693,4.9693,4.9693,4.9693,4.9693,4.9737,5.0332,5.0637,5.0782,5.1915,5.2467,5.2597,5.2597,5.2933,5.34,5.3473,5.3502,5.3502,3.4553,3.4683,3.4259,3.2964,3.3124,3.3197,3.2499,3.2405,3.2405,3.2405,3.2349,3.2207,3.1931,3.2476,3.3194,3.3991,3.4455,3.409,3.2625,3.2259,0.0,2.8507,2.8661,2.8815,2.8815,2.8958,2.887,2.8539,2.8904,2.8807,2.8306,2.9104,2.903,2.8379,3.147,3.2255,3.1336,3.2734,3.4735,3.7034,3.785,3.9091,4.0826,4.3921,4.5253,4.5514,4.579,4.5892,4.5676,0.0,4.164,0.0,0.0,3.7308,3.499,3.3853,3.3569,3.2949,0.0,0.0,0.0,0.0,0.0,0.0,2.7341,0.0,2.646,0.0,0.0,0.0,0.0,0.0,0.0,0.0,2.7616,2.9207,2.7515,3.1625,3.5171,3.6164,3.9913,4.2898,4.4151,4.4796,4.6399,4.9473,4.6731,4.6298,4.9533,4.9693,4.9693,4.9693,4.9693,4.9693,4.9693,4.9693,4.9693,4.9693,4.9693,4.9693,4.9693,4.9693,4.9911,5.0303,5.0579,5.1116,5.1842,5.238,5.2815,5.3109,5.3109,5.3283,5.3502,5.3502,5.3502,5.3502,3.3403,3.3529,3.3252,3.248,3.2825,3.3086,3.2682,3.2143,3.1851,3.2057,3.1904,3.1782,3.1755,3.2407,3.3385,3.4699,3.5471,3.51,3.3218,3.3088,3.1973,2.9475,2.8667,2.8722,2.9661,2.8818,2.8472,2.8686,2.9043,2.915,2.9032,2.9723,2.9586,2.8913,3.1991,3.3336,3.3361,3.4462,3.6349,3.8671,3.9289,4.0085,4.1266,4.4628,4.5892,4.5892,4.5892,4.5892,4.579,4.5093,4.1976,0.0,4.155,3.848,3.4274,3.6205,3.5277,3.3008,3.0166,0.0,0.0,0.0,0.0,0.0,0.0,0.0,0.0,0.0,0.0,0.0,0.0,0.0,2.4799,2.4101,0.0,2.7134,2.4863,2.8603,3.1896,3.2806,3.4918,3.8054,4.2514,4.228,4.3578,4.7723,4.5048,4.512,4.9478,4.9693,4.9693,4.9693,4.9693,4.9693,4.9693,4.9693,4.9693,4.9693,4.9693,4.9693,4.9708,4.9882,5.0245,5.0724,5.1073,5.1741,5.2612,5.2786,5.3094,5.3502,5.3502,5.3502,5.3502,5.3502,5.3502,5.3502,3.254,3.2841,3.2848,3.2294,3.3075,3.3648,3.324,3.1517,3.0492,3.115,3.0667,3.0223,3.0096,3.3948,3.6553,3.6614,4.0519,4.0881,3.5911,3.5573,3.4453,3.1895,2.936,2.9553,3.2876,3.0206,2.9163,2.9932,2.9832,2.9713,2.9592,3.0324,3.052,3.0365,3.3597,3.4836,3.4723,3.74,3.9847,4.1953,4.2117,4.1655,4.1266,4.4628,4.5892,4.5892,4.5892,0.0,0.0,4.3061,4.2092,0.0,0.0,0.0,0.0,0.0,0.0,0.0,0.0,0.0,0.0,2.5146,0.0,0.0,0.0,0.0,2.5133,0.0,0.0,0.0,0.0,0.0,0.0,0.0,0.0,0.0,0.0,2.5623,2.5385,2.535,2.9276,3.3589,3.7648,3.5041,3.6076,4.326,4.0813,4.212,4.9323,4.9693,4.9693,4.9693,4.9693,4.9693,4.9693,4.9693,4.9693,4.9693,4.9693,4.9693,4.9722,5.0361,5.0681,5.0768,5.2002,5.2554,5.2641,5.3225,5.3473,5.3502,5.3502,5.3502,5.3502,5.3502,5.3502,5.3502,3.252,3.1974,3.151,3.141,3.2,3.2193,3.1333,3.0645,3.0873,3.2736,3.287,3.3404,3.5047,3.658,3.7978,3.917,4.0647,3.9857,3.5964,3.6115,3.5214,3.2668,3.0475,3.0669,3.3575,3.0888,2.9604,2.987,3.0135,3.0241,3.0215,3.0902,3.1181,3.1192,3.3437,3.5514,3.7333,3.7733,3.9217,4.1114,3.9035,3.9286,4.1024,4.216,4.2601,4.2886,4.5103,4.5892,0.0,4.4904,4.3407,4.203,4.2757,4.0999,3.8734,3.9179,3.8344,0.0,0.0,0.0,3.3672,2.7844,0.0,0.0,0.0,0.0,0.0,0.0,0.0,0.0,0.0,0.0,0.0,0.0,0.0,0.0,0.0,2.5308,2.5669,2.5789,2.9113,3.2248,3.4409,3.6036,3.8794,4.3257,4.3131,4.4848,4.9449,4.9693,4.9693,4.9693,4.9693,4.9693,4.9693,4.9693,4.9693,4.9693,4.9693,4.9925,5.0361,5.0593,5.116,5.1973,5.2409,5.2817,5.321,5.3415,5.3502,5.3502,5.3502,5.3009,5.242,5.3211,5.3502,5.3502,3.1816,3.0995,3.0488,3.086,3.0825,3.0667,3.0454,2.9814,3.0345,3.31,3.337,3.4372,3.7175,3.8094,3.9168,4.0802,4.1534,4.0319,3.6543,3.7603,3.7201,3.461,3.3299,3.4,3.6922,3.3367,3.1607,3.1898,3.1192,3.0852,3.0867,3.1301,3.1369,3.1197,3.2571,3.5095,3.8326,3.8053,3.9765,4.2286,3.7823,3.7299,3.9198,3.914,3.9866,4.1348,0.0,4.5892,4.5892,4.5892,4.4722,4.3603,4.5585,4.3795,4.114,4.2189,4.1252,3.9277,3.643,3.6725,0.0,3.0782,3.0763,0.0,2.6082,0.0,2.5598,0.0,0.0,0.0,0.0,0.0,0.0,0.0,0.0,0.0,0.0,2.6081,2.6726,2.6862,2.8655,3.0692,3.2731,3.3921,3.6611,4.1457,4.2102,4.3916,4.7717,4.9047,4.9693,4.9693,4.9693,4.9693,4.9693,4.9693,4.9693,4.9693,4.994,5.0274,5.071,5.1174,5.1828,5.2612,5.2817,5.3138,5.3502,5.3502,5.3502,5.3502,5.3502,5.3023,5.2379,5.2729,5.2849,5.2849,3.0514,2.999,2.9782,3.051,2.9589,2.9166,3.0469,2.9037,2.9011,3.2403,3.2392,3.3351,3.6703,3.8722,4.0368,4.168,4.3358,4.2422,3.7889,4.0017,4.0301,3.7764,3.7545,3.9104,4.256,3.7333,3.4919,3.5693,3.2879,3.1503,3.1503,3.1466,3.1114,3.0537,3.1099,3.3629,3.7492,3.8106,4.1109,4.4915,3.851,3.6055,3.6202,3.6244,3.8237,4.1425,4.4759,4.5964,4.5993,4.5993,4.5993,4.6095,4.667,4.6813,4.668,4.6226,4.6102,4.5033,4.0072,3.8769,3.7847,3.3813,0.0,0.0,0.0,0.0,2.8751,0.0,0.0,0.0,0.0,0.0,0.0,0.0,0.0,0.0,0.0,2.7687,2.8138,2.8138,2.7801,2.8869,3.2234,2.905,3.0069,3.7997,3.7965,3.9742,4.4678,4.7789,4.9497,4.9693,4.9693,4.9693,4.9693,4.9693,4.9722,4.9751,5.0405,5.0724,5.084,5.2046,5.2612,5.2685,5.3254,5.3502,5.3502,5.3502,5.3448,5.3423,5.3476,5.3436,5.3183,5.2096,5.1702,5.1688,3.0598,2.9609,2.8761,2.8475,2.8137,2.8063,2.8499,2.8128,2.9477,3.416,3.475,3.667,4.1795,4.2795,4.3424,4.4283,4.4781,4.3703,4.0586,4.1478,4.1832,4.1143,3.9679,4.0241,4.3134,3.796,3.5341,3.5546,3.2834,3.1503,3.1488,3.0979,3.0658,3.0477,2.9692,3.1071,3.3952,3.3644,3.5773,3.9218,3.7476,3.7083,3.7774,0.0,4.1647,4.269,4.5537,4.6896,4.7312,4.7312,4.7312,4.7341,4.7491,4.6963,4.627,4.6194,4.5625,4.4542,4.2422,4.1859,4.0891,3.6881,3.5861,3.5116,0.0,0.0,0.0,0.0,0.0,0.0,0.0,0.0,0.0,0.0,0.0,0.0,0.0,2.8314,2.8684,2.8684,2.8516,2.8565,2.9038,3.0934,3.3925,3.826,3.8661,4.1547,4.8076,0.0,4.672,4.9608,4.9693,4.9693,4.9693,4.9693,4.9954,5.0448,5.0622,5.1189,5.2118,5.2452,5.2831,5.3283,5.3429,5.3502,5.3502,5.3502,5.297,5.2258,5.3143,5.2408,5.0892,5.1484,5.1702,5.1579,2.9737,2.8853,2.8036,2.7666,2.8791,2.9673,2.9449,2.8703,3.0027,3.5243,3.6229,3.812,4.2546,4.4047,4.501,4.5678,4.5738,4.4751,4.2387,4.3683,4.4023,4.2836,4.2826,4.3559,4.5065,4.1031,3.8344,3.7201,3.4255,3.2213,3.1046,3.0417,2.9953,2.9654,2.9505,3.0705,3.3041,3.5629,3.7025,3.7625,3.9035,3.9825,0.0,4.222,4.3943,4.5571,4.7085,4.7697,4.7805,4.7805,4.7805,4.7852,4.8101,4.7755,4.7204,4.7045,4.6918,4.6481,4.4879,4.4451,4.3793,4.1042,3.9993,3.888,3.6008,3.568,3.5515,0.0,0.0,0.0,0.0,0.0,0.0,2.6487,0.0,0.0,0.0,2.8941,2.9283,2.9283,2.9229,2.8937,2.8344,3.006,3.2699,3.6283,3.6645,3.8471,0.0,4.3699,4.525,4.7444,4.7297,4.797,4.9679,4.8273,4.862,5.071,5.1261,5.19,5.2612,5.286,5.3181,5.3502,5.3502,5.3502,5.3502,5.3502,5.3103,5.2501,5.2648,5.1566,4.9915,5.007,5.0127,5.0028,2.8487,2.8073,2.7735,2.7735,3.0454,3.2557,3.2303,3.0837,3.1524,3.6485,3.7608,3.8975,4.1738,4.4062,4.5698,4.6375,4.6435,4.5687,4.3942,4.6012,4.6266,4.3927,4.6057,4.7309,4.7309,4.467,4.1984,3.9272,3.6156,3.3208,3.0492,2.996,2.9407,2.8885,2.9924,3.141,3.356,3.9361,4.0398,3.8414,4.1633,4.3043,4.3282,4.3592,4.5843,4.8829,4.8829,4.8493,4.8052,4.8052,4.8052,4.8127,4.867,4.8721,4.8569,4.8308,4.8827,4.905,4.706,4.6398,4.6044,4.498,4.3836,4.2374,3.9974,3.9434,3.8743,3.6283,3.5794,3.5623,0.0,0.0,0.0,2.8107,0.0,0.0,0.0,3.0322,3.0555,3.0266,3.0146,0.0,2.8972,2.8248,2.952,3.3592,3.3286,3.3519,0.0,0.0,4.4229,4.5102,4.4812,4.6032,4.8907,0.0,4.7078,5.0078,5.179,5.2641,5.2743,5.3268,5.3502,5.3502,5.3502,5.3502,5.3489,5.3329,5.317,5.2903,5.1702,5.0587,4.9547,4.8487,4.7992,4.7859,2.7878,2.8132,2.8419,2.8419,3.1135,3.4008,3.6065,3.608,3.6985,4.0131,4.064,4.1918,4.5089,4.5852,4.639,4.7059,4.7119,4.6984,4.6625,4.704,4.7089,4.6625,4.7055,4.7309,4.7309,4.467,4.1754,3.858,3.6387,3.3679,3.05,3.0387,3.0283,3.0163,2.9877,3.1189,3.3633,3.4332,3.6249,3.9102,4.2264,4.395,4.4861,4.7494,4.8916,4.9521,4.9521,4.9461,4.9374,4.9374,4.9374,4.9388,4.9492,4.888,4.8284,4.9145,4.8877,4.8198,4.7805,4.7023,4.6044,4.498,4.3836,4.2862,4.2399,4.2286,4.2134,4.1644,4.1544,4.08,3.8316,0.0,0.0,0.0,0.0,0.0,0.0,3.5189,3.4575,3.2738,3.1985,3.0906,2.9076,2.9303,3.0764,3.3685,3.1004,3.2793,0.0,0.0,4.177,0.0,4.8245,0.0,0.0,0.0,4.8641,4.6705,5.0693,5.286,5.3342,5.3444,5.3502,5.3502,5.3502,5.3502,5.3422,5.2434,5.1429,5.0406,4.9206,4.8602,4.8386,4.8181,4.746,4.6618,2.8627,2.8904,2.9556,3.0896,3.3866,3.6934,3.9592,4.1444,4.2387,4.1972,4.2187,4.299,4.457,4.5986,4.6954,4.7268,4.7309,4.7309,4.7309,4.7309,4.7309,4.7309,4.7309,4.7309,4.7309,4.6371,4.3604,3.8922,0.0,0.0,3.0492,3.0178,3.0035,3.0103,3.1729,3.3274,3.489,3.7943,0.0,4.2242,4.5496,4.7027,4.7558,4.9112,4.9693,4.9693,4.9693,4.9693,4.9693,4.9693,4.9693,4.9693,4.9693,4.9324,4.8988,4.9547,4.8889,4.7996,4.7996,4.6764,4.5355,4.4832,4.3836,4.3002,4.3002,4.3002,4.3002,4.3002,4.3002,4.2133,3.9281,3.5377,0.0,0.0,0.0,0.0,0.0,0.0,3.5993,3.4948,3.3215,3.183,3.115,3.0075,2.9724,3.0428,2.9314,3.1056,0.0,0.0,3.9755,0.0,0.0,0.0,0.0,0.0,0.0,4.9359,5.1865,5.3225,5.3502,5.3502,5.3502,5.3502,5.3502,5.3143,5.2474,5.1265,5.0056,4.8905,4.8341,4.7712,4.7176,4.7176,4.68,4.6298,3.0222,3.0072,3.0805,3.3986,3.6799,3.9508,4.2182,4.527,4.6367,4.3778,4.3868,4.4152,4.4152,4.6042,4.7309,4.7309,4.7309,4.7309,4.7309,4.7309,4.7369,4.7519,4.7519,4.7578,4.7713,4.8233,4.5868,0.0,0.0,0.0,0.0,3.0424,3.0358,3.1109,3.3937,3.6099,0.0,0.0,4.5351,4.5997,4.8643,4.9693,4.9693,4.9693,4.9693,4.9693,4.9693,4.9693,4.9693,4.9693,4.9693,4.9693,4.9693,4.9693,4.9693,4.9693,4.905,4.8363,4.8363,4.6906,4.5395,4.5395,4.4371,4.3365,4.3365,4.3169,4.3002,4.3002,4.3002,4.2146,3.9345,3.7061,0.0,0.0,0.0,0.0,0.0,0.0,3.7625,3.716,3.4613,3.3095,3.3558,3.0751,2.8703,2.8216,2.906,3.0435,3.2352,0.0,0.0,0.0,0.0,4.3664,4.6453,0.0,4.7985,5.0979,5.2431,5.3249,5.3502,5.3502,5.3502,5.3489,5.3237,5.2285,5.0865,4.9901,4.8804,4.7712,4.7712,4.7146,4.6298,4.6298,4.6298,4.6298,3.2654,3.1674,3.2003,3.7054,3.8706,4.0184,4.2831,4.5548,4.7179,4.6875,4.6879,4.6924,4.6924,4.7149,4.7309,4.7309,4.7309,4.7309,4.7309,4.7309,4.7578,4.8173,4.8203,4.8498,4.9108,4.9168,4.744,0.0,0.0,3.8191,0.0,0.0,3.281,3.5489,0.0,0.0,0.0,4.461,4.6477,4.9262,4.9565,4.9693,4.9693,4.9693,4.9693,4.9693,4.9693,4.9693,4.9693,4.9693,4.9693,4.9693,4.9693,4.9693,4.9693,4.9693,4.962,4.9547,4.9547,4.8639,4.7677,4.7677,4.6097,4.4547,4.4547,4.3739,4.3002,4.3002,4.3002,4.2105,3.9166,3.8555,3.7602,0.0,0.0,0.0,0.0,0.0,4.1645,3.9635,3.6911,3.5207,3.5269,3.1418,2.9484,3.0906,3.1553,3.3068,0.0,0.0,0.0,4.0472,4.1992,4.131,3.833,4.5216,4.7656,4.5674,4.986,5.2447,5.3502,5.3502,5.3502,5.3449,5.2339,5.056,4.8429,4.8313,4.7549,4.6466,4.6466,4.6391,4.6298,4.6298,4.6298,4.6298,3.6753,3.6394,3.7022,4.075,4.1584,4.2642,4.5309,4.661,4.7309,4.7309,4.7309,4.7309,4.7309,4.7309,4.7309,4.7309,4.7309,4.7474,4.7863,4.7904,4.8203,4.8873,4.8902,4.9033,4.9288,4.9643,4.8222,0.0,0.0,0.0,0.0,0.0,0.0,0.0,0.0,4.2781,4.5314,4.698,4.8472,4.9693,4.9693,4.9693,4.9693,4.9693,4.9693,4.9693,4.9693,4.9693,4.9693,4.9693,4.9693,4.9693,4.9693,4.9693,4.9693,4.9693,4.8724,4.7664,4.7664,4.6359,4.5007,4.5007,4.433,4.3684,4.3684,4.3323,4.3002,4.3002,4.3002,4.2647,4.1462,3.996,3.9044,0.0,0.0,0.0,0.0,0.0,4.206,3.9509,3.6735,3.5281,3.597,3.1125,2.9186,3.2198,3.0758,3.0809,0.0,0.0,0.0,3.7462,0.0,4.3556,4.0773,4.6236,4.864,4.792,4.9749,5.0879,5.1347,5.1347,5.1347,5.1278,5.007,4.8992,4.8035,4.7326,4.674,4.6298,4.6298,4.6298,4.6298,4.6298,4.6298,4.6298,4.0328,3.9945,4.0492,4.3943,4.3858,4.4197,4.6879,4.7309,4.7309,4.7309,4.7474,4.7519,4.7313,4.7474,4.7593,4.7593,4.7773,4.8083,4.8558,4.8592,4.8887,4.9535,4.9565,0.0,4.9849,5.029,4.9351,4.704,4.4212,0.0,0.0,0.0,0.0,0.0,4.4226,4.5697,4.6661,4.8797,4.9693,4.9693,4.9693,4.9693,4.9693,4.9693,4.9693,4.9693,4.9693,4.9693,4.9693,4.9693,4.9693,4.9693,4.9693,4.9693,4.9693,4.9693,4.8562,4.7292,4.7292,4.5913,4.4466,4.4466,4.3974,4.3503,4.3503,4.324,4.3002,4.3002,4.3002,4.3002,4.3002,4.1406,4.0477,4.1607,0.0,0.0,0.0,4.2499,0.0,3.922,3.6408,3.5342,3.6985,3.1899,3.0392,3.4938,3.234,3.1223,0.0,0.0,0.0,0.0,0.0,0.0,0.0,4.631,4.8606,4.9377,4.9377,4.9561,4.9901,4.9901,4.9717,4.932,4.8472,4.7889,4.749,4.6648,4.6298,4.6298,4.6298,4.6298,4.6298,4.6298,4.6298,4.6298,4.2821,4.121,4.1066,4.6326,4.5059,4.4197,4.6879,4.7309,4.7309,4.7309,4.7889,4.8038,4.7358,4.7889,4.8293,4.8293,4.8887,4.9273,4.9288,4.9288,4.9565,0.0,0.0,5.0491,5.1161,5.1176,5.1173,5.1131,0.0,0.0,4.4719,0.0,4.1554,4.5146,4.519,4.6853,4.9649,4.9679,4.9693,4.9693,4.9693,4.9693,4.9693,4.9693,4.9693,4.9693,4.9693,4.9693,4.9693,4.9693,4.9693,4.9693,4.9693,4.9693,4.9693,4.9693,4.9669,4.9656,4.9656,4.8827,4.7933,4.7933,4.6294,4.4683,4.4683,4.3808,4.3002,4.3002,4.3002,4.3002,4.3002,4.2963,4.2072,3.9384,0.0,0.0,0.0,4.1293,0.0,3.922,3.6408,3.5794,3.8605,3.4308,3.3872,3.9948,3.7852,0.0,0.0,0.0,0.0,4.0324,4.0905,0.0,4.1328,4.4645,4.6923,4.8123,4.8123,4.8747,4.9901,4.9901,4.9263,4.8123,4.8108,4.7429,4.6328,4.6313,4.6298,4.6298,4.6298,4.6298,4.6298,4.6298,4.6298,4.6298,4.5888,4.5379,4.5309,4.701,4.6595,4.6311,4.7174,4.7683,4.7982,4.7982,4.8573,4.8902,4.8693,4.8843,4.8977,4.8977,4.9183,4.9471,0.0,4.9916,5.0189,5.0847,5.0892,5.0981,5.1191,5.1191,5.1109,5.0941,0.0,0.0,0.0,4.3949,4.5153,4.8268,4.8268,4.8797,4.9693,4.9693,4.9693,4.9693,4.9693,4.9693,4.9693,4.9693,4.9693,4.9693,4.9693,4.9693,4.9693,4.9693,4.9693,4.9693,4.9693,4.9693,4.9693,4.9693,4.8599,4.7382,4.7382,4.6018,4.4602,4.4602,4.4057,4.3532,4.3532,4.3254,4.3002,4.3002,4.3002,4.3002,4.3002,4.3002,4.2699,4.1846,4.2436,0.0,4.1821,0.0,3.917,3.637,3.379,3.3394,3.6297,3.3653,3.3339,3.7217,3.4831,0.0,0.0,0.0,0.0,0.0,4.2404,0.0,4.1933,4.4832,4.6496,4.6862,4.6862,4.707,4.7457,4.7457,4.7235,4.6862,4.6862,4.6648,4.6298,4.6298,4.6298,4.6298,4.6298,4.6298,4.6298,4.6298,4.6537,4.6863,4.7309,4.7309,4.7309,4.7309,4.7309,4.7373,4.7638,4.8023,4.8394,4.8648,4.9235,4.964,4.964,4.9864,0.0,4.9658,4.9864,5.0167,5.0551,5.0592,5.0772,5.1176,5.1191,5.1191,5.1191,5.1191,0.0,5.0952,4.8719,4.7472,4.7196,4.6988,4.7899,4.9693,4.9693,4.9693,4.9693,4.9693,4.9693,4.9693,4.9693,4.9693,4.9722,4.9983,5.0085,5.0114,5.0334,5.0409,5.0409,5.0409,5.0409,5.0409,5.0409,5.0409,5.0378,5.0143,4.9228,4.8297,4.8297,4.6972,4.5475,4.5035,4.4577,4.4156,4.3702,4.3589,4.3589,4.3589,4.3589,4.3589,4.3589,4.3589,4.3589,4.3589,4.3589,4.3237,4.2209,0.0,3.8467,0.0,0.0,0.0,0.0,3.6016,3.6381,0.0,3.7917,0.0,0.0,0.0,0.0,4.0588,4.4317,0.0,4.3768,4.5434,4.6298,4.6298,4.6298,4.6298,4.6298,4.6298,4.6298,4.6298,4.6298,4.6298,4.6298,4.6298,4.6298,4.6298,4.6298,4.6424,4.6612,4.6612,4.6938,4.74,4.7309,4.7309,4.7298,4.7369,4.7358,4.7593,4.8263,4.8397,4.8652,4.9277,4.9886,5.0267,5.0267,5.0832,5.0951,5.0327,0.0,0.0,0.0,5.1191,5.1191,5.1191,5.1191,5.1191,5.1191,5.1191,5.1191,5.1167,5.0701,5.0477,5.0465,4.9939,4.9693,4.9693,4.9693,4.9693,4.9693,4.9751,4.9766,4.9766,4.9824,4.9824,4.9911,5.0521,5.0768,5.0828,5.1398,5.1588,5.1588,5.1588,5.1588,5.1588,5.1588,5.1632,5.1543,5.0944,5.1049,5.1358,5.1358,5.0465,4.9266,4.8138,4.7067,4.5972,4.4864,4.4589,4.4589,4.4589,4.4589,4.4589,4.4589,4.4589,4.4589,4.4589,4.4439,4.341,4.0864,4.0337,3.927,3.6707,0.0,0.0,0.0,4.0587,4.1878,0.0,0.0,0.0,0.0,0.0,3.9831,4.6095,4.6298,4.6298,4.6298,4.6298,4.6298,4.6298,4.6298,4.6298,4.6298,4.6298,4.6298,4.6298,4.6298,4.6298,4.6298,4.6298,4.6323,4.6361,4.6361,4.6672,4.7161,4.7161,4.7503,4.797,0.0,0.0,4.7459,4.7978,4.8068,4.8293,4.8962,4.9449,4.9815,4.9964,5.0563,5.0966,5.0966,5.1101,5.1131,5.0981,5.1101,5.1191,5.1191,5.1191,5.1191,5.1191,5.1191,5.1191,5.1191,5.1191,5.1109,5.0878,5.042,5.0183,5.0183,4.9854,4.9693,4.9693,4.9693,4.9693,4.9737,5.0245,5.0463,5.0506,5.096,5.1151,5.1166,5.1338,5.1383,5.1412,5.1557,5.1588,5.1588,5.1588,5.1588,5.1588,5.1588,5.1947,5.2222,5.1585,5.022,4.8932,4.8932,4.7427,4.5787,4.5488,4.5228,4.4953,4.4662,4.4589,4.4589,4.4589,4.4589,4.4589,4.4589,4.4589,4.4589,4.4589,4.2833,4.124,4.06,3.868,3.7122,0.0,3.6627,3.7929,4.0837,4.1342,4.1822,0.0,0.0,0.0,0.0,4.1416,4.2332,4.6185,4.6298,4.6298,4.6298,4.6298,4.6298,4.6298,4.6298,4.6298,4.6298,4.6298,4.6298,4.6298,4.6298,4.6298,4.6298,4.6298,4.6537,4.691,4.691,4.7239,4.7704,4.7704,4.8083,4.8576,4.7698,4.7758,4.7963,4.8648,4.8768,4.8966,4.9613,4.9994,5.0312,5.0622,5.0966,5.1191,5.1191,5.1191,5.1191,5.1191,5.1191,5.1191,5.1191,5.1191,5.1191,5.1191,5.1191,5.1191,5.1191,5.1191,5.1058,5.0796,5.0444,5.0222,5.0098,5.015,5.0158,5.0172,5.045,5.0581,5.0583,5.0958,5.1106,5.1135,5.147,5.1588,5.1632,5.1947,5.2064,5.2093,5.237,5.2472,5.2472,5.2472,5.2472,5.2472,5.2472,5.2731,5.2947,5.2573,5.1184,4.9747,4.9747,4.8411,4.6879,4.6343,4.5798,4.5382,4.5382,4.5382,4.5382,4.5382,4.5382,4.5382,4.5382,4.5382,4.5382,4.5382,4.3074,4.128,4.128,3.8881,0.0,3.8894,3.9219,4.0458,4.331,4.3749,4.3855,4.3855,4.3855,0.0,4.3855,4.3855,4.4613,4.6248,4.6298,4.6298,4.6298,4.6298,4.6298,4.6298,4.6298,4.6298,4.6298,4.6298,4.6298,4.6298,4.6298,4.6436,4.6675,4.6675,4.6988,4.7478,4.7478,4.7804,4.8309,4.8309,4.8677,4.9167,4.8323,4.8453,4.8663,4.9322,4.9441,4.964,5.0263,5.0357,5.0563,5.1131,5.1191,5.1191,5.1191,5.1191,5.1191,5.1191,5.1191,5.1191,5.1191,5.1191,5.1191,5.1191,5.1191,5.1191,5.1191,5.1155,5.1083,5.0944,5.0702,5.0509,5.0379,5.069,5.0828,5.0857,5.1369,5.1588,5.1603,5.1717,5.1746,5.1761,5.1848,5.1891,5.1949,5.2512,5.2743,5.2801,5.3326,5.3502,5.3502,5.3502,5.3502,5.3502,5.3502,5.3502,5.3448,5.3277,5.2366,5.147,5.1648,5.0685,4.9348,4.8137,4.7057,4.6298,4.6298,4.6298,4.6298,4.6298,4.6298,4.6298,4.6298,4.6298,4.616,4.5748,4.3379,4.157,4.157,0.0,3.9032,4.1872,4.2576,4.3743,4.606,4.6298,4.6298,4.6298,4.6298,4.6298,4.6298,4.6298,4.6298,4.6298,4.6298,4.6298,4.6298,4.6298,4.6298,4.6298,4.6298,4.6298,4.6298,4.6298,4.6298,4.6298,4.6386,4.6687,4.7111,4.7186,4.7541,4.8033,4.8033,4.84,4.8931,4.8931,4.9204,4.959,4.9007,4.9142,4.9337,4.9949,5.0069,5.0278,5.0936,5.1041,5.1086,5.1191,5.1191,5.1191,5.1191,5.1191,5.1191,5.1191,5.1191,5.1191,5.1191,5.1191,5.1191,5.1191,5.1191,5.1191,5.1191,5.0976,5.1113,5.1645,5.116,5.1193,5.171,5.1536,5.1456,5.1456,5.1572,5.1588,5.1644,5.2207,5.2439,5.2496,5.3007,5.3212,5.3226,5.3313,5.3357,5.3371,5.3473,5.3502,5.3502,5.3502,5.3502,5.3502,5.3502,5.3502,5.3303,5.2285,5.1113,5.0392,5.1429,5.0071,4.8094,4.6877,4.6436,4.6298,4.6298,4.6298,4.6298,4.6298,4.6298,4.6298,4.6298,4.6298,4.5535,4.3215,4.0476,3.8655,3.8655,0.0,3.9032,4.1872,4.4244,4.5836,4.6261,4.6298,4.6298,4.6298,4.6298,4.6298,4.6298,4.6298,4.6298,4.6298,4.6298,4.6298,4.6298,4.6298,4.6298,4.6298,4.6298,4.6298,4.6298,4.6298,4.6298,4.6323,4.6772,4.7023,4.7136,4.7591,4.8121,4.8667,4.8667,4.8991,4.948,4.948,4.9543,4.959,4.9658,4.9778,4.9991,5.0622,5.0742,5.0847,5.1146,5.1191,5.1191,5.1191,5.1191,5.1191,5.1191,5.1191,5.1191,5.1191,5.1191,5.1191,5.1191,5.1191,5.1191,5.1191,5.1191,5.1296,5.1527,5.1891,5.2098,5.2122,5.1888,5.1849,5.2003,5.2102,5.2149,5.2151,5.2472,5.2618,5.2646,5.2949,5.3093,5.3109,5.3386,5.3502,5.3502,5.3502,5.3502,5.3502,5.3502,5.3076,5.2528,5.2528,5.2096,5.1566,5.1566,5.1566,5.1443,5.0892,4.9873,4.8905,4.8819,4.7975,4.701,4.6436,4.6298,4.6298,4.6298,4.6298,4.6298,4.6298,4.6298,4.6298,4.6298,4.6298,4.5397,4.2651,4.1105,0.0,0.0,4.0263,4.128,4.408,4.5535,4.6298,4.6298,4.6298,4.6298,4.6298,4.6298,4.6298,4.6298,4.6298,4.6298,4.6298,4.6298,4.6298,4.6298,4.6298,4.6298,4.6298,4.6298,4.6298,4.6311,4.6599,4.6722,4.6763,4.7302,4.7716,4.8033,4.8287,4.8714,4.9229,4.9229,4.9393,4.959,4.959,4.959,4.959,5.0308,5.0431,5.0596,5.1101,5.1191,5.1191,5.1191,5.1191,5.1191,5.1191,5.1191,5.1191,5.1191,5.1191,5.1191,5.1191,5.1191,5.1191,5.1191,5.1352,5.1442,5.1442,5.1576,5.181,5.2113,5.2777,5.2946,5.2628,5.2578,5.2461,5.2355,5.266,5.2815,5.2817,5.3297,5.3502,5.3502,5.3502,5.3502,5.3502,5.3502,5.3502,5.3502,5.3502,5.3502,5.3502,5.3502,5.2903,5.2123,5.2123,5.1319,5.0378,5.0643,5.035,4.9901,4.9901,4.8861,4.7534,4.6891,4.671,4.6648,4.6361,4.6298,4.6298,4.6298,4.6298,4.6298,4.6298,4.6298,4.6298,4.6298,4.6298,4.5397,4.2651,0.0,0.0,0.0,4.2199,4.3215,4.5974,4.6298,4.6298,4.6298,4.6298,4.6298,4.6298,4.6298,4.6298,4.6298,4.6298,4.6298,4.6298,4.6298,4.6298,4.6298,4.6298,4.6298,4.6298,4.6424,4.6486,4.6499,4.7036,4.7287,4.7327,4.787,4.8375,4.8818,4.8928,4.9229,4.959,4.959,4.959,4.959,4.959,4.959,4.959,5.0996,5.1131,5.1131,5.1191,5.1191,5.1191,5.1191,5.1191,5.1191,5.1191,5.1191,5.1191,5.1191,5.1191,5.1191,5.1191,5.1191,5.1191,5.1191,5.1786,5.2127,5.2127,5.2722,5.3067,5.3102,5.2915,5.2983,5.3329,5.3077,5.3103,5.3383,5.3413,5.3429,5.3444,5.3473,5.3502,5.3502,5.3502,5.3502,5.3502,5.3502,5.3502,5.3502,5.3502,5.3502,5.3502,5.3502,5.3435,5.3369,5.3369,5.2569,5.1756,5.2877,5.1703,4.9901,4.9901,4.8252,4.6663,4.7683,4.7962,4.7697,4.6573,4.6298,4.6298,4.6298,4.6298,4.6298,4.6298,4.6298,4.6298,4.6298,4.6298,4.5397,4.2651,0.0,0.0,4.2199,4.2199,4.3215,4.5974,4.6298,4.6298,4.6298,4.6298,4.6298,4.6298,4.6298,4.6298,4.6298,4.6298,4.6298,4.6298,4.6298,4.6298,4.6298,4.6298,4.6298,4.6311,4.6798,4.7048,4.7061,4.7603,4.7829,4.7867,4.8476,4.8768,4.8843,4.9342,4.9552,4.959,4.959,4.959,4.959,4.959,4.959,4.959,5.1146,5.1191,5.1191,5.1191,5.1191,5.1191,5.1191,5.1191,5.1191,5.1191,5.1191,5.1191,5.1191,5.1191,5.1191,5.1191,5.1576,5.1816,5.1816,5.2441,5.2827,5.2827,5.3458,5.3744,5.358,5.3885,5.401,5.395,5.3682,5.362,5.3735,5.3581,5.3502,5.3502,5.3502,5.3502,5.3502,5.3502,5.3502,5.3502,5.3502,5.3502,5.3502,5.3502,5.3502,5.3502,5.3502,5.3023,5.2272,5.1525,5.0962,5.0392,4.9362,4.9433,4.976,4.9005,4.7606,4.6391,4.6847,4.6981,4.6862,4.6406,4.6298,4.6298,4.6298,4.6298,4.6298,4.6298,4.6298,4.6298,4.6298,4.6298,4.5397,4.2651,0.0,4.4157,4.2438,4.3668,4.5121,4.6188,4.6298,4.6298,4.6298,4.6298,4.6298,4.6298,4.6298,4.6298,4.6298,4.6298,4.6298,4.6298,4.6624,4.6637,4.6298,4.6637,4.6813,4.6798,4.734,4.7603,4.7616,4.8184,4.8463,4.8488,4.9053,4.9305,4.9317,4.9518,4.959,4.959,4.959,4.959,4.959,4.959,4.959,4.959,5.1191,5.1191,5.1191,5.1191,5.1191,5.1191,5.1191,5.1191,5.1191,5.1191,5.1191,5.1191,5.1191,5.1191,5.128,5.1502,5.192,5.2291,5.2513,5.3141,5.3516,5.3516,5.4162,5.4418,5.4241,5.4601,5.4645,5.4304,5.4034,5.3852,5.3775,5.3594,5.3502,5.3502,5.3502,5.3502,5.3502,5.3502,5.3502,5.3502,5.3502,5.3502,5.3462,5.3077,5.293,5.289,5.2515,5.1852,5.1003,5.0182,4.9646,4.9105,4.7828,4.831,4.9105,4.7888,4.6951,4.6298,4.6298,4.6298,4.6298,4.6298,4.6298,4.6298,4.6298,4.6298,4.6298,4.6298,4.6298,4.6298,4.6298,4.6298,4.5686,4.3793,4.5058,4.5648,4.3755,4.5108,4.6298,4.6298,4.6298,4.6298,4.6298,4.6298,4.6298,4.6298,4.6298,4.6298,4.6298,4.6461,4.6549,4.6549,4.7076,4.7177,4.6815,4.7177,4.735,4.735,4.792,4.8171,4.8196,4.879,4.9041,4.9066,4.9443,4.959,4.959,4.959,4.959,4.959,4.959,4.959,4.959,4.959,4.959,4.959,5.1191,5.1191,5.1191,5.1191,5.1191,5.1191,5.1191,5.1191,5.1191,5.1191,5.1191,5.1191,5.1191,5.1191,5.1487,5.2142,5.2217,5.2513,5.3171,5.3832,5.4209,5.4209,5.485,5.5207,5.5207,5.4928,5.4617,5.4304,5.4034,5.3762,5.3502,5.3502,5.3502,5.3502,5.3502,5.3502,5.3502,5.3502,5.3489,5.3489,5.3489,5.3476,5.3343,5.2136,5.1688,5.1538,5.0322,4.9901,4.9901,4.9887,4.9105,4.8313,4.9519,4.9077,4.7859,4.6663,4.6313,4.6298,4.6298,4.6298,4.6298,4.6298,4.6298,4.6298,4.6298,4.6298,4.6298,4.6298,4.6298,4.6298,4.6298,4.6298,4.6298,4.6298,4.6298,4.6298,4.6298,4.6298,4.6298,4.6298,4.6298,4.6298,4.6298,4.6298,4.6298,4.6298,4.6298,4.6311,4.6311,4.681,4.7111,4.7111,4.7629,4.792,4.792,4.792,4.792,4.7905,4.8513,4.8818,4.8831,4.9367,4.959,4.959,4.959,4.959,4.959,4.959,4.959,4.959,4.959,4.959,4.959,4.959,4.959,4.959,5.1191,5.1191,5.1191,5.1191,5.1191,5.1191,5.1191,5.1191,5.1191,5.1191,5.1191,5.1191,5.1191,5.1621,5.198,5.2187,5.3069,5.3892,5.4563,5.4803,5.4895,5.4895,5.5102,5.5105,5.4915,5.4617,5.4408,5.4304,5.3839,5.3581,5.3502,5.3502,5.3502,5.3502,5.3502,5.3502,5.3502,5.3502,5.3009,5.2245,5.2245,5.173,5.0934,5.056,5.0434,5.0378,5.0028,4.9901,4.9774,4.8919,4.8962,4.9433,4.9788,4.8486,4.6936,4.7429,4.6966,4.6298,4.6298,4.6298,4.6298,4.6298,4.6298,4.6298,4.6298,4.6298,4.6298,4.6298,4.6298,4.6298,4.6298,4.6298,4.6298,4.6298,4.6298,4.6298,4.6298,4.6298,4.6298,4.6298,4.6298,4.6298,4.6298,4.6298,4.6298,4.6298,4.6662,4.7039,4.739,4.7566,4.7654,4.7654,4.8237,4.8526,4.8526,4.8526,4.8526,4.8539,4.9104,4.9367,4.9367,4.9543,4.959,4.959,4.959,4.959,4.959,4.959,4.959,4.959,4.959,4.959,4.959,4.959,4.959,4.959,5.1191,5.1191,5.1191,5.1191,5.1191,5.1191,5.1191,5.1191,5.1191,5.1191,5.1191,5.1307,5.1561,5.1962,5.2411,5.295,5.397,5.476,5.5177,5.5105,5.5042,5.5042,5.5042,5.5017,5.4953,5.4539,5.4304,5.4304,5.3762,5.3502,5.3502,5.3502,5.3502,5.3502,5.3502,5.3502,5.3502,5.3502,5.3077,5.242,5.242,5.1702,5.056,5.0084,4.9604,4.9134,4.8645,4.8484,4.8368,4.7637,4.7859,4.8484,4.8484,4.7471,4.6436,4.7176,4.6862,4.6298,4.6298,4.6298,4.6298,4.6298,4.6298,4.6298,4.6298,4.6298,4.6298,4.6298,4.6298,4.6298,4.6298,4.6298,4.6298,4.6298,4.6298,4.6298,4.6298,4.6298,4.6298,4.6298,4.6298,4.6298,4.6298,4.6486,4.67,4.6928,4.7239,4.7566,4.788,4.8121,4.8259,4.8259,4.8815,4.9116,4.9116,4.9116,4.9116,4.9116,4.9455,4.959,4.959,4.959,4.959,4.959,4.959,4.959,4.959,4.959,4.959,4.959,4.959,4.959,4.959,4.959,4.959,4.959,5.1191,5.1191,5.1191,5.1191,5.1191,5.1191,5.1191,5.1191,5.1191,5.1191,5.1251,5.1517,5.2127,5.2306,5.2875,5.4089,5.4805,5.5194,5.5169,5.4953,5.4828,5.4803,5.4803,5.4902,5.5156,5.4603,5.4291,5.425,5.3749,5.3502,5.3502,5.3502,5.3502,5.3502,5.3502,5.3502,5.3502,5.3502,5.3449,5.3343,5.3343,5.2541,5.1264,5.0154,4.8991,4.78,4.668,4.6298,4.6298,4.6298,4.6298,4.6298,4.6298,4.6298,4.6298,4.6298,4.6298,4.6298,4.6298,4.6298,4.6298,4.6298,4.6298,4.6298,4.6298,4.6298,4.6298,4.6298,4.6298,4.6298,4.6298,4.6298,4.6298,4.6298,4.6298,4.6298,4.6298,4.6298,4.6311,4.6361,4.6373,4.6386,4.6451,4.6873,4.7403,4.7945,4.7983,4.8008,4.8043,4.8576,4.8881,4.8881,4.9355,4.959,4.959,4.959,4.959,4.959,4.959,4.959,4.959,4.959,4.959,4.959,4.959,4.959,4.959,4.959,4.959,4.959,4.959,4.959,4.959,4.959,4.959,4.959,5.1191,5.1191,5.1191,5.1191,5.1191,5.1191,5.1191,5.1191,5.1191,5.1191,5.1666,5.2037,5.2187,5.3144,5.388,5.4164,5.4805,5.5105,5.489,5.5029,5.5017,5.4815,5.4803,5.4828,5.4892,5.45,5.42,5.3995,5.3658,5.3502,5.3502,5.3502,5.3502,5.3502,5.3502,5.3502,5.3502,5.3502,5.2943,5.2082,5.2082,5.0809,4.8848,4.8588,4.774,4.6663,4.6391,4.6298,4.6298,4.6298,4.6298,4.6298,4.6298,4.6298,4.6298,4.6298,4.6298,4.6298,4.6298,4.6298,4.6298,4.6298,4.6298,4.6298,4.6298,4.6298,4.6298,4.6298,4.6298,4.6298,4.6298,4.6298,4.6298,4.6298,4.6298,4.6298,4.6298,4.6298,4.6461,4.6873,4.6923,4.7086,4.7503,4.7654,4.797,4.8551,4.8601,4.879,4.9201,4.9367,4.943,4.943,4.9543,4.959,4.959,4.959,4.959,4.959,4.959,4.959,4.959,4.959,4.959,4.959,4.959,4.959,4.959,4.959,4.959,4.959,4.959,4.959,4.959,4.959,4.959,4.959,5.1191,5.1191,5.1191,5.1191,5.1191,5.1191,5.1191,5.1191,5.131,5.1636,5.198,5.2441,5.3084,5.3677,5.4139,5.4455,5.481,5.4941,5.4815,5.4658,5.4564,5.4566,5.4438,5.4361,5.4361,5.4204,5.4032,5.3891,5.3619,5.3502,5.3502,5.3502,5.3502,5.3502,5.3502,5.3502,5.3502,5.3502,5.2796,5.1702,5.1702,5.0253,4.8108,4.8108,4.7355,4.6298,4.6298,4.6298,4.6298,4.6298,4.6298,4.6298,4.6298,4.6298,4.6298,4.6298,4.6298,4.6298,4.6298,4.6298,4.6298,4.6298,4.6298,4.6298,4.6298,4.6298,4.6298,4.6298,4.6298,4.6298,4.6298,4.6298,4.6298,4.6298,4.6512,4.6672,4.6672,4.6901,4.7164,4.7453,4.749,4.7704,4.8272,4.8338,4.8576,4.9141,4.9179,4.9305,4.9594,4.959,4.959,4.959,4.959,4.959,4.959,4.959,4.959,4.959,4.959,4.959,4.959,4.959,4.959,4.959,4.959,4.959,4.959,4.959,4.959,4.959,4.959,4.959,4.959,4.959,4.959,4.959,5.1191,5.1191,5.1191,5.1191,5.1191,5.1191,5.1191,5.1191,5.1442,5.2112,5.2291,5.2818,5.3998,5.4047,5.4217,5.4807,5.4828,5.479,5.4724,5.4243,5.4047,5.4226,5.4021,5.3891,5.3891,5.3867,5.3841,5.3841,5.3605,5.3502,5.3502,5.3502,5.3502,5.3502,5.3502,5.3397,5.3183,5.3183,5.2487,5.1402,5.1402,5.0071,4.8108,4.8108,4.7355,4.6298,4.6298,4.6298,4.6298,4.6298,4.6298,4.6298,4.6298,4.6298,4.6298,4.6298,4.6298,4.6298,4.6298,4.6298,4.6298,4.6298,4.6298,4.6298,4.6298,4.6298,4.6298,4.6298,4.6298,4.6323,4.6424,4.6436,4.6461,4.6562,4.6951,4.7237,4.7237,4.7616,4.7945,4.8046,4.8134,4.8385,4.8878,4.8944,4.9116,4.9565,4.959,4.959,4.959,4.959,4.959,4.959,4.959,4.959,4.959,4.959,4.959,4.959,4.959,4.959,4.959,4.959,4.959,4.959,4.959,4.959,4.959,4.959,4.959,4.959,4.959,4.959,4.959,4.959,4.959,4.959,5.1191,5.1191,5.1191,5.1191,5.1191,5.1191,5.1191,5.1191,5.1442,5.2112,5.2707,5.3265,5.3803,5.4336,5.4786,5.5131,5.4928,5.4671,5.4396,5.4291,5.4149,5.3969,5.3917,5.3891,5.3891,5.3671,5.354,5.354,5.3515,5.3502,5.3502,5.3502,5.3502,5.3502,5.3502,5.2917,5.1947,5.1947,5.1251,5.014,5.014,4.932,4.8108,4.8108,4.7355,4.6298,4.6298,4.6298,4.6298,4.6298,4.6298,4.6298,4.6298,4.6298,4.6298,4.6298,4.6298,4.6298,4.6298,4.6298,4.6298,4.6298,4.6298,4.6298,4.6298,4.6298,4.6298,4.6298,4.6298,4.6436,4.691,4.6986,4.7136,4.7603,4.7741,4.7792,4.7792,4.7842,4.8096,4.8614,4.9091,4.9402,4.9477,4.9493,4.9515,4.959,4.959,4.959,4.959,4.959,4.959,4.959,4.959,4.959,4.959,4.959,4.959,4.959,4.959,4.959,4.959,4.959,4.959,4.959,4.959,4.959,4.959,4.959,4.959,4.959,4.959,4.959,4.959,4.959,4.959,4.959,5.1191,5.1191,5.1191,5.1191,5.1191,5.1155,5.0999,5.1419,5.1948,5.2472,5.3116,5.3749,5.4293,5.4452,5.45,5.4489,5.4374,5.423,5.4099,5.3943,5.38,5.3684,5.3671,5.3671,5.3671,5.3553,5.3502,5.3502,5.3502,5.3502,5.3502,5.3502,5.3502,5.3502,5.3502,5.3196,5.2716,5.2716,5.1621,4.9901,4.9901,4.8774,4.7087,4.7087,4.6755,4.6298,4.6298,4.6298,4.6298,4.6298,4.6298,4.6298,4.6298,4.6298,4.6298,4.6298,4.6298,4.6298,4.6298,4.6298,4.6298,4.6298,4.6524,4.6763,4.6763,4.6976,4.7101,4.6813,4.6763,4.6913,4.7453,4.7553,4.7629,4.7854,4.8171,4.84,4.84,4.8648,4.895,4.9217,4.9468,4.959,4.959,4.959,4.959,4.959,4.959,4.959,4.959,4.959,4.959,4.959,4.959,4.959,4.959,4.959,4.959,4.959,4.959,4.959,4.959,4.959,4.959,4.959,4.959,4.959,4.959,4.959,4.959,4.959,4.959,4.959,4.959,4.959,4.959,4.959]}]]